<?xml version="1.0" encoding="UTF-8" standalone="no" ?>
<gpx xmlns="http://www.topografix.com/GPX/1/1" xmlns:xsi="http://www.w3.org/2001/XMLSchema-instance" xsi:schemaLocation="http://www.topografix.com/GPX/1/1 http://www.topografix.com/GPX/1/1/gpx.xsd" version="1.1" creator="VisuGPX - https://www.visugpx.com">
  <metadata>
    <name>Lavagnes - Roc de la Vigne - Baume Cellier et Olivier</name>
    <desc><![CDATA[LavagnesOlivier]]></desc>
  </metadata>
  <trk>
    <name><![CDATA[LavagnesOlivier]]></name>
    <trkseg>
      <trkpt lat="43.77304" lon="3.53489">
        <ele>507.23</ele>
        <time>2015-02-01T09:38:07Z</time>
      </trkpt>
      <trkpt lat="43.77308" lon="3.53492">
        <ele>504.83</ele>
        <time>2015-02-01T09:38:34Z</time>
      </trkpt>
      <trkpt lat="43.77309" lon="3.53493">
        <ele>508.19</ele>
        <time>2015-02-01T09:38:49Z</time>
      </trkpt>
      <trkpt lat="43.77305" lon="3.53492">
        <ele>509.16</ele>
        <time>2015-02-01T09:39:02Z</time>
      </trkpt>
      <trkpt lat="43.77304" lon="3.53492">
        <ele>508.19</ele>
        <time>2015-02-01T09:39:14Z</time>
      </trkpt>
      <trkpt lat="43.77303" lon="3.53493">
        <ele>505.31</ele>
        <time>2015-02-01T09:39:25Z</time>
      </trkpt>
      <trkpt lat="43.77303" lon="3.53493">
        <ele>506.27</ele>
        <time>2015-02-01T09:39:27Z</time>
      </trkpt>
      <trkpt lat="43.77301" lon="3.53495">
        <ele>505.79</ele>
        <time>2015-02-01T09:39:31Z</time>
      </trkpt>
      <trkpt lat="43.77299" lon="3.53511">
        <ele>504.35</ele>
        <time>2015-02-01T09:39:42Z</time>
      </trkpt>
      <trkpt lat="43.77298" lon="3.53531">
        <ele>503.87</ele>
        <time>2015-02-01T09:39:57Z</time>
      </trkpt>
      <trkpt lat="43.773" lon="3.53547">
        <ele>503.87</ele>
        <time>2015-02-01T09:40:08Z</time>
      </trkpt>
      <trkpt lat="43.77304" lon="3.53563">
        <ele>504.35</ele>
        <time>2015-02-01T09:40:18Z</time>
      </trkpt>
      <trkpt lat="43.77311" lon="3.53578">
        <ele>503.39</ele>
        <time>2015-02-01T09:40:30Z</time>
      </trkpt>
      <trkpt lat="43.77312" lon="3.5358">
        <ele>502.43</ele>
        <time>2015-02-01T09:40:32Z</time>
      </trkpt>
      <trkpt lat="43.77312" lon="3.53588">
        <ele>502.91</ele>
        <time>2015-02-01T09:40:37Z</time>
      </trkpt>
      <trkpt lat="43.77311" lon="3.53595">
        <ele>502.91</ele>
        <time>2015-02-01T09:40:42Z</time>
      </trkpt>
      <trkpt lat="43.7731" lon="3.53598">
        <ele>503.39</ele>
        <time>2015-02-01T09:40:44Z</time>
      </trkpt>
      <trkpt lat="43.77309" lon="3.53615">
        <ele>502.43</ele>
        <time>2015-02-01T09:40:55Z</time>
      </trkpt>
      <trkpt lat="43.77309" lon="3.53623">
        <ele>501.95</ele>
        <time>2015-02-01T09:41:00Z</time>
      </trkpt>
      <trkpt lat="43.77312" lon="3.5365">
        <ele>500.5</ele>
        <time>2015-02-01T09:41:13Z</time>
      </trkpt>
      <trkpt lat="43.77314" lon="3.53667">
        <ele>500.02</ele>
        <time>2015-02-01T09:41:23Z</time>
      </trkpt>
      <trkpt lat="43.77314" lon="3.53674">
        <ele>499.54</ele>
        <time>2015-02-01T09:41:27Z</time>
      </trkpt>
      <trkpt lat="43.77312" lon="3.53695">
        <ele>500.02</ele>
        <time>2015-02-01T09:41:40Z</time>
      </trkpt>
      <trkpt lat="43.77312" lon="3.53705">
        <ele>500.5</ele>
        <time>2015-02-01T09:41:46Z</time>
      </trkpt>
      <trkpt lat="43.77327" lon="3.53725">
        <ele>500.02</ele>
        <time>2015-02-01T09:42:01Z</time>
      </trkpt>
      <trkpt lat="43.77337" lon="3.53745">
        <ele>501.95</ele>
        <time>2015-02-01T09:42:14Z</time>
      </trkpt>
      <trkpt lat="43.77349" lon="3.53766">
        <ele>501.95</ele>
        <time>2015-02-01T09:42:27Z</time>
      </trkpt>
      <trkpt lat="43.77369" lon="3.53776">
        <ele>501.95</ele>
        <time>2015-02-01T09:42:44Z</time>
      </trkpt>
      <trkpt lat="43.77389" lon="3.53769">
        <ele>503.39</ele>
        <time>2015-02-01T09:42:58Z</time>
      </trkpt>
      <trkpt lat="43.77407" lon="3.53761">
        <ele>501.95</ele>
        <time>2015-02-01T09:43:12Z</time>
      </trkpt>
      <trkpt lat="43.77422" lon="3.53752">
        <ele>503.39</ele>
        <time>2015-02-01T09:43:24Z</time>
      </trkpt>
      <trkpt lat="43.77424" lon="3.53751">
        <ele>503.87</ele>
        <time>2015-02-01T09:43:26Z</time>
      </trkpt>
      <trkpt lat="43.77436" lon="3.53739">
        <ele>505.79</ele>
        <time>2015-02-01T09:43:37Z</time>
      </trkpt>
      <trkpt lat="43.77447" lon="3.53728">
        <ele>506.75</ele>
        <time>2015-02-01T09:43:48Z</time>
      </trkpt>
      <trkpt lat="43.77468" lon="3.53725">
        <ele>508.67</ele>
        <time>2015-02-01T09:44:04Z</time>
      </trkpt>
      <trkpt lat="43.77485" lon="3.5373">
        <ele>511.08</ele>
        <time>2015-02-01T09:44:18Z</time>
      </trkpt>
      <trkpt lat="43.77492" lon="3.53734">
        <ele>510.6</ele>
        <time>2015-02-01T09:44:23Z</time>
      </trkpt>
      <trkpt lat="43.77509" lon="3.53739">
        <ele>510.6</ele>
        <time>2015-02-01T09:44:36Z</time>
      </trkpt>
      <trkpt lat="43.77525" lon="3.53742">
        <ele>510.12</ele>
        <time>2015-02-01T09:44:49Z</time>
      </trkpt>
      <trkpt lat="43.77543" lon="3.53743">
        <ele>512.04</ele>
        <time>2015-02-01T09:45:03Z</time>
      </trkpt>
      <trkpt lat="43.77556" lon="3.53749">
        <ele>512.04</ele>
        <time>2015-02-01T09:45:14Z</time>
      </trkpt>
      <trkpt lat="43.77567" lon="3.53758">
        <ele>513.96</ele>
        <time>2015-02-01T09:45:25Z</time>
      </trkpt>
      <trkpt lat="43.7758" lon="3.53768">
        <ele>513.48</ele>
        <time>2015-02-01T09:45:37Z</time>
      </trkpt>
      <trkpt lat="43.77592" lon="3.53776">
        <ele>516.85</ele>
        <time>2015-02-01T09:45:48Z</time>
      </trkpt>
      <trkpt lat="43.77603" lon="3.53779">
        <ele>518.29</ele>
        <time>2015-02-01T09:45:58Z</time>
      </trkpt>
      <trkpt lat="43.77621" lon="3.53782">
        <ele>520.69</ele>
        <time>2015-02-01T09:46:11Z</time>
      </trkpt>
      <trkpt lat="43.77634" lon="3.53786">
        <ele>523.58</ele>
        <time>2015-02-01T09:46:22Z</time>
      </trkpt>
      <trkpt lat="43.7765" lon="3.53788">
        <ele>525.5</ele>
        <time>2015-02-01T09:46:35Z</time>
      </trkpt>
      <trkpt lat="43.77665" lon="3.53792">
        <ele>526.46</ele>
        <time>2015-02-01T09:46:47Z</time>
      </trkpt>
      <trkpt lat="43.77676" lon="3.53806">
        <ele>529.34</ele>
        <time>2015-02-01T09:47:00Z</time>
      </trkpt>
      <trkpt lat="43.77685" lon="3.53823">
        <ele>528.38</ele>
        <time>2015-02-01T09:47:12Z</time>
      </trkpt>
      <trkpt lat="43.77687" lon="3.53827">
        <ele>529.82</ele>
        <time>2015-02-01T09:47:15Z</time>
      </trkpt>
      <trkpt lat="43.77695" lon="3.53839">
        <ele>532.23</ele>
        <time>2015-02-01T09:47:26Z</time>
      </trkpt>
      <trkpt lat="43.77704" lon="3.53851">
        <ele>533.67</ele>
        <time>2015-02-01T09:47:37Z</time>
      </trkpt>
      <trkpt lat="43.77711" lon="3.53869">
        <ele>531.75</ele>
        <time>2015-02-01T09:47:49Z</time>
      </trkpt>
      <trkpt lat="43.77719" lon="3.53886">
        <ele>532.71</ele>
        <time>2015-02-01T09:48:01Z</time>
      </trkpt>
      <trkpt lat="43.77727" lon="3.53898">
        <ele>533.19</ele>
        <time>2015-02-01T09:48:11Z</time>
      </trkpt>
      <trkpt lat="43.77735" lon="3.53911">
        <ele>533.67</ele>
        <time>2015-02-01T09:48:21Z</time>
      </trkpt>
      <trkpt lat="43.77738" lon="3.53918">
        <ele>536.07</ele>
        <time>2015-02-01T09:48:26Z</time>
      </trkpt>
      <trkpt lat="43.77741" lon="3.53926">
        <ele>539.44</ele>
        <time>2015-02-01T09:48:32Z</time>
      </trkpt>
      <trkpt lat="43.77747" lon="3.53945">
        <ele>537.99</ele>
        <time>2015-02-01T09:48:44Z</time>
      </trkpt>
      <trkpt lat="43.77748" lon="3.53946">
        <ele>536.55</ele>
        <time>2015-02-01T09:48:45Z</time>
      </trkpt>
      <trkpt lat="43.77759" lon="3.53952">
        <ele>539.44</ele>
        <time>2015-02-01T09:48:56Z</time>
      </trkpt>
      <trkpt lat="43.77764" lon="3.53955">
        <ele>542.8</ele>
        <time>2015-02-01T09:49:01Z</time>
      </trkpt>
      <trkpt lat="43.77765" lon="3.53957">
        <ele>543.28</ele>
        <time>2015-02-01T09:49:03Z</time>
      </trkpt>
      <trkpt lat="43.7777" lon="3.53964">
        <ele>542.8</ele>
        <time>2015-02-01T09:49:09Z</time>
      </trkpt>
      <trkpt lat="43.77774" lon="3.53974">
        <ele>544.24</ele>
        <time>2015-02-01T09:49:17Z</time>
      </trkpt>
      <trkpt lat="43.77783" lon="3.53988">
        <ele>545.2</ele>
        <time>2015-02-01T09:49:29Z</time>
      </trkpt>
      <trkpt lat="43.77791" lon="3.54005">
        <ele>546.65</ele>
        <time>2015-02-01T09:49:41Z</time>
      </trkpt>
      <trkpt lat="43.77797" lon="3.54022">
        <ele>546.17</ele>
        <time>2015-02-01T09:49:53Z</time>
      </trkpt>
      <trkpt lat="43.77803" lon="3.54039">
        <ele>546.65</ele>
        <time>2015-02-01T09:50:05Z</time>
      </trkpt>
      <trkpt lat="43.77807" lon="3.54055">
        <ele>547.61</ele>
        <time>2015-02-01T09:50:16Z</time>
      </trkpt>
      <trkpt lat="43.77813" lon="3.54072">
        <ele>550.97</ele>
        <time>2015-02-01T09:50:27Z</time>
      </trkpt>
      <trkpt lat="43.7782" lon="3.54089">
        <ele>552.9</ele>
        <time>2015-02-01T09:50:39Z</time>
      </trkpt>
      <trkpt lat="43.77826" lon="3.54109">
        <ele>550.97</ele>
        <time>2015-02-01T09:50:52Z</time>
      </trkpt>
      <trkpt lat="43.77835" lon="3.54126">
        <ele>551.93</ele>
        <time>2015-02-01T09:51:04Z</time>
      </trkpt>
      <trkpt lat="43.77843" lon="3.54143">
        <ele>552.41</ele>
        <time>2015-02-01T09:51:16Z</time>
      </trkpt>
      <trkpt lat="43.77848" lon="3.54163">
        <ele>552.9</ele>
        <time>2015-02-01T09:51:28Z</time>
      </trkpt>
      <trkpt lat="43.7785" lon="3.54178">
        <ele>556.74</ele>
        <time>2015-02-01T09:51:37Z</time>
      </trkpt>
      <trkpt lat="43.7785" lon="3.5418">
        <ele>556.26</ele>
        <time>2015-02-01T09:51:38Z</time>
      </trkpt>
      <trkpt lat="43.7785" lon="3.54182">
        <ele>554.34</ele>
        <time>2015-02-01T09:51:40Z</time>
      </trkpt>
      <trkpt lat="43.7785" lon="3.54201">
        <ele>554.82</ele>
        <time>2015-02-01T09:51:51Z</time>
      </trkpt>
      <trkpt lat="43.7785" lon="3.54214">
        <ele>554.82</ele>
        <time>2015-02-01T09:51:58Z</time>
      </trkpt>
      <trkpt lat="43.7785" lon="3.54235">
        <ele>555.78</ele>
        <time>2015-02-01T09:52:10Z</time>
      </trkpt>
      <trkpt lat="43.77849" lon="3.54247">
        <ele>556.74</ele>
        <time>2015-02-01T09:52:17Z</time>
      </trkpt>
      <trkpt lat="43.77853" lon="3.54266">
        <ele>556.26</ele>
        <time>2015-02-01T09:52:29Z</time>
      </trkpt>
      <trkpt lat="43.77855" lon="3.54273">
        <ele>558.18</ele>
        <time>2015-02-01T09:52:34Z</time>
      </trkpt>
      <trkpt lat="43.77858" lon="3.5429">
        <ele>559.14</ele>
        <time>2015-02-01T09:52:45Z</time>
      </trkpt>
      <trkpt lat="43.77859" lon="3.54292">
        <ele>558.18</ele>
        <time>2015-02-01T09:53:02Z</time>
      </trkpt>
      <trkpt lat="43.7786" lon="3.54297">
        <ele>559.62</ele>
        <time>2015-02-01T09:53:18Z</time>
      </trkpt>
      <trkpt lat="43.77861" lon="3.54301">
        <ele>562.03</ele>
        <time>2015-02-01T09:53:20Z</time>
      </trkpt>
      <trkpt lat="43.77864" lon="3.54308">
        <ele>560.11</ele>
        <time>2015-02-01T09:53:25Z</time>
      </trkpt>
      <trkpt lat="43.7787" lon="3.54325">
        <ele>560.59</ele>
        <time>2015-02-01T09:53:37Z</time>
      </trkpt>
      <trkpt lat="43.77872" lon="3.5433">
        <ele>563.95</ele>
        <time>2015-02-01T09:53:40Z</time>
      </trkpt>
      <trkpt lat="43.77873" lon="3.54332">
        <ele>563.95</ele>
        <time>2015-02-01T09:53:42Z</time>
      </trkpt>
      <trkpt lat="43.77875" lon="3.54338">
        <ele>561.55</ele>
        <time>2015-02-01T09:53:46Z</time>
      </trkpt>
      <trkpt lat="43.77877" lon="3.5435">
        <ele>562.03</ele>
        <time>2015-02-01T09:53:54Z</time>
      </trkpt>
      <trkpt lat="43.7788" lon="3.54365">
        <ele>562.51</ele>
        <time>2015-02-01T09:54:04Z</time>
      </trkpt>
      <trkpt lat="43.77883" lon="3.54384">
        <ele>563.47</ele>
        <time>2015-02-01T09:54:15Z</time>
      </trkpt>
      <trkpt lat="43.77884" lon="3.54386">
        <ele>564.43</ele>
        <time>2015-02-01T09:54:17Z</time>
      </trkpt>
      <trkpt lat="43.77888" lon="3.54399">
        <ele>563.47</ele>
        <time>2015-02-01T09:54:25Z</time>
      </trkpt>
      <trkpt lat="43.7789" lon="3.54407">
        <ele>564.91</ele>
        <time>2015-02-01T09:54:29Z</time>
      </trkpt>
      <trkpt lat="43.77897" lon="3.54425">
        <ele>563.95</ele>
        <time>2015-02-01T09:54:40Z</time>
      </trkpt>
      <trkpt lat="43.779" lon="3.54443">
        <ele>565.87</ele>
        <time>2015-02-01T09:54:51Z</time>
      </trkpt>
      <trkpt lat="43.779" lon="3.54449">
        <ele>566.35</ele>
        <time>2015-02-01T09:54:55Z</time>
      </trkpt>
      <trkpt lat="43.77898" lon="3.54458">
        <ele>567.32</ele>
        <time>2015-02-01T09:55:01Z</time>
      </trkpt>
      <trkpt lat="43.77892" lon="3.54475">
        <ele>567.8</ele>
        <time>2015-02-01T09:55:12Z</time>
      </trkpt>
      <trkpt lat="43.77888" lon="3.54494">
        <ele>568.28</ele>
        <time>2015-02-01T09:55:23Z</time>
      </trkpt>
      <trkpt lat="43.77888" lon="3.54496">
        <ele>568.28</ele>
        <time>2015-02-01T09:55:24Z</time>
      </trkpt>
      <trkpt lat="43.77886" lon="3.54513">
        <ele>569.24</ele>
        <time>2015-02-01T09:55:34Z</time>
      </trkpt>
      <trkpt lat="43.77889" lon="3.5453">
        <ele>569.24</ele>
        <time>2015-02-01T09:55:44Z</time>
      </trkpt>
      <trkpt lat="43.77897" lon="3.54545">
        <ele>571.64</ele>
        <time>2015-02-01T09:55:54Z</time>
      </trkpt>
      <trkpt lat="43.77899" lon="3.54547">
        <ele>571.64</ele>
        <time>2015-02-01T09:55:55Z</time>
      </trkpt>
      <trkpt lat="43.779" lon="3.54548">
        <ele>570.2</ele>
        <time>2015-02-01T09:55:57Z</time>
      </trkpt>
      <trkpt lat="43.77911" lon="3.54564">
        <ele>569.72</ele>
        <time>2015-02-01T09:56:08Z</time>
      </trkpt>
      <trkpt lat="43.77918" lon="3.54578">
        <ele>568.76</ele>
        <time>2015-02-01T09:56:18Z</time>
      </trkpt>
      <trkpt lat="43.77925" lon="3.54596">
        <ele>569.24</ele>
        <time>2015-02-01T09:56:29Z</time>
      </trkpt>
      <trkpt lat="43.77927" lon="3.546">
        <ele>568.28</ele>
        <time>2015-02-01T09:56:31Z</time>
      </trkpt>
      <trkpt lat="43.77932" lon="3.54618">
        <ele>567.8</ele>
        <time>2015-02-01T09:56:42Z</time>
      </trkpt>
      <trkpt lat="43.77931" lon="3.5464">
        <ele>568.76</ele>
        <time>2015-02-01T09:56:54Z</time>
      </trkpt>
      <trkpt lat="43.77924" lon="3.54656">
        <ele>567.32</ele>
        <time>2015-02-01T09:57:05Z</time>
      </trkpt>
      <trkpt lat="43.77919" lon="3.54674">
        <ele>567.32</ele>
        <time>2015-02-01T09:57:16Z</time>
      </trkpt>
      <trkpt lat="43.77915" lon="3.54685">
        <ele>568.76</ele>
        <time>2015-02-01T09:57:23Z</time>
      </trkpt>
      <trkpt lat="43.77914" lon="3.54687">
        <ele>567.8</ele>
        <time>2015-02-01T09:57:24Z</time>
      </trkpt>
      <trkpt lat="43.77913" lon="3.54689">
        <ele>568.28</ele>
        <time>2015-02-01T09:57:25Z</time>
      </trkpt>
      <trkpt lat="43.77913" lon="3.54691">
        <ele>568.76</ele>
        <time>2015-02-01T09:57:26Z</time>
      </trkpt>
      <trkpt lat="43.77912" lon="3.54693">
        <ele>568.76</ele>
        <time>2015-02-01T09:57:27Z</time>
      </trkpt>
      <trkpt lat="43.77906" lon="3.54711">
        <ele>567.8</ele>
        <time>2015-02-01T09:57:38Z</time>
      </trkpt>
      <trkpt lat="43.77904" lon="3.54734">
        <ele>567.32</ele>
        <time>2015-02-01T09:57:50Z</time>
      </trkpt>
      <trkpt lat="43.77904" lon="3.54737">
        <ele>565.39</ele>
        <time>2015-02-01T09:57:52Z</time>
      </trkpt>
      <trkpt lat="43.77906" lon="3.54746">
        <ele>563.47</ele>
        <time>2015-02-01T09:58:02Z</time>
      </trkpt>
      <trkpt lat="43.77906" lon="3.54746">
        <ele>567.32</ele>
        <time>2015-02-01T09:58:04Z</time>
      </trkpt>
      <trkpt lat="43.77906" lon="3.54748">
        <ele>565.87</ele>
        <time>2015-02-01T09:58:26Z</time>
      </trkpt>
      <trkpt lat="43.77906" lon="3.54748">
        <ele>566.35</ele>
        <time>2015-02-01T09:58:40Z</time>
      </trkpt>
      <trkpt lat="43.77907" lon="3.54748">
        <ele>565.39</ele>
        <time>2015-02-01T09:59:01Z</time>
      </trkpt>
      <trkpt lat="43.77907" lon="3.54749">
        <ele>566.83</ele>
        <time>2015-02-01T09:59:10Z</time>
      </trkpt>
      <trkpt lat="43.77907" lon="3.54753">
        <ele>565.87</ele>
        <time>2015-02-01T09:59:14Z</time>
      </trkpt>
      <trkpt lat="43.77908" lon="3.54756">
        <ele>565.87</ele>
        <time>2015-02-01T09:59:17Z</time>
      </trkpt>
      <trkpt lat="43.77905" lon="3.54762">
        <ele>565.39</ele>
        <time>2015-02-01T09:59:23Z</time>
      </trkpt>
      <trkpt lat="43.77903" lon="3.54766">
        <ele>563.47</ele>
        <time>2015-02-01T09:59:26Z</time>
      </trkpt>
      <trkpt lat="43.77898" lon="3.54772">
        <ele>561.07</ele>
        <time>2015-02-01T09:59:32Z</time>
      </trkpt>
      <trkpt lat="43.77898" lon="3.54774">
        <ele>562.51</ele>
        <time>2015-02-01T09:59:34Z</time>
      </trkpt>
      <trkpt lat="43.77898" lon="3.54775">
        <ele>562.03</ele>
        <time>2015-02-01T09:59:35Z</time>
      </trkpt>
      <trkpt lat="43.77896" lon="3.54778">
        <ele>561.55</ele>
        <time>2015-02-01T09:59:38Z</time>
      </trkpt>
      <trkpt lat="43.77891" lon="3.54783">
        <ele>560.59</ele>
        <time>2015-02-01T09:59:44Z</time>
      </trkpt>
      <trkpt lat="43.77889" lon="3.548">
        <ele>558.66</ele>
        <time>2015-02-01T09:59:56Z</time>
      </trkpt>
      <trkpt lat="43.77887" lon="3.54812">
        <ele>556.74</ele>
        <time>2015-02-01T10:00:04Z</time>
      </trkpt>
      <trkpt lat="43.77886" lon="3.54815">
        <ele>556.26</ele>
        <time>2015-02-01T10:00:06Z</time>
      </trkpt>
      <trkpt lat="43.77883" lon="3.54827">
        <ele>555.3</ele>
        <time>2015-02-01T10:00:14Z</time>
      </trkpt>
      <trkpt lat="43.77875" lon="3.54835">
        <ele>554.82</ele>
        <time>2015-02-01T10:00:22Z</time>
      </trkpt>
      <trkpt lat="43.77864" lon="3.5484">
        <ele>554.34</ele>
        <time>2015-02-01T10:00:35Z</time>
      </trkpt>
      <trkpt lat="43.77861" lon="3.54852">
        <ele>552.41</ele>
        <time>2015-02-01T10:00:47Z</time>
      </trkpt>
      <trkpt lat="43.77861" lon="3.54853">
        <ele>552.9</ele>
        <time>2015-02-01T10:01:10Z</time>
      </trkpt>
      <trkpt lat="43.77861" lon="3.54856">
        <ele>552.41</ele>
        <time>2015-02-01T10:01:16Z</time>
      </trkpt>
      <trkpt lat="43.77866" lon="3.54866">
        <ele>549.05</ele>
        <time>2015-02-01T10:01:24Z</time>
      </trkpt>
      <trkpt lat="43.77866" lon="3.54871">
        <ele>548.57</ele>
        <time>2015-02-01T10:01:28Z</time>
      </trkpt>
      <trkpt lat="43.77865" lon="3.54883">
        <ele>549.53</ele>
        <time>2015-02-01T10:01:37Z</time>
      </trkpt>
      <trkpt lat="43.77867" lon="3.54895">
        <ele>548.57</ele>
        <time>2015-02-01T10:01:46Z</time>
      </trkpt>
      <trkpt lat="43.77869" lon="3.54906">
        <ele>548.09</ele>
        <time>2015-02-01T10:01:57Z</time>
      </trkpt>
      <trkpt lat="43.7787" lon="3.54909">
        <ele>548.09</ele>
        <time>2015-02-01T10:01:59Z</time>
      </trkpt>
      <trkpt lat="43.77873" lon="3.54918">
        <ele>546.65</ele>
        <time>2015-02-01T10:02:11Z</time>
      </trkpt>
      <trkpt lat="43.7787" lon="3.54922">
        <ele>546.17</ele>
        <time>2015-02-01T10:02:15Z</time>
      </trkpt>
      <trkpt lat="43.7787" lon="3.54929">
        <ele>546.65</ele>
        <time>2015-02-01T10:02:19Z</time>
      </trkpt>
      <trkpt lat="43.77871" lon="3.54936">
        <ele>544.72</ele>
        <time>2015-02-01T10:02:23Z</time>
      </trkpt>
      <trkpt lat="43.77871" lon="3.54938">
        <ele>546.17</ele>
        <time>2015-02-01T10:02:25Z</time>
      </trkpt>
      <trkpt lat="43.77871" lon="3.54946">
        <ele>546.17</ele>
        <time>2015-02-01T10:02:30Z</time>
      </trkpt>
      <trkpt lat="43.77868" lon="3.54948">
        <ele>549.53</ele>
        <time>2015-02-01T10:02:34Z</time>
      </trkpt>
      <trkpt lat="43.77866" lon="3.54955">
        <ele>548.09</ele>
        <time>2015-02-01T10:02:44Z</time>
      </trkpt>
      <trkpt lat="43.77866" lon="3.54956">
        <ele>549.53</ele>
        <time>2015-02-01T10:02:47Z</time>
      </trkpt>
      <trkpt lat="43.77866" lon="3.54957">
        <ele>550.49</ele>
        <time>2015-02-01T10:02:52Z</time>
      </trkpt>
      <trkpt lat="43.77866" lon="3.54957">
        <ele>549.05</ele>
        <time>2015-02-01T10:02:55Z</time>
      </trkpt>
      <trkpt lat="43.77864" lon="3.54958">
        <ele>550.49</ele>
        <time>2015-02-01T10:02:58Z</time>
      </trkpt>
      <trkpt lat="43.7786" lon="3.54959">
        <ele>549.05</ele>
        <time>2015-02-01T10:03:03Z</time>
      </trkpt>
      <trkpt lat="43.77855" lon="3.54964">
        <ele>549.53</ele>
        <time>2015-02-01T10:03:08Z</time>
      </trkpt>
      <trkpt lat="43.77852" lon="3.54969">
        <ele>550.97</ele>
        <time>2015-02-01T10:03:12Z</time>
      </trkpt>
      <trkpt lat="43.77848" lon="3.54978">
        <ele>550.97</ele>
        <time>2015-02-01T10:03:19Z</time>
      </trkpt>
      <trkpt lat="43.77848" lon="3.54981">
        <ele>551.45</ele>
        <time>2015-02-01T10:03:21Z</time>
      </trkpt>
      <trkpt lat="43.77844" lon="3.54993">
        <ele>552.9</ele>
        <time>2015-02-01T10:03:30Z</time>
      </trkpt>
      <trkpt lat="43.77839" lon="3.55004">
        <ele>555.3</ele>
        <time>2015-02-01T10:03:40Z</time>
      </trkpt>
      <trkpt lat="43.77839" lon="3.55011">
        <ele>554.82</ele>
        <time>2015-02-01T10:03:46Z</time>
      </trkpt>
      <trkpt lat="43.77839" lon="3.55014">
        <ele>556.74</ele>
        <time>2015-02-01T10:03:49Z</time>
      </trkpt>
      <trkpt lat="43.77837" lon="3.55023">
        <ele>558.18</ele>
        <time>2015-02-01T10:04:00Z</time>
      </trkpt>
      <trkpt lat="43.77838" lon="3.55026">
        <ele>559.14</ele>
        <time>2015-02-01T10:04:17Z</time>
      </trkpt>
      <trkpt lat="43.7784" lon="3.55027">
        <ele>557.22</ele>
        <time>2015-02-01T10:04:37Z</time>
      </trkpt>
      <trkpt lat="43.77839" lon="3.55028">
        <ele>555.78</ele>
        <time>2015-02-01T10:04:42Z</time>
      </trkpt>
      <trkpt lat="43.77839" lon="3.55029">
        <ele>559.14</ele>
        <time>2015-02-01T10:04:49Z</time>
      </trkpt>
      <trkpt lat="43.77839" lon="3.55029">
        <ele>558.18</ele>
        <time>2015-02-01T10:05:08Z</time>
      </trkpt>
      <trkpt lat="43.77838" lon="3.55032">
        <ele>558.18</ele>
        <time>2015-02-01T10:05:12Z</time>
      </trkpt>
      <trkpt lat="43.77836" lon="3.55037">
        <ele>560.11</ele>
        <time>2015-02-01T10:05:17Z</time>
      </trkpt>
      <trkpt lat="43.77835" lon="3.55039">
        <ele>559.14</ele>
        <time>2015-02-01T10:05:19Z</time>
      </trkpt>
      <trkpt lat="43.77835" lon="3.55044">
        <ele>562.51</ele>
        <time>2015-02-01T10:05:23Z</time>
      </trkpt>
      <trkpt lat="43.77834" lon="3.55045">
        <ele>558.18</ele>
        <time>2015-02-01T10:05:26Z</time>
      </trkpt>
      <trkpt lat="43.7783" lon="3.55053">
        <ele>564.91</ele>
        <time>2015-02-01T10:05:34Z</time>
      </trkpt>
      <trkpt lat="43.77829" lon="3.55057">
        <ele>564.43</ele>
        <time>2015-02-01T10:05:37Z</time>
      </trkpt>
      <trkpt lat="43.77828" lon="3.55065">
        <ele>565.39</ele>
        <time>2015-02-01T10:05:43Z</time>
      </trkpt>
      <trkpt lat="43.77822" lon="3.55069">
        <ele>567.32</ele>
        <time>2015-02-01T10:05:50Z</time>
      </trkpt>
      <trkpt lat="43.7782" lon="3.55072">
        <ele>566.83</ele>
        <time>2015-02-01T10:05:53Z</time>
      </trkpt>
      <trkpt lat="43.77813" lon="3.5508">
        <ele>570.68</ele>
        <time>2015-02-01T10:06:03Z</time>
      </trkpt>
      <trkpt lat="43.77811" lon="3.55081">
        <ele>571.64</ele>
        <time>2015-02-01T10:06:05Z</time>
      </trkpt>
      <trkpt lat="43.77806" lon="3.55085">
        <ele>569.24</ele>
        <time>2015-02-01T10:06:11Z</time>
      </trkpt>
      <trkpt lat="43.77804" lon="3.55089">
        <ele>571.16</ele>
        <time>2015-02-01T10:06:14Z</time>
      </trkpt>
      <trkpt lat="43.77804" lon="3.55091">
        <ele>572.12</ele>
        <time>2015-02-01T10:06:16Z</time>
      </trkpt>
      <trkpt lat="43.77803" lon="3.55095">
        <ele>574.53</ele>
        <time>2015-02-01T10:06:20Z</time>
      </trkpt>
      <trkpt lat="43.77798" lon="3.55102">
        <ele>574.53</ele>
        <time>2015-02-01T10:06:27Z</time>
      </trkpt>
      <trkpt lat="43.77797" lon="3.55108">
        <ele>574.53</ele>
        <time>2015-02-01T10:06:31Z</time>
      </trkpt>
      <trkpt lat="43.77795" lon="3.55112">
        <ele>571.64</ele>
        <time>2015-02-01T10:06:35Z</time>
      </trkpt>
      <trkpt lat="43.77792" lon="3.55114">
        <ele>576.93</ele>
        <time>2015-02-01T10:06:38Z</time>
      </trkpt>
      <trkpt lat="43.77784" lon="3.55123">
        <ele>578.37</ele>
        <time>2015-02-01T10:06:50Z</time>
      </trkpt>
      <trkpt lat="43.77779" lon="3.55127">
        <ele>580.77</ele>
        <time>2015-02-01T10:06:56Z</time>
      </trkpt>
      <trkpt lat="43.7777" lon="3.55134">
        <ele>582.7</ele>
        <time>2015-02-01T10:07:07Z</time>
      </trkpt>
      <trkpt lat="43.7777" lon="3.55135">
        <ele>582.22</ele>
        <time>2015-02-01T10:07:08Z</time>
      </trkpt>
      <trkpt lat="43.77768" lon="3.55138">
        <ele>582.22</ele>
        <time>2015-02-01T10:07:11Z</time>
      </trkpt>
      <trkpt lat="43.77766" lon="3.55142">
        <ele>585.1</ele>
        <time>2015-02-01T10:07:15Z</time>
      </trkpt>
      <trkpt lat="43.77764" lon="3.55146">
        <ele>584.62</ele>
        <time>2015-02-01T10:07:18Z</time>
      </trkpt>
      <trkpt lat="43.77763" lon="3.55149">
        <ele>585.58</ele>
        <time>2015-02-01T10:07:20Z</time>
      </trkpt>
      <trkpt lat="43.7776" lon="3.55163">
        <ele>586.06</ele>
        <time>2015-02-01T10:07:30Z</time>
      </trkpt>
      <trkpt lat="43.7776" lon="3.55164">
        <ele>587.02</ele>
        <time>2015-02-01T10:07:31Z</time>
      </trkpt>
      <trkpt lat="43.7776" lon="3.55171">
        <ele>586.54</ele>
        <time>2015-02-01T10:07:36Z</time>
      </trkpt>
      <trkpt lat="43.7776" lon="3.55174">
        <ele>587.98</ele>
        <time>2015-02-01T10:07:38Z</time>
      </trkpt>
      <trkpt lat="43.7776" lon="3.55175">
        <ele>587.5</ele>
        <time>2015-02-01T10:07:39Z</time>
      </trkpt>
      <trkpt lat="43.77753" lon="3.55186">
        <ele>587.02</ele>
        <time>2015-02-01T10:07:49Z</time>
      </trkpt>
      <trkpt lat="43.77749" lon="3.55197">
        <ele>590.39</ele>
        <time>2015-02-01T10:07:57Z</time>
      </trkpt>
      <trkpt lat="43.77748" lon="3.55199">
        <ele>590.39</ele>
        <time>2015-02-01T10:07:58Z</time>
      </trkpt>
      <trkpt lat="43.77748" lon="3.55201">
        <ele>589.43</ele>
        <time>2015-02-01T10:08:00Z</time>
      </trkpt>
      <trkpt lat="43.77744" lon="3.55203">
        <ele>588.46</ele>
        <time>2015-02-01T10:08:04Z</time>
      </trkpt>
      <trkpt lat="43.77741" lon="3.55206">
        <ele>590.39</ele>
        <time>2015-02-01T10:08:07Z</time>
      </trkpt>
      <trkpt lat="43.77741" lon="3.55206">
        <ele>589.91</ele>
        <time>2015-02-01T10:08:08Z</time>
      </trkpt>
      <trkpt lat="43.77737" lon="3.5521">
        <ele>589.91</ele>
        <time>2015-02-01T10:08:13Z</time>
      </trkpt>
      <trkpt lat="43.7773" lon="3.5522">
        <ele>591.83</ele>
        <time>2015-02-01T10:08:23Z</time>
      </trkpt>
      <trkpt lat="43.77729" lon="3.5522">
        <ele>592.31</ele>
        <time>2015-02-01T10:08:24Z</time>
      </trkpt>
      <trkpt lat="43.77725" lon="3.55227">
        <ele>593.27</ele>
        <time>2015-02-01T10:08:32Z</time>
      </trkpt>
      <trkpt lat="43.77725" lon="3.55229">
        <ele>593.75</ele>
        <time>2015-02-01T10:08:48Z</time>
      </trkpt>
      <trkpt lat="43.77725" lon="3.55231">
        <ele>593.27</ele>
        <time>2015-02-01T10:09:07Z</time>
      </trkpt>
      <trkpt lat="43.77725" lon="3.55231">
        <ele>593.75</ele>
        <time>2015-02-01T10:09:12Z</time>
      </trkpt>
      <trkpt lat="43.77725" lon="3.55231">
        <ele>593.75</ele>
        <time>2015-02-01T10:09:16Z</time>
      </trkpt>
      <trkpt lat="43.77725" lon="3.55232">
        <ele>593.75</ele>
        <time>2015-02-01T10:09:30Z</time>
      </trkpt>
      <trkpt lat="43.77723" lon="3.55233">
        <ele>595.19</ele>
        <time>2015-02-01T10:09:48Z</time>
      </trkpt>
      <trkpt lat="43.77723" lon="3.55236">
        <ele>594.23</ele>
        <time>2015-02-01T10:09:50Z</time>
      </trkpt>
      <trkpt lat="43.77716" lon="3.55249">
        <ele>593.75</ele>
        <time>2015-02-01T10:10:01Z</time>
      </trkpt>
      <trkpt lat="43.77713" lon="3.55254">
        <ele>593.75</ele>
        <time>2015-02-01T10:10:05Z</time>
      </trkpt>
      <trkpt lat="43.7771" lon="3.55262">
        <ele>594.71</ele>
        <time>2015-02-01T10:10:11Z</time>
      </trkpt>
      <trkpt lat="43.77704" lon="3.55276">
        <ele>595.19</ele>
        <time>2015-02-01T10:10:21Z</time>
      </trkpt>
      <trkpt lat="43.77701" lon="3.55291">
        <ele>596.15</ele>
        <time>2015-02-01T10:10:30Z</time>
      </trkpt>
      <trkpt lat="43.77699" lon="3.55299">
        <ele>596.64</ele>
        <time>2015-02-01T10:10:35Z</time>
      </trkpt>
      <trkpt lat="43.77697" lon="3.55308">
        <ele>596.64</ele>
        <time>2015-02-01T10:10:41Z</time>
      </trkpt>
      <trkpt lat="43.77693" lon="3.55318">
        <ele>596.64</ele>
        <time>2015-02-01T10:10:47Z</time>
      </trkpt>
      <trkpt lat="43.7769" lon="3.55327">
        <ele>597.6</ele>
        <time>2015-02-01T10:10:53Z</time>
      </trkpt>
      <trkpt lat="43.77684" lon="3.55346">
        <ele>598.08</ele>
        <time>2015-02-01T10:11:05Z</time>
      </trkpt>
      <trkpt lat="43.77678" lon="3.55363">
        <ele>598.56</ele>
        <time>2015-02-01T10:11:16Z</time>
      </trkpt>
      <trkpt lat="43.77671" lon="3.55379">
        <ele>599.52</ele>
        <time>2015-02-01T10:11:27Z</time>
      </trkpt>
      <trkpt lat="43.77667" lon="3.55387">
        <ele>598.56</ele>
        <time>2015-02-01T10:11:34Z</time>
      </trkpt>
      <trkpt lat="43.77664" lon="3.55394">
        <ele>599.52</ele>
        <time>2015-02-01T10:11:39Z</time>
      </trkpt>
      <trkpt lat="43.77662" lon="3.55402">
        <ele>599.52</ele>
        <time>2015-02-01T10:11:44Z</time>
      </trkpt>
      <trkpt lat="43.7766" lon="3.55413">
        <ele>598.56</ele>
        <time>2015-02-01T10:11:51Z</time>
      </trkpt>
      <trkpt lat="43.77659" lon="3.5542">
        <ele>598.56</ele>
        <time>2015-02-01T10:11:55Z</time>
      </trkpt>
      <trkpt lat="43.77653" lon="3.55434">
        <ele>598.56</ele>
        <time>2015-02-01T10:12:06Z</time>
      </trkpt>
      <trkpt lat="43.77643" lon="3.55449">
        <ele>599.52</ele>
        <time>2015-02-01T10:12:18Z</time>
      </trkpt>
      <trkpt lat="43.77635" lon="3.55463">
        <ele>599.52</ele>
        <time>2015-02-01T10:12:29Z</time>
      </trkpt>
      <trkpt lat="43.77627" lon="3.55475">
        <ele>599.04</ele>
        <time>2015-02-01T10:12:39Z</time>
      </trkpt>
      <trkpt lat="43.77618" lon="3.5549">
        <ele>598.08</ele>
        <time>2015-02-01T10:12:51Z</time>
      </trkpt>
      <trkpt lat="43.77604" lon="3.55499">
        <ele>596.15</ele>
        <time>2015-02-01T10:13:04Z</time>
      </trkpt>
      <trkpt lat="43.77597" lon="3.55503">
        <ele>599.52</ele>
        <time>2015-02-01T10:13:10Z</time>
      </trkpt>
      <trkpt lat="43.77583" lon="3.55509">
        <ele>599.52</ele>
        <time>2015-02-01T10:13:22Z</time>
      </trkpt>
      <trkpt lat="43.77581" lon="3.55511">
        <ele>599.52</ele>
        <time>2015-02-01T10:13:24Z</time>
      </trkpt>
      <trkpt lat="43.77575" lon="3.55516">
        <ele>598.56</ele>
        <time>2015-02-01T10:13:30Z</time>
      </trkpt>
      <trkpt lat="43.77569" lon="3.5552">
        <ele>598.56</ele>
        <time>2015-02-01T10:13:35Z</time>
      </trkpt>
      <trkpt lat="43.77559" lon="3.55527">
        <ele>595.19</ele>
        <time>2015-02-01T10:13:45Z</time>
      </trkpt>
      <trkpt lat="43.77553" lon="3.55526">
        <ele>594.71</ele>
        <time>2015-02-01T10:13:50Z</time>
      </trkpt>
      <trkpt lat="43.77549" lon="3.55522">
        <ele>595.19</ele>
        <time>2015-02-01T10:13:54Z</time>
      </trkpt>
      <trkpt lat="43.77537" lon="3.55507">
        <ele>594.23</ele>
        <time>2015-02-01T10:14:06Z</time>
      </trkpt>
      <trkpt lat="43.77526" lon="3.55491">
        <ele>593.75</ele>
        <time>2015-02-01T10:14:20Z</time>
      </trkpt>
      <trkpt lat="43.77525" lon="3.55491">
        <ele>593.75</ele>
        <time>2015-02-01T10:14:21Z</time>
      </trkpt>
      <trkpt lat="43.7752" lon="3.55496">
        <ele>592.31</ele>
        <time>2015-02-01T10:14:26Z</time>
      </trkpt>
      <trkpt lat="43.77517" lon="3.55495">
        <ele>591.83</ele>
        <time>2015-02-01T10:14:29Z</time>
      </trkpt>
      <trkpt lat="43.77505" lon="3.55482">
        <ele>592.31</ele>
        <time>2015-02-01T10:14:40Z</time>
      </trkpt>
      <trkpt lat="43.775" lon="3.55479">
        <ele>591.83</ele>
        <time>2015-02-01T10:14:45Z</time>
      </trkpt>
      <trkpt lat="43.77498" lon="3.55477">
        <ele>592.31</ele>
        <time>2015-02-01T10:14:47Z</time>
      </trkpt>
      <trkpt lat="43.77496" lon="3.55474">
        <ele>591.83</ele>
        <time>2015-02-01T10:14:49Z</time>
      </trkpt>
      <trkpt lat="43.77485" lon="3.55464">
        <ele>591.35</ele>
        <time>2015-02-01T10:15:00Z</time>
      </trkpt>
      <trkpt lat="43.77484" lon="3.5546">
        <ele>590.39</ele>
        <time>2015-02-01T10:15:02Z</time>
      </trkpt>
      <trkpt lat="43.77474" lon="3.55446">
        <ele>591.35</ele>
        <time>2015-02-01T10:15:13Z</time>
      </trkpt>
      <trkpt lat="43.77465" lon="3.55431">
        <ele>590.87</ele>
        <time>2015-02-01T10:15:23Z</time>
      </trkpt>
      <trkpt lat="43.77456" lon="3.55423">
        <ele>592.31</ele>
        <time>2015-02-01T10:15:33Z</time>
      </trkpt>
      <trkpt lat="43.77449" lon="3.55426">
        <ele>591.35</ele>
        <time>2015-02-01T10:15:39Z</time>
      </trkpt>
      <trkpt lat="43.77442" lon="3.55427">
        <ele>590.87</ele>
        <time>2015-02-01T10:15:45Z</time>
      </trkpt>
      <trkpt lat="43.77429" lon="3.5542">
        <ele>590.87</ele>
        <time>2015-02-01T10:15:56Z</time>
      </trkpt>
      <trkpt lat="43.77428" lon="3.55419">
        <ele>590.87</ele>
        <time>2015-02-01T10:15:58Z</time>
      </trkpt>
      <trkpt lat="43.77425" lon="3.55412">
        <ele>591.35</ele>
        <time>2015-02-01T10:16:05Z</time>
      </trkpt>
      <trkpt lat="43.77422" lon="3.5541">
        <ele>592.31</ele>
        <time>2015-02-01T10:16:07Z</time>
      </trkpt>
      <trkpt lat="43.7742" lon="3.55408">
        <ele>588.95</ele>
        <time>2015-02-01T10:16:09Z</time>
      </trkpt>
      <trkpt lat="43.7742" lon="3.55408">
        <ele>592.31</ele>
        <time>2015-02-01T10:16:10Z</time>
      </trkpt>
      <trkpt lat="43.77413" lon="3.55404">
        <ele>592.31</ele>
        <time>2015-02-01T10:16:16Z</time>
      </trkpt>
      <trkpt lat="43.77401" lon="3.55392">
        <ele>590.39</ele>
        <time>2015-02-01T10:16:27Z</time>
      </trkpt>
      <trkpt lat="43.77399" lon="3.55388">
        <ele>590.87</ele>
        <time>2015-02-01T10:16:31Z</time>
      </trkpt>
      <trkpt lat="43.77386" lon="3.55376">
        <ele>590.87</ele>
        <time>2015-02-01T10:16:43Z</time>
      </trkpt>
      <trkpt lat="43.77385" lon="3.55375">
        <ele>590.87</ele>
        <time>2015-02-01T10:16:44Z</time>
      </trkpt>
      <trkpt lat="43.77383" lon="3.55368">
        <ele>592.31</ele>
        <time>2015-02-01T10:16:53Z</time>
      </trkpt>
      <trkpt lat="43.7739" lon="3.55363">
        <ele>592.31</ele>
        <time>2015-02-01T10:17:05Z</time>
      </trkpt>
      <trkpt lat="43.7739" lon="3.55361">
        <ele>590.39</ele>
        <time>2015-02-01T10:17:07Z</time>
      </trkpt>
      <trkpt lat="43.7739" lon="3.55359">
        <ele>593.75</ele>
        <time>2015-02-01T10:17:10Z</time>
      </trkpt>
      <trkpt lat="43.77391" lon="3.55354">
        <ele>593.27</ele>
        <time>2015-02-01T10:17:13Z</time>
      </trkpt>
      <trkpt lat="43.77384" lon="3.55346">
        <ele>591.83</ele>
        <time>2015-02-01T10:17:23Z</time>
      </trkpt>
      <trkpt lat="43.77383" lon="3.55347">
        <ele>591.35</ele>
        <time>2015-02-01T10:17:33Z</time>
      </trkpt>
      <trkpt lat="43.77381" lon="3.55342">
        <ele>592.31</ele>
        <time>2015-02-01T10:17:48Z</time>
      </trkpt>
      <trkpt lat="43.77382" lon="3.55335">
        <ele>593.27</ele>
        <time>2015-02-01T10:17:53Z</time>
      </trkpt>
      <trkpt lat="43.77382" lon="3.55329">
        <ele>593.27</ele>
        <time>2015-02-01T10:17:57Z</time>
      </trkpt>
      <trkpt lat="43.77384" lon="3.55316">
        <ele>594.71</ele>
        <time>2015-02-01T10:18:05Z</time>
      </trkpt>
      <trkpt lat="43.77381" lon="3.5531">
        <ele>593.27</ele>
        <time>2015-02-01T10:18:10Z</time>
      </trkpt>
      <trkpt lat="43.77379" lon="3.55303">
        <ele>594.23</ele>
        <time>2015-02-01T10:18:15Z</time>
      </trkpt>
      <trkpt lat="43.77376" lon="3.55294">
        <ele>592.31</ele>
        <time>2015-02-01T10:18:21Z</time>
      </trkpt>
      <trkpt lat="43.77371" lon="3.55277">
        <ele>592.79</ele>
        <time>2015-02-01T10:18:31Z</time>
      </trkpt>
      <trkpt lat="43.77363" lon="3.55264">
        <ele>593.75</ele>
        <time>2015-02-01T10:18:41Z</time>
      </trkpt>
      <trkpt lat="43.77355" lon="3.5525">
        <ele>592.31</ele>
        <time>2015-02-01T10:18:50Z</time>
      </trkpt>
      <trkpt lat="43.77343" lon="3.55236">
        <ele>591.35</ele>
        <time>2015-02-01T10:19:01Z</time>
      </trkpt>
      <trkpt lat="43.77341" lon="3.55232">
        <ele>591.83</ele>
        <time>2015-02-01T10:19:04Z</time>
      </trkpt>
      <trkpt lat="43.77334" lon="3.55228">
        <ele>591.35</ele>
        <time>2015-02-01T10:19:10Z</time>
      </trkpt>
      <trkpt lat="43.77332" lon="3.55228">
        <ele>592.31</ele>
        <time>2015-02-01T10:19:11Z</time>
      </trkpt>
      <trkpt lat="43.77331" lon="3.55228">
        <ele>591.83</ele>
        <time>2015-02-01T10:19:12Z</time>
      </trkpt>
      <trkpt lat="43.7733" lon="3.55229">
        <ele>591.83</ele>
        <time>2015-02-01T10:19:13Z</time>
      </trkpt>
      <trkpt lat="43.77329" lon="3.55232">
        <ele>591.83</ele>
        <time>2015-02-01T10:19:16Z</time>
      </trkpt>
      <trkpt lat="43.77327" lon="3.55233">
        <ele>591.83</ele>
        <time>2015-02-01T10:19:18Z</time>
      </trkpt>
      <trkpt lat="43.77325" lon="3.55236">
        <ele>590.87</ele>
        <time>2015-02-01T10:19:21Z</time>
      </trkpt>
      <trkpt lat="43.77324" lon="3.55237">
        <ele>590.39</ele>
        <time>2015-02-01T10:19:22Z</time>
      </trkpt>
      <trkpt lat="43.77314" lon="3.55249">
        <ele>588.95</ele>
        <time>2015-02-01T10:19:33Z</time>
      </trkpt>
      <trkpt lat="43.77301" lon="3.55261">
        <ele>587.02</ele>
        <time>2015-02-01T10:19:45Z</time>
      </trkpt>
      <trkpt lat="43.77299" lon="3.55263">
        <ele>585.58</ele>
        <time>2015-02-01T10:19:48Z</time>
      </trkpt>
      <trkpt lat="43.77286" lon="3.55278">
        <ele>584.62</ele>
        <time>2015-02-01T10:20:01Z</time>
      </trkpt>
      <trkpt lat="43.77285" lon="3.55279">
        <ele>584.14</ele>
        <time>2015-02-01T10:20:02Z</time>
      </trkpt>
      <trkpt lat="43.77272" lon="3.55293">
        <ele>584.14</ele>
        <time>2015-02-01T10:20:14Z</time>
      </trkpt>
      <trkpt lat="43.77268" lon="3.55298">
        <ele>583.18</ele>
        <time>2015-02-01T10:20:19Z</time>
      </trkpt>
      <trkpt lat="43.77252" lon="3.55314">
        <ele>581.73</ele>
        <time>2015-02-01T10:20:33Z</time>
      </trkpt>
      <trkpt lat="43.7724" lon="3.55325">
        <ele>581.73</ele>
        <time>2015-02-01T10:20:44Z</time>
      </trkpt>
      <trkpt lat="43.77236" lon="3.55328">
        <ele>581.25</ele>
        <time>2015-02-01T10:20:47Z</time>
      </trkpt>
      <trkpt lat="43.77223" lon="3.55342">
        <ele>579.81</ele>
        <time>2015-02-01T10:21:00Z</time>
      </trkpt>
      <trkpt lat="43.77212" lon="3.55354">
        <ele>581.73</ele>
        <time>2015-02-01T10:21:11Z</time>
      </trkpt>
      <trkpt lat="43.77209" lon="3.55358">
        <ele>580.29</ele>
        <time>2015-02-01T10:21:14Z</time>
      </trkpt>
      <trkpt lat="43.77206" lon="3.55361">
        <ele>580.29</ele>
        <time>2015-02-01T10:21:17Z</time>
      </trkpt>
      <trkpt lat="43.77202" lon="3.55365">
        <ele>579.33</ele>
        <time>2015-02-01T10:21:21Z</time>
      </trkpt>
      <trkpt lat="43.77187" lon="3.55376">
        <ele>580.29</ele>
        <time>2015-02-01T10:21:35Z</time>
      </trkpt>
      <trkpt lat="43.7717" lon="3.55381">
        <ele>579.81</ele>
        <time>2015-02-01T10:21:47Z</time>
      </trkpt>
      <trkpt lat="43.77161" lon="3.5539">
        <ele>580.29</ele>
        <time>2015-02-01T10:21:55Z</time>
      </trkpt>
      <trkpt lat="43.77155" lon="3.55396">
        <ele>578.37</ele>
        <time>2015-02-01T10:22:00Z</time>
      </trkpt>
      <trkpt lat="43.77144" lon="3.55411">
        <ele>577.41</ele>
        <time>2015-02-01T10:22:11Z</time>
      </trkpt>
      <trkpt lat="43.77144" lon="3.55412">
        <ele>577.41</ele>
        <time>2015-02-01T10:22:12Z</time>
      </trkpt>
      <trkpt lat="43.77141" lon="3.55415">
        <ele>578.85</ele>
        <time>2015-02-01T10:22:14Z</time>
      </trkpt>
      <trkpt lat="43.7713" lon="3.55429">
        <ele>579.33</ele>
        <time>2015-02-01T10:22:24Z</time>
      </trkpt>
      <trkpt lat="43.77121" lon="3.5544">
        <ele>580.29</ele>
        <time>2015-02-01T10:22:34Z</time>
      </trkpt>
      <trkpt lat="43.77113" lon="3.55451">
        <ele>581.25</ele>
        <time>2015-02-01T10:22:43Z</time>
      </trkpt>
      <trkpt lat="43.77104" lon="3.55466">
        <ele>582.7</ele>
        <time>2015-02-01T10:22:53Z</time>
      </trkpt>
      <trkpt lat="43.77101" lon="3.55473">
        <ele>580.77</ele>
        <time>2015-02-01T10:22:58Z</time>
      </trkpt>
      <trkpt lat="43.77094" lon="3.55491">
        <ele>580.29</ele>
        <time>2015-02-01T10:23:10Z</time>
      </trkpt>
      <trkpt lat="43.77093" lon="3.55497">
        <ele>578.37</ele>
        <time>2015-02-01T10:23:15Z</time>
      </trkpt>
      <trkpt lat="43.77091" lon="3.55501">
        <ele>582.7</ele>
        <time>2015-02-01T10:23:19Z</time>
      </trkpt>
      <trkpt lat="43.77088" lon="3.55506">
        <ele>579.81</ele>
        <time>2015-02-01T10:23:22Z</time>
      </trkpt>
      <trkpt lat="43.77079" lon="3.55517">
        <ele>581.73</ele>
        <time>2015-02-01T10:23:32Z</time>
      </trkpt>
      <trkpt lat="43.77078" lon="3.55518">
        <ele>581.73</ele>
        <time>2015-02-01T10:23:33Z</time>
      </trkpt>
      <trkpt lat="43.77067" lon="3.55525">
        <ele>582.7</ele>
        <time>2015-02-01T10:23:44Z</time>
      </trkpt>
      <trkpt lat="43.7706" lon="3.55525">
        <ele>581.73</ele>
        <time>2015-02-01T10:23:51Z</time>
      </trkpt>
      <trkpt lat="43.77049" lon="3.55519">
        <ele>583.18</ele>
        <time>2015-02-01T10:24:03Z</time>
      </trkpt>
      <trkpt lat="43.7704" lon="3.55511">
        <ele>585.1</ele>
        <time>2015-02-01T10:24:14Z</time>
      </trkpt>
      <trkpt lat="43.77028" lon="3.55504">
        <ele>587.98</ele>
        <time>2015-02-01T10:24:27Z</time>
      </trkpt>
      <trkpt lat="43.77027" lon="3.55502">
        <ele>587.5</ele>
        <time>2015-02-01T10:24:29Z</time>
      </trkpt>
      <trkpt lat="43.77016" lon="3.55488">
        <ele>589.43</ele>
        <time>2015-02-01T10:24:43Z</time>
      </trkpt>
      <trkpt lat="43.77013" lon="3.55485">
        <ele>590.39</ele>
        <time>2015-02-01T10:24:46Z</time>
      </trkpt>
      <trkpt lat="43.77005" lon="3.55477">
        <ele>590.87</ele>
        <time>2015-02-01T10:24:54Z</time>
      </trkpt>
      <trkpt lat="43.76991" lon="3.5547">
        <ele>590.39</ele>
        <time>2015-02-01T10:25:04Z</time>
      </trkpt>
      <trkpt lat="43.76981" lon="3.5547">
        <ele>594.71</ele>
        <time>2015-02-01T10:25:11Z</time>
      </trkpt>
      <trkpt lat="43.76969" lon="3.55474">
        <ele>597.12</ele>
        <time>2015-02-01T10:25:21Z</time>
      </trkpt>
      <trkpt lat="43.76959" lon="3.55479">
        <ele>600.48</ele>
        <time>2015-02-01T10:25:30Z</time>
      </trkpt>
      <trkpt lat="43.76946" lon="3.55488">
        <ele>599.04</ele>
        <time>2015-02-01T10:25:42Z</time>
      </trkpt>
      <trkpt lat="43.76947" lon="3.55492">
        <ele>600.48</ele>
        <time>2015-02-01T10:25:55Z</time>
      </trkpt>
      <trkpt lat="43.76948" lon="3.55497">
        <ele>601.92</ele>
        <time>2015-02-01T10:25:58Z</time>
      </trkpt>
      <trkpt lat="43.76949" lon="3.555">
        <ele>600.96</ele>
        <time>2015-02-01T10:26:14Z</time>
      </trkpt>
      <trkpt lat="43.76948" lon="3.55503">
        <ele>601.44</ele>
        <time>2015-02-01T10:26:28Z</time>
      </trkpt>
      <trkpt lat="43.76947" lon="3.55507">
        <ele>601.92</ele>
        <time>2015-02-01T10:26:31Z</time>
      </trkpt>
      <trkpt lat="43.76946" lon="3.55509">
        <ele>603.36</ele>
        <time>2015-02-01T10:26:33Z</time>
      </trkpt>
      <trkpt lat="43.76946" lon="3.55522">
        <ele>605.29</ele>
        <time>2015-02-01T10:26:43Z</time>
      </trkpt>
      <trkpt lat="43.76946" lon="3.55524">
        <ele>604.81</ele>
        <time>2015-02-01T10:26:44Z</time>
      </trkpt>
      <trkpt lat="43.76946" lon="3.55536">
        <ele>603.85</ele>
        <time>2015-02-01T10:26:54Z</time>
      </trkpt>
      <trkpt lat="43.76944" lon="3.55548">
        <ele>606.73</ele>
        <time>2015-02-01T10:27:04Z</time>
      </trkpt>
      <trkpt lat="43.7694" lon="3.55558">
        <ele>607.21</ele>
        <time>2015-02-01T10:27:14Z</time>
      </trkpt>
      <trkpt lat="43.76932" lon="3.55565">
        <ele>608.65</ele>
        <time>2015-02-01T10:27:25Z</time>
      </trkpt>
      <trkpt lat="43.76925" lon="3.55565">
        <ele>609.61</ele>
        <time>2015-02-01T10:27:31Z</time>
      </trkpt>
      <trkpt lat="43.76918" lon="3.55561">
        <ele>609.13</ele>
        <time>2015-02-01T10:27:37Z</time>
      </trkpt>
      <trkpt lat="43.76916" lon="3.55559">
        <ele>608.65</ele>
        <time>2015-02-01T10:27:39Z</time>
      </trkpt>
      <trkpt lat="43.7691" lon="3.55555">
        <ele>609.13</ele>
        <time>2015-02-01T10:27:45Z</time>
      </trkpt>
      <trkpt lat="43.76908" lon="3.55552">
        <ele>609.13</ele>
        <time>2015-02-01T10:27:50Z</time>
      </trkpt>
      <trkpt lat="43.76908" lon="3.55549">
        <ele>610.57</ele>
        <time>2015-02-01T10:27:52Z</time>
      </trkpt>
      <trkpt lat="43.76907" lon="3.55536">
        <ele>611.06</ele>
        <time>2015-02-01T10:28:02Z</time>
      </trkpt>
      <trkpt lat="43.76907" lon="3.55534">
        <ele>608.17</ele>
        <time>2015-02-01T10:28:04Z</time>
      </trkpt>
      <trkpt lat="43.76906" lon="3.55532">
        <ele>611.54</ele>
        <time>2015-02-01T10:28:06Z</time>
      </trkpt>
      <trkpt lat="43.76903" lon="3.55529">
        <ele>612.98</ele>
        <time>2015-02-01T10:28:08Z</time>
      </trkpt>
      <trkpt lat="43.76901" lon="3.55528">
        <ele>609.61</ele>
        <time>2015-02-01T10:28:10Z</time>
      </trkpt>
      <trkpt lat="43.76893" lon="3.55528">
        <ele>611.06</ele>
        <time>2015-02-01T10:28:16Z</time>
      </trkpt>
      <trkpt lat="43.76891" lon="3.5553">
        <ele>610.09</ele>
        <time>2015-02-01T10:28:19Z</time>
      </trkpt>
      <trkpt lat="43.76891" lon="3.55533">
        <ele>613.94</ele>
        <time>2015-02-01T10:28:22Z</time>
      </trkpt>
      <trkpt lat="43.7689" lon="3.55539">
        <ele>613.94</ele>
        <time>2015-02-01T10:28:26Z</time>
      </trkpt>
      <trkpt lat="43.76893" lon="3.55555">
        <ele>613.46</ele>
        <time>2015-02-01T10:28:37Z</time>
      </trkpt>
      <trkpt lat="43.76894" lon="3.55572">
        <ele>615.38</ele>
        <time>2015-02-01T10:28:48Z</time>
      </trkpt>
      <trkpt lat="43.76897" lon="3.55586">
        <ele>618.75</ele>
        <time>2015-02-01T10:28:57Z</time>
      </trkpt>
      <trkpt lat="43.76902" lon="3.556">
        <ele>624.03</ele>
        <time>2015-02-01T10:29:07Z</time>
      </trkpt>
      <trkpt lat="43.76903" lon="3.55601">
        <ele>623.07</ele>
        <time>2015-02-01T10:29:08Z</time>
      </trkpt>
      <trkpt lat="43.76909" lon="3.55613">
        <ele>622.11</ele>
        <time>2015-02-01T10:29:19Z</time>
      </trkpt>
      <trkpt lat="43.76911" lon="3.55624">
        <ele>624.03</ele>
        <time>2015-02-01T10:29:28Z</time>
      </trkpt>
      <trkpt lat="43.76912" lon="3.55627">
        <ele>623.55</ele>
        <time>2015-02-01T10:29:31Z</time>
      </trkpt>
      <trkpt lat="43.76918" lon="3.55641">
        <ele>624.51</ele>
        <time>2015-02-01T10:29:43Z</time>
      </trkpt>
      <trkpt lat="43.76925" lon="3.55646">
        <ele>627.4</ele>
        <time>2015-02-01T10:29:51Z</time>
      </trkpt>
      <trkpt lat="43.76932" lon="3.55651">
        <ele>627.4</ele>
        <time>2015-02-01T10:30:00Z</time>
      </trkpt>
      <trkpt lat="43.76932" lon="3.55653">
        <ele>627.88</ele>
        <time>2015-02-01T10:30:04Z</time>
      </trkpt>
      <trkpt lat="43.76921" lon="3.55658">
        <ele>629.32</ele>
        <time>2015-02-01T10:30:15Z</time>
      </trkpt>
      <trkpt lat="43.7691" lon="3.55658">
        <ele>632.2</ele>
        <time>2015-02-01T10:30:28Z</time>
      </trkpt>
      <trkpt lat="43.76899" lon="3.55654">
        <ele>634.13</ele>
        <time>2015-02-01T10:30:39Z</time>
      </trkpt>
      <trkpt lat="43.76895" lon="3.55651">
        <ele>634.61</ele>
        <time>2015-02-01T10:30:43Z</time>
      </trkpt>
      <trkpt lat="43.76889" lon="3.5565">
        <ele>637.97</ele>
        <time>2015-02-01T10:30:48Z</time>
      </trkpt>
      <trkpt lat="43.76886" lon="3.55651">
        <ele>640.38</ele>
        <time>2015-02-01T10:30:51Z</time>
      </trkpt>
      <trkpt lat="43.76882" lon="3.5566">
        <ele>642.78</ele>
        <time>2015-02-01T10:30:59Z</time>
      </trkpt>
      <trkpt lat="43.76883" lon="3.55673">
        <ele>642.78</ele>
        <time>2015-02-01T10:31:07Z</time>
      </trkpt>
      <trkpt lat="43.76884" lon="3.55677">
        <ele>641.34</ele>
        <time>2015-02-01T10:31:09Z</time>
      </trkpt>
      <trkpt lat="43.76885" lon="3.55679">
        <ele>641.82</ele>
        <time>2015-02-01T10:31:11Z</time>
      </trkpt>
      <trkpt lat="43.76891" lon="3.55698">
        <ele>642.78</ele>
        <time>2015-02-01T10:31:23Z</time>
      </trkpt>
      <trkpt lat="43.76896" lon="3.55708">
        <ele>643.74</ele>
        <time>2015-02-01T10:31:33Z</time>
      </trkpt>
      <trkpt lat="43.76898" lon="3.55727">
        <ele>642.78</ele>
        <time>2015-02-01T10:31:46Z</time>
      </trkpt>
      <trkpt lat="43.76899" lon="3.55733">
        <ele>643.26</ele>
        <time>2015-02-01T10:31:52Z</time>
      </trkpt>
      <trkpt lat="43.76897" lon="3.55742">
        <ele>643.74</ele>
        <time>2015-02-01T10:32:00Z</time>
      </trkpt>
      <trkpt lat="43.76899" lon="3.55751">
        <ele>645.66</ele>
        <time>2015-02-01T10:32:07Z</time>
      </trkpt>
      <trkpt lat="43.76899" lon="3.55752">
        <ele>645.18</ele>
        <time>2015-02-01T10:32:08Z</time>
      </trkpt>
      <trkpt lat="43.76896" lon="3.55759">
        <ele>646.62</ele>
        <time>2015-02-01T10:32:15Z</time>
      </trkpt>
      <trkpt lat="43.76893" lon="3.55767">
        <ele>645.66</ele>
        <time>2015-02-01T10:32:21Z</time>
      </trkpt>
      <trkpt lat="43.76894" lon="3.55774">
        <ele>646.14</ele>
        <time>2015-02-01T10:32:25Z</time>
      </trkpt>
      <trkpt lat="43.76894" lon="3.55778">
        <ele>647.1</ele>
        <time>2015-02-01T10:32:27Z</time>
      </trkpt>
      <trkpt lat="43.76893" lon="3.55783">
        <ele>646.62</ele>
        <time>2015-02-01T10:32:31Z</time>
      </trkpt>
      <trkpt lat="43.76887" lon="3.55801">
        <ele>648.55</ele>
        <time>2015-02-01T10:32:43Z</time>
      </trkpt>
      <trkpt lat="43.76887" lon="3.55802">
        <ele>648.55</ele>
        <time>2015-02-01T10:32:44Z</time>
      </trkpt>
      <trkpt lat="43.76883" lon="3.55808">
        <ele>645.66</ele>
        <time>2015-02-01T10:32:50Z</time>
      </trkpt>
      <trkpt lat="43.76881" lon="3.55811">
        <ele>649.03</ele>
        <time>2015-02-01T10:32:54Z</time>
      </trkpt>
      <trkpt lat="43.7688" lon="3.55814">
        <ele>648.07</ele>
        <time>2015-02-01T10:32:57Z</time>
      </trkpt>
      <trkpt lat="43.76875" lon="3.55829">
        <ele>650.95</ele>
        <time>2015-02-01T10:33:08Z</time>
      </trkpt>
      <trkpt lat="43.76873" lon="3.55837">
        <ele>650.47</ele>
        <time>2015-02-01T10:33:13Z</time>
      </trkpt>
      <trkpt lat="43.76872" lon="3.55839">
        <ele>649.99</ele>
        <time>2015-02-01T10:33:14Z</time>
      </trkpt>
      <trkpt lat="43.7687" lon="3.55861">
        <ele>649.03</ele>
        <time>2015-02-01T10:33:25Z</time>
      </trkpt>
      <trkpt lat="43.76868" lon="3.55869">
        <ele>648.55</ele>
        <time>2015-02-01T10:33:30Z</time>
      </trkpt>
      <trkpt lat="43.76861" lon="3.55886">
        <ele>648.55</ele>
        <time>2015-02-01T10:33:43Z</time>
      </trkpt>
      <trkpt lat="43.7686" lon="3.55888">
        <ele>649.51</ele>
        <time>2015-02-01T10:33:44Z</time>
      </trkpt>
      <trkpt lat="43.7685" lon="3.55901">
        <ele>649.51</ele>
        <time>2015-02-01T10:33:57Z</time>
      </trkpt>
      <trkpt lat="43.76846" lon="3.55907">
        <ele>649.03</ele>
        <time>2015-02-01T10:34:02Z</time>
      </trkpt>
      <trkpt lat="43.76839" lon="3.55921">
        <ele>649.03</ele>
        <time>2015-02-01T10:34:13Z</time>
      </trkpt>
      <trkpt lat="43.76829" lon="3.5594">
        <ele>649.03</ele>
        <time>2015-02-01T10:34:25Z</time>
      </trkpt>
      <trkpt lat="43.76827" lon="3.55946">
        <ele>648.55</ele>
        <time>2015-02-01T10:34:28Z</time>
      </trkpt>
      <trkpt lat="43.76828" lon="3.5597">
        <ele>649.51</ele>
        <time>2015-02-01T10:34:42Z</time>
      </trkpt>
      <trkpt lat="43.76829" lon="3.55986">
        <ele>647.59</ele>
        <time>2015-02-01T10:34:53Z</time>
      </trkpt>
      <trkpt lat="43.7683" lon="3.55989">
        <ele>647.59</ele>
        <time>2015-02-01T10:34:55Z</time>
      </trkpt>
      <trkpt lat="43.76831" lon="3.55993">
        <ele>648.55</ele>
        <time>2015-02-01T10:34:59Z</time>
      </trkpt>
      <trkpt lat="43.76834" lon="3.56007">
        <ele>649.03</ele>
        <time>2015-02-01T10:35:11Z</time>
      </trkpt>
      <trkpt lat="43.76834" lon="3.5601">
        <ele>650.95</ele>
        <time>2015-02-01T10:35:15Z</time>
      </trkpt>
      <trkpt lat="43.76834" lon="3.56016">
        <ele>649.51</ele>
        <time>2015-02-01T10:35:31Z</time>
      </trkpt>
      <trkpt lat="43.76833" lon="3.56021">
        <ele>648.55</ele>
        <time>2015-02-01T10:35:56Z</time>
      </trkpt>
      <trkpt lat="43.76835" lon="3.56023">
        <ele>648.07</ele>
        <time>2015-02-01T10:36:26Z</time>
      </trkpt>
      <trkpt lat="43.76836" lon="3.56024">
        <ele>648.55</ele>
        <time>2015-02-01T10:36:51Z</time>
      </trkpt>
      <trkpt lat="43.76835" lon="3.56024">
        <ele>648.55</ele>
        <time>2015-02-01T10:36:52Z</time>
      </trkpt>
      <trkpt lat="43.76834" lon="3.56026">
        <ele>649.99</ele>
        <time>2015-02-01T10:36:55Z</time>
      </trkpt>
      <trkpt lat="43.76833" lon="3.56031">
        <ele>650.95</ele>
        <time>2015-02-01T10:37:00Z</time>
      </trkpt>
      <trkpt lat="43.76833" lon="3.56043">
        <ele>653.83</ele>
        <time>2015-02-01T10:37:11Z</time>
      </trkpt>
      <trkpt lat="43.7683" lon="3.56056">
        <ele>653.35</ele>
        <time>2015-02-01T10:37:26Z</time>
      </trkpt>
      <trkpt lat="43.7683" lon="3.5606">
        <ele>654.8</ele>
        <time>2015-02-01T10:37:30Z</time>
      </trkpt>
      <trkpt lat="43.76832" lon="3.56073">
        <ele>655.76</ele>
        <time>2015-02-01T10:37:40Z</time>
      </trkpt>
      <trkpt lat="43.76827" lon="3.56079">
        <ele>657.2</ele>
        <time>2015-02-01T10:37:46Z</time>
      </trkpt>
      <trkpt lat="43.76822" lon="3.5608">
        <ele>660.08</ele>
        <time>2015-02-01T10:37:51Z</time>
      </trkpt>
      <trkpt lat="43.76814" lon="3.56086">
        <ele>662.49</ele>
        <time>2015-02-01T10:38:04Z</time>
      </trkpt>
      <trkpt lat="43.7681" lon="3.56088">
        <ele>661.52</ele>
        <time>2015-02-01T10:38:13Z</time>
      </trkpt>
      <trkpt lat="43.76807" lon="3.5609">
        <ele>664.89</ele>
        <time>2015-02-01T10:38:17Z</time>
      </trkpt>
      <trkpt lat="43.76806" lon="3.56091">
        <ele>664.41</ele>
        <time>2015-02-01T10:38:18Z</time>
      </trkpt>
      <trkpt lat="43.76799" lon="3.561">
        <ele>667.77</ele>
        <time>2015-02-01T10:38:26Z</time>
      </trkpt>
      <trkpt lat="43.76794" lon="3.56103">
        <ele>668.25</ele>
        <time>2015-02-01T10:38:33Z</time>
      </trkpt>
      <trkpt lat="43.76792" lon="3.56105">
        <ele>671.62</ele>
        <time>2015-02-01T10:38:35Z</time>
      </trkpt>
      <trkpt lat="43.76792" lon="3.56106">
        <ele>670.18</ele>
        <time>2015-02-01T10:38:36Z</time>
      </trkpt>
      <trkpt lat="43.76785" lon="3.56114">
        <ele>671.62</ele>
        <time>2015-02-01T10:38:49Z</time>
      </trkpt>
      <trkpt lat="43.7678" lon="3.56122">
        <ele>673.54</ele>
        <time>2015-02-01T10:39:01Z</time>
      </trkpt>
      <trkpt lat="43.76777" lon="3.5613">
        <ele>675.94</ele>
        <time>2015-02-01T10:39:12Z</time>
      </trkpt>
      <trkpt lat="43.76773" lon="3.56139">
        <ele>679.79</ele>
        <time>2015-02-01T10:39:23Z</time>
      </trkpt>
      <trkpt lat="43.76772" lon="3.56142">
        <ele>678.35</ele>
        <time>2015-02-01T10:39:26Z</time>
      </trkpt>
      <trkpt lat="43.76772" lon="3.56145">
        <ele>679.31</ele>
        <time>2015-02-01T10:39:29Z</time>
      </trkpt>
      <trkpt lat="43.76774" lon="3.56155">
        <ele>682.67</ele>
        <time>2015-02-01T10:39:40Z</time>
      </trkpt>
      <trkpt lat="43.76774" lon="3.56157">
        <ele>682.67</ele>
        <time>2015-02-01T10:39:41Z</time>
      </trkpt>
      <trkpt lat="43.76773" lon="3.56166">
        <ele>684.6</ele>
        <time>2015-02-01T10:39:54Z</time>
      </trkpt>
      <trkpt lat="43.76776" lon="3.5617">
        <ele>686.52</ele>
        <time>2015-02-01T10:40:07Z</time>
      </trkpt>
      <trkpt lat="43.76776" lon="3.56172">
        <ele>684.6</ele>
        <time>2015-02-01T10:40:11Z</time>
      </trkpt>
      <trkpt lat="43.76776" lon="3.56174">
        <ele>685.56</ele>
        <time>2015-02-01T10:40:13Z</time>
      </trkpt>
      <trkpt lat="43.76776" lon="3.56181">
        <ele>687</ele>
        <time>2015-02-01T10:40:22Z</time>
      </trkpt>
      <trkpt lat="43.76774" lon="3.5619">
        <ele>691.81</ele>
        <time>2015-02-01T10:40:33Z</time>
      </trkpt>
      <trkpt lat="43.76773" lon="3.56197">
        <ele>693.25</ele>
        <time>2015-02-01T10:40:43Z</time>
      </trkpt>
      <trkpt lat="43.7677" lon="3.56208">
        <ele>695.17</ele>
        <time>2015-02-01T10:40:58Z</time>
      </trkpt>
      <trkpt lat="43.7677" lon="3.56209">
        <ele>696.13</ele>
        <time>2015-02-01T10:41:02Z</time>
      </trkpt>
      <trkpt lat="43.76768" lon="3.56214">
        <ele>700.46</ele>
        <time>2015-02-01T10:41:17Z</time>
      </trkpt>
      <trkpt lat="43.76768" lon="3.56219">
        <ele>698.53</ele>
        <time>2015-02-01T10:41:23Z</time>
      </trkpt>
      <trkpt lat="43.76768" lon="3.56221">
        <ele>699.5</ele>
        <time>2015-02-01T10:41:25Z</time>
      </trkpt>
      <trkpt lat="43.76768" lon="3.56222">
        <ele>702.86</ele>
        <time>2015-02-01T10:41:27Z</time>
      </trkpt>
      <trkpt lat="43.76768" lon="3.56223">
        <ele>700.94</ele>
        <time>2015-02-01T10:41:28Z</time>
      </trkpt>
      <trkpt lat="43.76768" lon="3.56227">
        <ele>702.86</ele>
        <time>2015-02-01T10:41:32Z</time>
      </trkpt>
      <trkpt lat="43.76769" lon="3.56234">
        <ele>703.82</ele>
        <time>2015-02-01T10:41:40Z</time>
      </trkpt>
      <trkpt lat="43.7677" lon="3.56236">
        <ele>702.38</ele>
        <time>2015-02-01T10:41:42Z</time>
      </trkpt>
      <trkpt lat="43.76768" lon="3.56241">
        <ele>705.75</ele>
        <time>2015-02-01T10:41:52Z</time>
      </trkpt>
      <trkpt lat="43.76769" lon="3.56246">
        <ele>706.71</ele>
        <time>2015-02-01T10:41:59Z</time>
      </trkpt>
      <trkpt lat="43.76774" lon="3.56253">
        <ele>708.63</ele>
        <time>2015-02-01T10:42:12Z</time>
      </trkpt>
      <trkpt lat="43.76774" lon="3.56253">
        <ele>707.67</ele>
        <time>2015-02-01T10:42:16Z</time>
      </trkpt>
      <trkpt lat="43.76775" lon="3.56253">
        <ele>711.03</ele>
        <time>2015-02-01T10:42:27Z</time>
      </trkpt>
      <trkpt lat="43.76775" lon="3.56252">
        <ele>710.07</ele>
        <time>2015-02-01T10:42:28Z</time>
      </trkpt>
      <trkpt lat="43.76775" lon="3.56252">
        <ele>707.19</ele>
        <time>2015-02-01T10:42:30Z</time>
      </trkpt>
      <trkpt lat="43.76776" lon="3.56256">
        <ele>710.55</ele>
        <time>2015-02-01T10:42:40Z</time>
      </trkpt>
      <trkpt lat="43.76777" lon="3.56263">
        <ele>711.03</ele>
        <time>2015-02-01T10:42:53Z</time>
      </trkpt>
      <trkpt lat="43.7678" lon="3.56267">
        <ele>713.44</ele>
        <time>2015-02-01T10:43:10Z</time>
      </trkpt>
      <trkpt lat="43.76783" lon="3.56275">
        <ele>717.28</ele>
        <time>2015-02-01T10:43:18Z</time>
      </trkpt>
      <trkpt lat="43.76788" lon="3.56282">
        <ele>716.32</ele>
        <time>2015-02-01T10:43:32Z</time>
      </trkpt>
      <trkpt lat="43.76793" lon="3.56279">
        <ele>718.72</ele>
        <time>2015-02-01T10:43:41Z</time>
      </trkpt>
      <trkpt lat="43.768" lon="3.56279">
        <ele>718.72</ele>
        <time>2015-02-01T10:43:54Z</time>
      </trkpt>
      <trkpt lat="43.76805" lon="3.56278">
        <ele>717.28</ele>
        <time>2015-02-01T10:44:09Z</time>
      </trkpt>
      <trkpt lat="43.76807" lon="3.56277">
        <ele>719.2</ele>
        <time>2015-02-01T10:44:25Z</time>
      </trkpt>
      <trkpt lat="43.76807" lon="3.56277">
        <ele>718.72</ele>
        <time>2015-02-01T10:44:26Z</time>
      </trkpt>
      <trkpt lat="43.76807" lon="3.56277">
        <ele>717.28</ele>
        <time>2015-02-01T10:44:28Z</time>
      </trkpt>
      <trkpt lat="43.76809" lon="3.56279">
        <ele>718.72</ele>
        <time>2015-02-01T10:44:41Z</time>
      </trkpt>
      <trkpt lat="43.76809" lon="3.56279">
        <ele>721.61</ele>
        <time>2015-02-01T10:44:43Z</time>
      </trkpt>
      <trkpt lat="43.76809" lon="3.56279">
        <ele>716.8</ele>
        <time>2015-02-01T10:44:44Z</time>
      </trkpt>
      <trkpt lat="43.76809" lon="3.56279">
        <ele>721.61</ele>
        <time>2015-02-01T10:44:48Z</time>
      </trkpt>
      <trkpt lat="43.7681" lon="3.5628">
        <ele>722.57</ele>
        <time>2015-02-01T10:44:59Z</time>
      </trkpt>
      <trkpt lat="43.76811" lon="3.5628">
        <ele>719.2</ele>
        <time>2015-02-01T10:45:04Z</time>
      </trkpt>
      <trkpt lat="43.76811" lon="3.5628">
        <ele>723.53</ele>
        <time>2015-02-01T10:45:06Z</time>
      </trkpt>
      <trkpt lat="43.76811" lon="3.5628">
        <ele>720.65</ele>
        <time>2015-02-01T10:45:07Z</time>
      </trkpt>
      <trkpt lat="43.76811" lon="3.5628">
        <ele>721.13</ele>
        <time>2015-02-01T10:45:26Z</time>
      </trkpt>
      <trkpt lat="43.76812" lon="3.56279">
        <ele>716.32</ele>
        <time>2015-02-01T10:45:29Z</time>
      </trkpt>
      <trkpt lat="43.76811" lon="3.56278">
        <ele>716.8</ele>
        <time>2015-02-01T10:45:33Z</time>
      </trkpt>
      <trkpt lat="43.76811" lon="3.56278">
        <ele>720.65</ele>
        <time>2015-02-01T10:45:42Z</time>
      </trkpt>
      <trkpt lat="43.76811" lon="3.56278">
        <ele>719.68</ele>
        <time>2015-02-01T10:45:43Z</time>
      </trkpt>
      <trkpt lat="43.76811" lon="3.56278">
        <ele>714.88</ele>
        <time>2015-02-01T10:45:44Z</time>
      </trkpt>
      <trkpt lat="43.76811" lon="3.56278">
        <ele>723.05</ele>
        <time>2015-02-01T10:45:45Z</time>
      </trkpt>
      <trkpt lat="43.7681" lon="3.56278">
        <ele>718.24</ele>
        <time>2015-02-01T10:45:46Z</time>
      </trkpt>
      <trkpt lat="43.76807" lon="3.56277">
        <ele>715.84</ele>
        <time>2015-02-01T10:46:02Z</time>
      </trkpt>
      <trkpt lat="43.76806" lon="3.56277">
        <ele>719.2</ele>
        <time>2015-02-01T10:46:16Z</time>
      </trkpt>
      <trkpt lat="43.76805" lon="3.56276">
        <ele>720.16</ele>
        <time>2015-02-01T10:46:29Z</time>
      </trkpt>
      <trkpt lat="43.76804" lon="3.56275">
        <ele>719.68</ele>
        <time>2015-02-01T10:46:45Z</time>
      </trkpt>
      <trkpt lat="43.76805" lon="3.56274">
        <ele>721.61</ele>
        <time>2015-02-01T10:46:57Z</time>
      </trkpt>
      <trkpt lat="43.76804" lon="3.56274">
        <ele>719.68</ele>
        <time>2015-02-01T10:47:17Z</time>
      </trkpt>
      <trkpt lat="43.76804" lon="3.56275">
        <ele>719.2</ele>
        <time>2015-02-01T10:47:41Z</time>
      </trkpt>
      <trkpt lat="43.76804" lon="3.56275">
        <ele>717.76</ele>
        <time>2015-02-01T10:47:43Z</time>
      </trkpt>
      <trkpt lat="43.76804" lon="3.56276">
        <ele>718.24</ele>
        <time>2015-02-01T10:48:11Z</time>
      </trkpt>
      <trkpt lat="43.76803" lon="3.56278">
        <ele>719.2</ele>
        <time>2015-02-01T10:48:23Z</time>
      </trkpt>
      <trkpt lat="43.76803" lon="3.56277">
        <ele>716.32</ele>
        <time>2015-02-01T10:48:37Z</time>
      </trkpt>
      <trkpt lat="43.76801" lon="3.56276">
        <ele>717.76</ele>
        <time>2015-02-01T10:48:47Z</time>
      </trkpt>
      <trkpt lat="43.76794" lon="3.5628">
        <ele>714.88</ele>
        <time>2015-02-01T10:49:01Z</time>
      </trkpt>
      <trkpt lat="43.76787" lon="3.56275">
        <ele>713.92</ele>
        <time>2015-02-01T10:49:15Z</time>
      </trkpt>
      <trkpt lat="43.76785" lon="3.56272">
        <ele>712.47</ele>
        <time>2015-02-01T10:49:18Z</time>
      </trkpt>
      <trkpt lat="43.76781" lon="3.56265">
        <ele>711.03</ele>
        <time>2015-02-01T10:49:26Z</time>
      </trkpt>
      <trkpt lat="43.76778" lon="3.56255">
        <ele>708.63</ele>
        <time>2015-02-01T10:49:37Z</time>
      </trkpt>
      <trkpt lat="43.76777" lon="3.56253">
        <ele>708.15</ele>
        <time>2015-02-01T10:49:38Z</time>
      </trkpt>
      <trkpt lat="43.76772" lon="3.56249">
        <ele>704.78</ele>
        <time>2015-02-01T10:49:43Z</time>
      </trkpt>
      <trkpt lat="43.76768" lon="3.56246">
        <ele>704.3</ele>
        <time>2015-02-01T10:49:48Z</time>
      </trkpt>
      <trkpt lat="43.7677" lon="3.56237">
        <ele>702.38</ele>
        <time>2015-02-01T10:49:56Z</time>
      </trkpt>
      <trkpt lat="43.7677" lon="3.56229">
        <ele>699.5</ele>
        <time>2015-02-01T10:50:04Z</time>
      </trkpt>
      <trkpt lat="43.76768" lon="3.56223">
        <ele>696.13</ele>
        <time>2015-02-01T10:50:10Z</time>
      </trkpt>
      <trkpt lat="43.76771" lon="3.56213">
        <ele>694.21</ele>
        <time>2015-02-01T10:50:25Z</time>
      </trkpt>
      <trkpt lat="43.76772" lon="3.56206">
        <ele>691.81</ele>
        <time>2015-02-01T10:50:31Z</time>
      </trkpt>
      <trkpt lat="43.76775" lon="3.56199">
        <ele>689.4</ele>
        <time>2015-02-01T10:50:39Z</time>
      </trkpt>
      <trkpt lat="43.76778" lon="3.56191">
        <ele>687.48</ele>
        <time>2015-02-01T10:50:47Z</time>
      </trkpt>
      <trkpt lat="43.7678" lon="3.56186">
        <ele>685.08</ele>
        <time>2015-02-01T10:50:51Z</time>
      </trkpt>
      <trkpt lat="43.76781" lon="3.5618">
        <ele>682.67</ele>
        <time>2015-02-01T10:50:54Z</time>
      </trkpt>
      <trkpt lat="43.76778" lon="3.56166">
        <ele>679.31</ele>
        <time>2015-02-01T10:51:05Z</time>
      </trkpt>
      <trkpt lat="43.76777" lon="3.5616">
        <ele>678.35</ele>
        <time>2015-02-01T10:51:13Z</time>
      </trkpt>
      <trkpt lat="43.76774" lon="3.56144">
        <ele>674.98</ele>
        <time>2015-02-01T10:51:27Z</time>
      </trkpt>
      <trkpt lat="43.76777" lon="3.56134">
        <ele>672.58</ele>
        <time>2015-02-01T10:51:37Z</time>
      </trkpt>
      <trkpt lat="43.76784" lon="3.56118">
        <ele>668.73</ele>
        <time>2015-02-01T10:51:49Z</time>
      </trkpt>
      <trkpt lat="43.76787" lon="3.56117">
        <ele>666.81</ele>
        <time>2015-02-01T10:51:52Z</time>
      </trkpt>
      <trkpt lat="43.76791" lon="3.56114">
        <ele>667.77</ele>
        <time>2015-02-01T10:51:57Z</time>
      </trkpt>
      <trkpt lat="43.76795" lon="3.56109">
        <ele>663.45</ele>
        <time>2015-02-01T10:52:03Z</time>
      </trkpt>
      <trkpt lat="43.76796" lon="3.56108">
        <ele>662.01</ele>
        <time>2015-02-01T10:52:05Z</time>
      </trkpt>
      <trkpt lat="43.76799" lon="3.56108">
        <ele>663.45</ele>
        <time>2015-02-01T10:52:08Z</time>
      </trkpt>
      <trkpt lat="43.76807" lon="3.561">
        <ele>660.08</ele>
        <time>2015-02-01T10:52:17Z</time>
      </trkpt>
      <trkpt lat="43.76811" lon="3.56097">
        <ele>657.2</ele>
        <time>2015-02-01T10:52:21Z</time>
      </trkpt>
      <trkpt lat="43.76813" lon="3.56095">
        <ele>660.08</ele>
        <time>2015-02-01T10:52:24Z</time>
      </trkpt>
      <trkpt lat="43.76816" lon="3.56096">
        <ele>655.28</ele>
        <time>2015-02-01T10:52:27Z</time>
      </trkpt>
      <trkpt lat="43.76819" lon="3.56095">
        <ele>653.35</ele>
        <time>2015-02-01T10:52:30Z</time>
      </trkpt>
      <trkpt lat="43.76829" lon="3.56088">
        <ele>652.39</ele>
        <time>2015-02-01T10:52:46Z</time>
      </trkpt>
      <trkpt lat="43.76829" lon="3.56087">
        <ele>655.28</ele>
        <time>2015-02-01T10:53:13Z</time>
      </trkpt>
      <trkpt lat="43.76828" lon="3.56086">
        <ele>654.31</ele>
        <time>2015-02-01T10:53:22Z</time>
      </trkpt>
      <trkpt lat="43.76829" lon="3.56086">
        <ele>653.83</ele>
        <time>2015-02-01T10:53:26Z</time>
      </trkpt>
      <trkpt lat="43.7683" lon="3.56086">
        <ele>656.24</ele>
        <time>2015-02-01T10:53:30Z</time>
      </trkpt>
      <trkpt lat="43.76831" lon="3.56085">
        <ele>653.83</ele>
        <time>2015-02-01T10:53:40Z</time>
      </trkpt>
      <trkpt lat="43.76833" lon="3.56087">
        <ele>654.8</ele>
        <time>2015-02-01T10:54:13Z</time>
      </trkpt>
      <trkpt lat="43.76834" lon="3.56081">
        <ele>653.35</ele>
        <time>2015-02-01T10:54:37Z</time>
      </trkpt>
      <trkpt lat="43.76834" lon="3.56078">
        <ele>652.87</ele>
        <time>2015-02-01T10:54:40Z</time>
      </trkpt>
      <trkpt lat="43.76837" lon="3.56065">
        <ele>649.99</ele>
        <time>2015-02-01T10:54:55Z</time>
      </trkpt>
      <trkpt lat="43.76837" lon="3.56053">
        <ele>647.59</ele>
        <time>2015-02-01T10:55:04Z</time>
      </trkpt>
      <trkpt lat="43.76839" lon="3.56042">
        <ele>644.7</ele>
        <time>2015-02-01T10:55:11Z</time>
      </trkpt>
      <trkpt lat="43.76839" lon="3.56029">
        <ele>643.74</ele>
        <time>2015-02-01T10:55:21Z</time>
      </trkpt>
      <trkpt lat="43.76839" lon="3.56025">
        <ele>642.78</ele>
        <time>2015-02-01T10:55:23Z</time>
      </trkpt>
      <trkpt lat="43.76839" lon="3.56023">
        <ele>646.14</ele>
        <time>2015-02-01T10:55:25Z</time>
      </trkpt>
      <trkpt lat="43.7684" lon="3.56022">
        <ele>643.74</ele>
        <time>2015-02-01T10:55:28Z</time>
      </trkpt>
      <trkpt lat="43.7684" lon="3.56019">
        <ele>645.18</ele>
        <time>2015-02-01T10:55:41Z</time>
      </trkpt>
      <trkpt lat="43.76839" lon="3.56014">
        <ele>644.22</ele>
        <time>2015-02-01T10:55:49Z</time>
      </trkpt>
      <trkpt lat="43.76837" lon="3.55998">
        <ele>644.7</ele>
        <time>2015-02-01T10:56:00Z</time>
      </trkpt>
      <trkpt lat="43.76835" lon="3.55989">
        <ele>645.18</ele>
        <time>2015-02-01T10:56:10Z</time>
      </trkpt>
      <trkpt lat="43.76833" lon="3.55984">
        <ele>643.74</ele>
        <time>2015-02-01T10:56:15Z</time>
      </trkpt>
      <trkpt lat="43.76832" lon="3.55969">
        <ele>644.7</ele>
        <time>2015-02-01T10:56:25Z</time>
      </trkpt>
      <trkpt lat="43.76834" lon="3.55952">
        <ele>645.18</ele>
        <time>2015-02-01T10:56:38Z</time>
      </trkpt>
      <trkpt lat="43.76838" lon="3.55942">
        <ele>646.62</ele>
        <time>2015-02-01T10:56:46Z</time>
      </trkpt>
      <trkpt lat="43.76841" lon="3.55935">
        <ele>646.14</ele>
        <time>2015-02-01T10:56:50Z</time>
      </trkpt>
      <trkpt lat="43.76849" lon="3.55919">
        <ele>646.62</ele>
        <time>2015-02-01T10:57:04Z</time>
      </trkpt>
      <trkpt lat="43.76858" lon="3.55908">
        <ele>646.62</ele>
        <time>2015-02-01T10:57:15Z</time>
      </trkpt>
      <trkpt lat="43.76858" lon="3.55907">
        <ele>647.1</ele>
        <time>2015-02-01T10:57:16Z</time>
      </trkpt>
      <trkpt lat="43.76863" lon="3.55899">
        <ele>646.14</ele>
        <time>2015-02-01T10:57:21Z</time>
      </trkpt>
      <trkpt lat="43.76872" lon="3.55878">
        <ele>645.66</ele>
        <time>2015-02-01T10:57:33Z</time>
      </trkpt>
      <trkpt lat="43.76872" lon="3.55876">
        <ele>646.14</ele>
        <time>2015-02-01T10:57:34Z</time>
      </trkpt>
      <trkpt lat="43.76875" lon="3.55857">
        <ele>647.59</ele>
        <time>2015-02-01T10:57:45Z</time>
      </trkpt>
      <trkpt lat="43.76876" lon="3.55843">
        <ele>648.55</ele>
        <time>2015-02-01T10:57:54Z</time>
      </trkpt>
      <trkpt lat="43.76878" lon="3.55835">
        <ele>649.99</ele>
        <time>2015-02-01T10:58:04Z</time>
      </trkpt>
      <trkpt lat="43.76873" lon="3.55823">
        <ele>649.03</ele>
        <time>2015-02-01T10:58:14Z</time>
      </trkpt>
      <trkpt lat="43.76868" lon="3.55814">
        <ele>650.47</ele>
        <time>2015-02-01T10:58:19Z</time>
      </trkpt>
      <trkpt lat="43.76862" lon="3.55808">
        <ele>648.55</ele>
        <time>2015-02-01T10:58:24Z</time>
      </trkpt>
      <trkpt lat="43.76849" lon="3.55802">
        <ele>649.03</ele>
        <time>2015-02-01T10:58:35Z</time>
      </trkpt>
      <trkpt lat="43.76844" lon="3.55797">
        <ele>646.62</ele>
        <time>2015-02-01T10:58:40Z</time>
      </trkpt>
      <trkpt lat="43.76842" lon="3.55798">
        <ele>648.07</ele>
        <time>2015-02-01T10:58:42Z</time>
      </trkpt>
      <trkpt lat="43.7684" lon="3.558">
        <ele>648.07</ele>
        <time>2015-02-01T10:58:44Z</time>
      </trkpt>
      <trkpt lat="43.76832" lon="3.55811">
        <ele>645.66</ele>
        <time>2015-02-01T10:58:53Z</time>
      </trkpt>
      <trkpt lat="43.76827" lon="3.55822">
        <ele>645.66</ele>
        <time>2015-02-01T10:59:00Z</time>
      </trkpt>
      <trkpt lat="43.76823" lon="3.55827">
        <ele>646.14</ele>
        <time>2015-02-01T10:59:04Z</time>
      </trkpt>
      <trkpt lat="43.76821" lon="3.55833">
        <ele>645.18</ele>
        <time>2015-02-01T10:59:08Z</time>
      </trkpt>
      <trkpt lat="43.76819" lon="3.55835">
        <ele>645.18</ele>
        <time>2015-02-01T10:59:10Z</time>
      </trkpt>
      <trkpt lat="43.76818" lon="3.55837">
        <ele>645.66</ele>
        <time>2015-02-01T10:59:12Z</time>
      </trkpt>
      <trkpt lat="43.76814" lon="3.5584">
        <ele>644.22</ele>
        <time>2015-02-01T10:59:16Z</time>
      </trkpt>
      <trkpt lat="43.76811" lon="3.55847">
        <ele>641.34</ele>
        <time>2015-02-01T10:59:20Z</time>
      </trkpt>
      <trkpt lat="43.76805" lon="3.55853">
        <ele>641.82</ele>
        <time>2015-02-01T10:59:27Z</time>
      </trkpt>
      <trkpt lat="43.76802" lon="3.55855">
        <ele>640.86</ele>
        <time>2015-02-01T10:59:30Z</time>
      </trkpt>
      <trkpt lat="43.76794" lon="3.55859">
        <ele>640.38</ele>
        <time>2015-02-01T10:59:37Z</time>
      </trkpt>
      <trkpt lat="43.76792" lon="3.55859">
        <ele>638.93</ele>
        <time>2015-02-01T10:59:39Z</time>
      </trkpt>
      <trkpt lat="43.76784" lon="3.55865">
        <ele>637.49</ele>
        <time>2015-02-01T10:59:47Z</time>
      </trkpt>
      <trkpt lat="43.76773" lon="3.55877">
        <ele>636.53</ele>
        <time>2015-02-01T10:59:58Z</time>
      </trkpt>
      <trkpt lat="43.76768" lon="3.55882">
        <ele>637.01</ele>
        <time>2015-02-01T11:00:03Z</time>
      </trkpt>
      <trkpt lat="43.76763" lon="3.55884">
        <ele>636.05</ele>
        <time>2015-02-01T11:00:08Z</time>
      </trkpt>
      <trkpt lat="43.76761" lon="3.55885">
        <ele>635.57</ele>
        <time>2015-02-01T11:00:10Z</time>
      </trkpt>
      <trkpt lat="43.76759" lon="3.55886">
        <ele>634.61</ele>
        <time>2015-02-01T11:00:12Z</time>
      </trkpt>
      <trkpt lat="43.76759" lon="3.55887">
        <ele>634.61</ele>
        <time>2015-02-01T11:00:13Z</time>
      </trkpt>
      <trkpt lat="43.76746" lon="3.55898">
        <ele>635.57</ele>
        <time>2015-02-01T11:00:25Z</time>
      </trkpt>
      <trkpt lat="43.76743" lon="3.559">
        <ele>633.17</ele>
        <time>2015-02-01T11:00:29Z</time>
      </trkpt>
      <trkpt lat="43.76742" lon="3.55901">
        <ele>634.61</ele>
        <time>2015-02-01T11:00:32Z</time>
      </trkpt>
      <trkpt lat="43.76735" lon="3.55909">
        <ele>634.13</ele>
        <time>2015-02-01T11:00:39Z</time>
      </trkpt>
      <trkpt lat="43.76726" lon="3.55926">
        <ele>633.65</ele>
        <time>2015-02-01T11:00:49Z</time>
      </trkpt>
      <trkpt lat="43.76723" lon="3.5593">
        <ele>632.68</ele>
        <time>2015-02-01T11:00:52Z</time>
      </trkpt>
      <trkpt lat="43.76721" lon="3.55934">
        <ele>632.68</ele>
        <time>2015-02-01T11:00:55Z</time>
      </trkpt>
      <trkpt lat="43.76714" lon="3.55946">
        <ele>632.68</ele>
        <time>2015-02-01T11:01:05Z</time>
      </trkpt>
      <trkpt lat="43.76709" lon="3.55949">
        <ele>632.68</ele>
        <time>2015-02-01T11:01:09Z</time>
      </trkpt>
      <trkpt lat="43.76692" lon="3.55947">
        <ele>630.76</ele>
        <time>2015-02-01T11:01:25Z</time>
      </trkpt>
      <trkpt lat="43.76687" lon="3.55948">
        <ele>630.28</ele>
        <time>2015-02-01T11:01:29Z</time>
      </trkpt>
      <trkpt lat="43.76673" lon="3.55949">
        <ele>630.28</ele>
        <time>2015-02-01T11:01:41Z</time>
      </trkpt>
      <trkpt lat="43.76657" lon="3.55953">
        <ele>630.28</ele>
        <time>2015-02-01T11:01:54Z</time>
      </trkpt>
      <trkpt lat="43.76655" lon="3.55951">
        <ele>630.28</ele>
        <time>2015-02-01T11:02:06Z</time>
      </trkpt>
      <trkpt lat="43.76654" lon="3.55951">
        <ele>628.84</ele>
        <time>2015-02-01T11:02:09Z</time>
      </trkpt>
      <trkpt lat="43.76653" lon="3.55952">
        <ele>629.8</ele>
        <time>2015-02-01T11:02:29Z</time>
      </trkpt>
      <trkpt lat="43.76655" lon="3.55951">
        <ele>629.8</ele>
        <time>2015-02-01T11:02:31Z</time>
      </trkpt>
      <trkpt lat="43.76663" lon="3.55945">
        <ele>627.88</ele>
        <time>2015-02-01T11:02:39Z</time>
      </trkpt>
      <trkpt lat="43.76672" lon="3.55936">
        <ele>625.47</ele>
        <time>2015-02-01T11:02:48Z</time>
      </trkpt>
      <trkpt lat="43.76681" lon="3.5593">
        <ele>622.11</ele>
        <time>2015-02-01T11:02:57Z</time>
      </trkpt>
      <trkpt lat="43.76693" lon="3.55921">
        <ele>621.15</ele>
        <time>2015-02-01T11:03:12Z</time>
      </trkpt>
      <trkpt lat="43.76698" lon="3.55913">
        <ele>620.67</ele>
        <time>2015-02-01T11:03:18Z</time>
      </trkpt>
      <trkpt lat="43.76701" lon="3.55905">
        <ele>619.71</ele>
        <time>2015-02-01T11:03:22Z</time>
      </trkpt>
      <trkpt lat="43.76702" lon="3.55901">
        <ele>618.26</ele>
        <time>2015-02-01T11:03:24Z</time>
      </trkpt>
      <trkpt lat="43.76705" lon="3.55894">
        <ele>620.67</ele>
        <time>2015-02-01T11:03:29Z</time>
      </trkpt>
      <trkpt lat="43.7671" lon="3.55889">
        <ele>618.75</ele>
        <time>2015-02-01T11:03:36Z</time>
      </trkpt>
      <trkpt lat="43.76716" lon="3.55884">
        <ele>617.3</ele>
        <time>2015-02-01T11:03:45Z</time>
      </trkpt>
      <trkpt lat="43.76717" lon="3.55883">
        <ele>617.3</ele>
        <time>2015-02-01T11:03:47Z</time>
      </trkpt>
      <trkpt lat="43.76722" lon="3.55878">
        <ele>616.34</ele>
        <time>2015-02-01T11:03:52Z</time>
      </trkpt>
      <trkpt lat="43.76728" lon="3.55872">
        <ele>616.82</ele>
        <time>2015-02-01T11:03:58Z</time>
      </trkpt>
      <trkpt lat="43.7674" lon="3.55859">
        <ele>617.78</ele>
        <time>2015-02-01T11:04:12Z</time>
      </trkpt>
      <trkpt lat="43.76744" lon="3.55852">
        <ele>615.86</ele>
        <time>2015-02-01T11:04:20Z</time>
      </trkpt>
      <trkpt lat="43.76746" lon="3.55849">
        <ele>614.9</ele>
        <time>2015-02-01T11:04:22Z</time>
      </trkpt>
      <trkpt lat="43.76756" lon="3.55826">
        <ele>614.42</ele>
        <time>2015-02-01T11:04:37Z</time>
      </trkpt>
      <trkpt lat="43.76762" lon="3.55816">
        <ele>614.42</ele>
        <time>2015-02-01T11:04:44Z</time>
      </trkpt>
      <trkpt lat="43.76769" lon="3.55799">
        <ele>612.98</ele>
        <time>2015-02-01T11:04:57Z</time>
      </trkpt>
      <trkpt lat="43.7677" lon="3.55795">
        <ele>612.98</ele>
        <time>2015-02-01T11:05:00Z</time>
      </trkpt>
      <trkpt lat="43.76772" lon="3.55774">
        <ele>612.5</ele>
        <time>2015-02-01T11:05:13Z</time>
      </trkpt>
      <trkpt lat="43.76774" lon="3.55749">
        <ele>612.98</ele>
        <time>2015-02-01T11:05:28Z</time>
      </trkpt>
      <trkpt lat="43.76775" lon="3.55726">
        <ele>611.54</ele>
        <time>2015-02-01T11:05:42Z</time>
      </trkpt>
      <trkpt lat="43.76763" lon="3.55711">
        <ele>611.54</ele>
        <time>2015-02-01T11:05:57Z</time>
      </trkpt>
      <trkpt lat="43.76761" lon="3.5571">
        <ele>610.57</ele>
        <time>2015-02-01T11:05:59Z</time>
      </trkpt>
      <trkpt lat="43.76758" lon="3.55708">
        <ele>610.57</ele>
        <time>2015-02-01T11:06:02Z</time>
      </trkpt>
      <trkpt lat="43.76745" lon="3.557">
        <ele>607.21</ele>
        <time>2015-02-01T11:06:14Z</time>
      </trkpt>
      <trkpt lat="43.76736" lon="3.55696">
        <ele>607.21</ele>
        <time>2015-02-01T11:06:22Z</time>
      </trkpt>
      <trkpt lat="43.7673" lon="3.557">
        <ele>606.25</ele>
        <time>2015-02-01T11:06:27Z</time>
      </trkpt>
      <trkpt lat="43.76723" lon="3.55695">
        <ele>605.29</ele>
        <time>2015-02-01T11:06:34Z</time>
      </trkpt>
      <trkpt lat="43.76718" lon="3.55692">
        <ele>604.81</ele>
        <time>2015-02-01T11:06:38Z</time>
      </trkpt>
      <trkpt lat="43.76713" lon="3.55691">
        <ele>603.85</ele>
        <time>2015-02-01T11:06:44Z</time>
      </trkpt>
      <trkpt lat="43.76699" lon="3.55687">
        <ele>601.92</ele>
        <time>2015-02-01T11:06:57Z</time>
      </trkpt>
      <trkpt lat="43.76694" lon="3.55683">
        <ele>600.48</ele>
        <time>2015-02-01T11:07:02Z</time>
      </trkpt>
      <trkpt lat="43.76689" lon="3.55677">
        <ele>597.6</ele>
        <time>2015-02-01T11:07:07Z</time>
      </trkpt>
      <trkpt lat="43.76682" lon="3.55658">
        <ele>599.52</ele>
        <time>2015-02-01T11:07:19Z</time>
      </trkpt>
      <trkpt lat="43.76681" lon="3.55654">
        <ele>598.08</ele>
        <time>2015-02-01T11:07:22Z</time>
      </trkpt>
      <trkpt lat="43.76677" lon="3.55639">
        <ele>597.12</ele>
        <time>2015-02-01T11:07:31Z</time>
      </trkpt>
      <trkpt lat="43.76676" lon="3.55617">
        <ele>596.64</ele>
        <time>2015-02-01T11:07:44Z</time>
      </trkpt>
      <trkpt lat="43.7668" lon="3.55599">
        <ele>595.67</ele>
        <time>2015-02-01T11:07:56Z</time>
      </trkpt>
      <trkpt lat="43.76683" lon="3.55583">
        <ele>597.6</ele>
        <time>2015-02-01T11:08:08Z</time>
      </trkpt>
      <trkpt lat="43.7669" lon="3.55564">
        <ele>596.15</ele>
        <time>2015-02-01T11:08:20Z</time>
      </trkpt>
      <trkpt lat="43.76698" lon="3.5555">
        <ele>595.67</ele>
        <time>2015-02-01T11:08:32Z</time>
      </trkpt>
      <trkpt lat="43.76701" lon="3.55532">
        <ele>596.15</ele>
        <time>2015-02-01T11:08:47Z</time>
      </trkpt>
      <trkpt lat="43.76702" lon="3.55531">
        <ele>596.64</ele>
        <time>2015-02-01T11:08:48Z</time>
      </trkpt>
      <trkpt lat="43.76703" lon="3.55527">
        <ele>595.19</ele>
        <time>2015-02-01T11:08:56Z</time>
      </trkpt>
      <trkpt lat="43.767" lon="3.55532">
        <ele>595.19</ele>
        <time>2015-02-01T11:09:13Z</time>
      </trkpt>
      <trkpt lat="43.76699" lon="3.55538">
        <ele>595.19</ele>
        <time>2015-02-01T11:09:31Z</time>
      </trkpt>
      <trkpt lat="43.76698" lon="3.55536">
        <ele>594.71</ele>
        <time>2015-02-01T11:10:04Z</time>
      </trkpt>
      <trkpt lat="43.76698" lon="3.55536">
        <ele>594.23</ele>
        <time>2015-02-01T11:10:12Z</time>
      </trkpt>
      <trkpt lat="43.76698" lon="3.5554">
        <ele>594.23</ele>
        <time>2015-02-01T11:10:15Z</time>
      </trkpt>
      <trkpt lat="43.76694" lon="3.55546">
        <ele>593.27</ele>
        <time>2015-02-01T11:10:26Z</time>
      </trkpt>
      <trkpt lat="43.76685" lon="3.55554">
        <ele>593.27</ele>
        <time>2015-02-01T11:10:36Z</time>
      </trkpt>
      <trkpt lat="43.76681" lon="3.55558">
        <ele>592.79</ele>
        <time>2015-02-01T11:10:49Z</time>
      </trkpt>
      <trkpt lat="43.7668" lon="3.5556">
        <ele>592.79</ele>
        <time>2015-02-01T11:10:53Z</time>
      </trkpt>
      <trkpt lat="43.76674" lon="3.55579">
        <ele>590.39</ele>
        <time>2015-02-01T11:11:06Z</time>
      </trkpt>
      <trkpt lat="43.76671" lon="3.55587">
        <ele>589.43</ele>
        <time>2015-02-01T11:11:13Z</time>
      </trkpt>
      <trkpt lat="43.7667" lon="3.55591">
        <ele>589.91</ele>
        <time>2015-02-01T11:11:16Z</time>
      </trkpt>
      <trkpt lat="43.76669" lon="3.55593">
        <ele>588.46</ele>
        <time>2015-02-01T11:11:18Z</time>
      </trkpt>
      <trkpt lat="43.76665" lon="3.55606">
        <ele>587.5</ele>
        <time>2015-02-01T11:11:28Z</time>
      </trkpt>
      <trkpt lat="43.76661" lon="3.55616">
        <ele>587.02</ele>
        <time>2015-02-01T11:11:35Z</time>
      </trkpt>
      <trkpt lat="43.76656" lon="3.5563">
        <ele>585.1</ele>
        <time>2015-02-01T11:11:45Z</time>
      </trkpt>
      <trkpt lat="43.76656" lon="3.55635">
        <ele>585.1</ele>
        <time>2015-02-01T11:11:47Z</time>
      </trkpt>
      <trkpt lat="43.76657" lon="3.55653">
        <ele>586.06</ele>
        <time>2015-02-01T11:11:58Z</time>
      </trkpt>
      <trkpt lat="43.76658" lon="3.55657">
        <ele>586.06</ele>
        <time>2015-02-01T11:12:00Z</time>
      </trkpt>
      <trkpt lat="43.76657" lon="3.55674">
        <ele>583.66</ele>
        <time>2015-02-01T11:12:11Z</time>
      </trkpt>
      <trkpt lat="43.76658" lon="3.5569">
        <ele>580.77</ele>
        <time>2015-02-01T11:12:21Z</time>
      </trkpt>
      <trkpt lat="43.7666" lon="3.55702">
        <ele>579.81</ele>
        <time>2015-02-01T11:12:28Z</time>
      </trkpt>
      <trkpt lat="43.76657" lon="3.5571">
        <ele>579.81</ele>
        <time>2015-02-01T11:12:41Z</time>
      </trkpt>
      <trkpt lat="43.7665" lon="3.55702">
        <ele>578.37</ele>
        <time>2015-02-01T11:12:53Z</time>
      </trkpt>
      <trkpt lat="43.76647" lon="3.55697">
        <ele>576.93</ele>
        <time>2015-02-01T11:13:00Z</time>
      </trkpt>
      <trkpt lat="43.76644" lon="3.55691">
        <ele>574.04</ele>
        <time>2015-02-01T11:13:06Z</time>
      </trkpt>
      <trkpt lat="43.7664" lon="3.55682">
        <ele>570.68</ele>
        <time>2015-02-01T11:13:15Z</time>
      </trkpt>
      <trkpt lat="43.76637" lon="3.55678">
        <ele>567.32</ele>
        <time>2015-02-01T11:13:20Z</time>
      </trkpt>
      <trkpt lat="43.76637" lon="3.55677">
        <ele>567.32</ele>
        <time>2015-02-01T11:13:21Z</time>
      </trkpt>
      <trkpt lat="43.76628" lon="3.55663">
        <ele>565.87</ele>
        <time>2015-02-01T11:13:35Z</time>
      </trkpt>
      <trkpt lat="43.76626" lon="3.55657">
        <ele>565.39</ele>
        <time>2015-02-01T11:13:40Z</time>
      </trkpt>
      <trkpt lat="43.7662" lon="3.5564">
        <ele>562.03</ele>
        <time>2015-02-01T11:13:53Z</time>
      </trkpt>
      <trkpt lat="43.76615" lon="3.55626">
        <ele>562.03</ele>
        <time>2015-02-01T11:14:03Z</time>
      </trkpt>
      <trkpt lat="43.76614" lon="3.55619">
        <ele>559.62</ele>
        <time>2015-02-01T11:14:07Z</time>
      </trkpt>
      <trkpt lat="43.76612" lon="3.55611">
        <ele>556.74</ele>
        <time>2015-02-01T11:14:12Z</time>
      </trkpt>
      <trkpt lat="43.76611" lon="3.55598">
        <ele>555.78</ele>
        <time>2015-02-01T11:14:21Z</time>
      </trkpt>
      <trkpt lat="43.76609" lon="3.55582">
        <ele>554.82</ele>
        <time>2015-02-01T11:14:31Z</time>
      </trkpt>
      <trkpt lat="43.76609" lon="3.55578">
        <ele>554.34</ele>
        <time>2015-02-01T11:14:34Z</time>
      </trkpt>
      <trkpt lat="43.76605" lon="3.55561">
        <ele>551.45</ele>
        <time>2015-02-01T11:14:47Z</time>
      </trkpt>
      <trkpt lat="43.76598" lon="3.5554">
        <ele>550.49</ele>
        <time>2015-02-01T11:15:00Z</time>
      </trkpt>
      <trkpt lat="43.76597" lon="3.5552">
        <ele>550.97</ele>
        <time>2015-02-01T11:15:12Z</time>
      </trkpt>
      <trkpt lat="43.766" lon="3.55506">
        <ele>552.41</ele>
        <time>2015-02-01T11:15:23Z</time>
      </trkpt>
      <trkpt lat="43.766" lon="3.55492">
        <ele>549.53</ele>
        <time>2015-02-01T11:15:33Z</time>
      </trkpt>
      <trkpt lat="43.766" lon="3.5549">
        <ele>549.05</ele>
        <time>2015-02-01T11:15:34Z</time>
      </trkpt>
      <trkpt lat="43.76593" lon="3.55481">
        <ele>549.05</ele>
        <time>2015-02-01T11:15:44Z</time>
      </trkpt>
      <trkpt lat="43.7659" lon="3.55479">
        <ele>547.13</ele>
        <time>2015-02-01T11:15:48Z</time>
      </trkpt>
      <trkpt lat="43.76581" lon="3.55478">
        <ele>546.17</ele>
        <time>2015-02-01T11:15:58Z</time>
      </trkpt>
      <trkpt lat="43.76573" lon="3.55482">
        <ele>542.8</ele>
        <time>2015-02-01T11:16:08Z</time>
      </trkpt>
      <trkpt lat="43.76567" lon="3.55478">
        <ele>541.84</ele>
        <time>2015-02-01T11:16:21Z</time>
      </trkpt>
      <trkpt lat="43.76565" lon="3.55475">
        <ele>542.32</ele>
        <time>2015-02-01T11:16:44Z</time>
      </trkpt>
      <trkpt lat="43.76564" lon="3.55473">
        <ele>544.72</ele>
        <time>2015-02-01T11:17:02Z</time>
      </trkpt>
      <trkpt lat="43.76564" lon="3.55473">
        <ele>541.84</ele>
        <time>2015-02-01T11:17:15Z</time>
      </trkpt>
      <trkpt lat="43.7656" lon="3.5547">
        <ele>543.28</ele>
        <time>2015-02-01T11:17:30Z</time>
      </trkpt>
      <trkpt lat="43.76552" lon="3.55466">
        <ele>539.44</ele>
        <time>2015-02-01T11:17:41Z</time>
      </trkpt>
      <trkpt lat="43.76551" lon="3.55464">
        <ele>538.48</ele>
        <time>2015-02-01T11:17:44Z</time>
      </trkpt>
      <trkpt lat="43.76544" lon="3.55461">
        <ele>536.07</ele>
        <time>2015-02-01T11:17:51Z</time>
      </trkpt>
      <trkpt lat="43.76538" lon="3.55455">
        <ele>536.07</ele>
        <time>2015-02-01T11:17:55Z</time>
      </trkpt>
      <trkpt lat="43.76534" lon="3.55452">
        <ele>535.59</ele>
        <time>2015-02-01T11:18:09Z</time>
      </trkpt>
      <trkpt lat="43.76531" lon="3.55449">
        <ele>535.11</ele>
        <time>2015-02-01T11:18:26Z</time>
      </trkpt>
      <trkpt lat="43.76529" lon="3.55445">
        <ele>534.63</ele>
        <time>2015-02-01T11:18:30Z</time>
      </trkpt>
      <trkpt lat="43.76525" lon="3.55442">
        <ele>533.67</ele>
        <time>2015-02-01T11:18:36Z</time>
      </trkpt>
      <trkpt lat="43.76519" lon="3.55441">
        <ele>533.19</ele>
        <time>2015-02-01T11:18:41Z</time>
      </trkpt>
      <trkpt lat="43.76507" lon="3.55441">
        <ele>530.79</ele>
        <time>2015-02-01T11:18:53Z</time>
      </trkpt>
      <trkpt lat="43.765" lon="3.5544">
        <ele>529.34</ele>
        <time>2015-02-01T11:18:59Z</time>
      </trkpt>
      <trkpt lat="43.76494" lon="3.55441">
        <ele>527.9</ele>
        <time>2015-02-01T11:19:06Z</time>
      </trkpt>
      <trkpt lat="43.76484" lon="3.55446">
        <ele>524.54</ele>
        <time>2015-02-01T11:19:18Z</time>
      </trkpt>
      <trkpt lat="43.76477" lon="3.5545">
        <ele>521.65</ele>
        <time>2015-02-01T11:19:25Z</time>
      </trkpt>
      <trkpt lat="43.76466" lon="3.55454">
        <ele>519.25</ele>
        <time>2015-02-01T11:19:37Z</time>
      </trkpt>
      <trkpt lat="43.76451" lon="3.5546">
        <ele>517.81</ele>
        <time>2015-02-01T11:19:50Z</time>
      </trkpt>
      <trkpt lat="43.76439" lon="3.55464">
        <ele>516.85</ele>
        <time>2015-02-01T11:20:01Z</time>
      </trkpt>
      <trkpt lat="43.76438" lon="3.55464">
        <ele>515.4</ele>
        <time>2015-02-01T11:20:03Z</time>
      </trkpt>
      <trkpt lat="43.76436" lon="3.55465">
        <ele>515.4</ele>
        <time>2015-02-01T11:20:05Z</time>
      </trkpt>
      <trkpt lat="43.76431" lon="3.55464">
        <ele>514.44</ele>
        <time>2015-02-01T11:20:11Z</time>
      </trkpt>
      <trkpt lat="43.7642" lon="3.55466">
        <ele>514.92</ele>
        <time>2015-02-01T11:20:23Z</time>
      </trkpt>
      <trkpt lat="43.76418" lon="3.55467">
        <ele>512.04</ele>
        <time>2015-02-01T11:20:45Z</time>
      </trkpt>
      <trkpt lat="43.7642" lon="3.55471">
        <ele>513.48</ele>
        <time>2015-02-01T11:21:26Z</time>
      </trkpt>
      <trkpt lat="43.76418" lon="3.5547">
        <ele>512.04</ele>
        <time>2015-02-01T11:22:04Z</time>
      </trkpt>
      <trkpt lat="43.7642" lon="3.55467">
        <ele>513</ele>
        <time>2015-02-01T11:22:23Z</time>
      </trkpt>
      <trkpt lat="43.76422" lon="3.55456">
        <ele>511.56</ele>
        <time>2015-02-01T11:22:38Z</time>
      </trkpt>
      <trkpt lat="43.76422" lon="3.55454">
        <ele>511.08</ele>
        <time>2015-02-01T11:22:39Z</time>
      </trkpt>
      <trkpt lat="43.7642" lon="3.55439">
        <ele>510.6</ele>
        <time>2015-02-01T11:22:54Z</time>
      </trkpt>
      <trkpt lat="43.76411" lon="3.55425">
        <ele>509.64</ele>
        <time>2015-02-01T11:23:06Z</time>
      </trkpt>
      <trkpt lat="43.76399" lon="3.55415">
        <ele>507.71</ele>
        <time>2015-02-01T11:23:21Z</time>
      </trkpt>
      <trkpt lat="43.76386" lon="3.55407">
        <ele>507.71</ele>
        <time>2015-02-01T11:23:33Z</time>
      </trkpt>
      <trkpt lat="43.76379" lon="3.55396">
        <ele>504.35</ele>
        <time>2015-02-01T11:23:41Z</time>
      </trkpt>
      <trkpt lat="43.76378" lon="3.55395">
        <ele>503.87</ele>
        <time>2015-02-01T11:23:42Z</time>
      </trkpt>
      <trkpt lat="43.76365" lon="3.5539">
        <ele>501.46</ele>
        <time>2015-02-01T11:23:54Z</time>
      </trkpt>
      <trkpt lat="43.7635" lon="3.55387">
        <ele>500.5</ele>
        <time>2015-02-01T11:24:05Z</time>
      </trkpt>
      <trkpt lat="43.76341" lon="3.55383">
        <ele>498.1</ele>
        <time>2015-02-01T11:24:13Z</time>
      </trkpt>
      <trkpt lat="43.7634" lon="3.55386">
        <ele>497.62</ele>
        <time>2015-02-01T11:24:16Z</time>
      </trkpt>
      <trkpt lat="43.76346" lon="3.55392">
        <ele>496.18</ele>
        <time>2015-02-01T11:24:22Z</time>
      </trkpt>
      <trkpt lat="43.76358" lon="3.55404">
        <ele>493.29</ele>
        <time>2015-02-01T11:24:36Z</time>
      </trkpt>
      <trkpt lat="43.76361" lon="3.55411">
        <ele>493.29</ele>
        <time>2015-02-01T11:24:43Z</time>
      </trkpt>
      <trkpt lat="43.76366" lon="3.55417">
        <ele>492.81</ele>
        <time>2015-02-01T11:24:49Z</time>
      </trkpt>
      <trkpt lat="43.76378" lon="3.55436">
        <ele>490.89</ele>
        <time>2015-02-01T11:25:03Z</time>
      </trkpt>
      <trkpt lat="43.76389" lon="3.5545">
        <ele>488.97</ele>
        <time>2015-02-01T11:25:15Z</time>
      </trkpt>
      <trkpt lat="43.76388" lon="3.55451">
        <ele>487.53</ele>
        <time>2015-02-01T11:25:19Z</time>
      </trkpt>
      <trkpt lat="43.76384" lon="3.55446">
        <ele>487.05</ele>
        <time>2015-02-01T11:25:27Z</time>
      </trkpt>
      <trkpt lat="43.76372" lon="3.55436">
        <ele>484.16</ele>
        <time>2015-02-01T11:25:39Z</time>
      </trkpt>
      <trkpt lat="43.76361" lon="3.55438">
        <ele>482.24</ele>
        <time>2015-02-01T11:25:49Z</time>
      </trkpt>
      <trkpt lat="43.7635" lon="3.55434">
        <ele>480.32</ele>
        <time>2015-02-01T11:26:01Z</time>
      </trkpt>
      <trkpt lat="43.76338" lon="3.5543">
        <ele>477.91</ele>
        <time>2015-02-01T11:26:14Z</time>
      </trkpt>
      <trkpt lat="43.7633" lon="3.55432">
        <ele>476.47</ele>
        <time>2015-02-01T11:26:20Z</time>
      </trkpt>
      <trkpt lat="43.76323" lon="3.55429">
        <ele>475.03</ele>
        <time>2015-02-01T11:26:25Z</time>
      </trkpt>
      <trkpt lat="43.76321" lon="3.55425">
        <ele>473.59</ele>
        <time>2015-02-01T11:26:29Z</time>
      </trkpt>
      <trkpt lat="43.76314" lon="3.55407">
        <ele>471.18</ele>
        <time>2015-02-01T11:26:42Z</time>
      </trkpt>
      <trkpt lat="43.76313" lon="3.55405">
        <ele>470.22</ele>
        <time>2015-02-01T11:26:44Z</time>
      </trkpt>
      <trkpt lat="43.76298" lon="3.55399">
        <ele>468.78</ele>
        <time>2015-02-01T11:26:56Z</time>
      </trkpt>
      <trkpt lat="43.76287" lon="3.554">
        <ele>467.34</ele>
        <time>2015-02-01T11:27:06Z</time>
      </trkpt>
      <trkpt lat="43.76284" lon="3.55404">
        <ele>466.38</ele>
        <time>2015-02-01T11:27:11Z</time>
      </trkpt>
      <trkpt lat="43.76269" lon="3.55417">
        <ele>463.97</ele>
        <time>2015-02-01T11:27:24Z</time>
      </trkpt>
      <trkpt lat="43.76258" lon="3.55433">
        <ele>460.61</ele>
        <time>2015-02-01T11:27:36Z</time>
      </trkpt>
      <trkpt lat="43.76255" lon="3.55437">
        <ele>461.09</ele>
        <time>2015-02-01T11:27:40Z</time>
      </trkpt>
      <trkpt lat="43.76253" lon="3.55437">
        <ele>459.17</ele>
        <time>2015-02-01T11:27:44Z</time>
      </trkpt>
      <trkpt lat="43.76252" lon="3.55437">
        <ele>459.17</ele>
        <time>2015-02-01T11:27:45Z</time>
      </trkpt>
      <trkpt lat="43.7624" lon="3.55437">
        <ele>456.76</ele>
        <time>2015-02-01T11:27:57Z</time>
      </trkpt>
      <trkpt lat="43.76239" lon="3.55438">
        <ele>456.76</ele>
        <time>2015-02-01T11:27:58Z</time>
      </trkpt>
      <trkpt lat="43.7623" lon="3.55441">
        <ele>455.32</ele>
        <time>2015-02-01T11:28:04Z</time>
      </trkpt>
      <trkpt lat="43.76226" lon="3.55444">
        <ele>454.36</ele>
        <time>2015-02-01T11:28:09Z</time>
      </trkpt>
      <trkpt lat="43.76215" lon="3.55455">
        <ele>451</ele>
        <time>2015-02-01T11:28:23Z</time>
      </trkpt>
      <trkpt lat="43.76203" lon="3.55463">
        <ele>448.59</ele>
        <time>2015-02-01T11:28:36Z</time>
      </trkpt>
      <trkpt lat="43.76195" lon="3.55471">
        <ele>446.67</ele>
        <time>2015-02-01T11:28:46Z</time>
      </trkpt>
      <trkpt lat="43.76186" lon="3.55486">
        <ele>444.27</ele>
        <time>2015-02-01T11:29:01Z</time>
      </trkpt>
      <trkpt lat="43.76178" lon="3.55499">
        <ele>442.34</ele>
        <time>2015-02-01T11:29:13Z</time>
      </trkpt>
      <trkpt lat="43.76167" lon="3.55506">
        <ele>438.98</ele>
        <time>2015-02-01T11:29:26Z</time>
      </trkpt>
      <trkpt lat="43.76165" lon="3.55506">
        <ele>438.5</ele>
        <time>2015-02-01T11:29:35Z</time>
      </trkpt>
      <trkpt lat="43.76162" lon="3.55507">
        <ele>437.54</ele>
        <time>2015-02-01T11:29:40Z</time>
      </trkpt>
      <trkpt lat="43.76153" lon="3.55518">
        <ele>435.13</ele>
        <time>2015-02-01T11:29:52Z</time>
      </trkpt>
      <trkpt lat="43.7615" lon="3.55525">
        <ele>433.69</ele>
        <time>2015-02-01T11:29:58Z</time>
      </trkpt>
      <trkpt lat="43.76144" lon="3.55543">
        <ele>430.81</ele>
        <time>2015-02-01T11:30:10Z</time>
      </trkpt>
      <trkpt lat="43.76137" lon="3.55545">
        <ele>429.85</ele>
        <time>2015-02-01T11:30:19Z</time>
      </trkpt>
      <trkpt lat="43.76135" lon="3.55546">
        <ele>428.89</ele>
        <time>2015-02-01T11:30:21Z</time>
      </trkpt>
      <trkpt lat="43.7612" lon="3.55547">
        <ele>426</ele>
        <time>2015-02-01T11:30:34Z</time>
      </trkpt>
      <trkpt lat="43.76119" lon="3.55548">
        <ele>425.52</ele>
        <time>2015-02-01T11:30:35Z</time>
      </trkpt>
      <trkpt lat="43.76104" lon="3.5556">
        <ele>423.12</ele>
        <time>2015-02-01T11:30:49Z</time>
      </trkpt>
      <trkpt lat="43.76099" lon="3.55565">
        <ele>421.68</ele>
        <time>2015-02-01T11:30:55Z</time>
      </trkpt>
      <trkpt lat="43.76086" lon="3.55577">
        <ele>418.79</ele>
        <time>2015-02-01T11:31:07Z</time>
      </trkpt>
      <trkpt lat="43.76078" lon="3.55582">
        <ele>417.35</ele>
        <time>2015-02-01T11:31:15Z</time>
      </trkpt>
      <trkpt lat="43.76076" lon="3.55583">
        <ele>416.87</ele>
        <time>2015-02-01T11:31:17Z</time>
      </trkpt>
      <trkpt lat="43.76066" lon="3.55589">
        <ele>413.5</ele>
        <time>2015-02-01T11:31:26Z</time>
      </trkpt>
      <trkpt lat="43.76054" lon="3.556">
        <ele>410.62</ele>
        <time>2015-02-01T11:31:37Z</time>
      </trkpt>
      <trkpt lat="43.76046" lon="3.55619">
        <ele>409.66</ele>
        <time>2015-02-01T11:31:49Z</time>
      </trkpt>
      <trkpt lat="43.76042" lon="3.55622">
        <ele>408.22</ele>
        <time>2015-02-01T11:31:53Z</time>
      </trkpt>
      <trkpt lat="43.76032" lon="3.5564">
        <ele>408.22</ele>
        <time>2015-02-01T11:32:08Z</time>
      </trkpt>
      <trkpt lat="43.7603" lon="3.55657">
        <ele>405.81</ele>
        <time>2015-02-01T11:32:19Z</time>
      </trkpt>
      <trkpt lat="43.76026" lon="3.55674">
        <ele>402.45</ele>
        <time>2015-02-01T11:32:29Z</time>
      </trkpt>
      <trkpt lat="43.76027" lon="3.55697">
        <ele>400.05</ele>
        <time>2015-02-01T11:32:41Z</time>
      </trkpt>
      <trkpt lat="43.76034" lon="3.55713">
        <ele>398.6</ele>
        <time>2015-02-01T11:32:50Z</time>
      </trkpt>
      <trkpt lat="43.76036" lon="3.55733">
        <ele>397.64</ele>
        <time>2015-02-01T11:33:02Z</time>
      </trkpt>
      <trkpt lat="43.76041" lon="3.55749">
        <ele>395.72</ele>
        <time>2015-02-01T11:33:13Z</time>
      </trkpt>
      <trkpt lat="43.7604" lon="3.55767">
        <ele>392.84</ele>
        <time>2015-02-01T11:33:24Z</time>
      </trkpt>
      <trkpt lat="43.76039" lon="3.55784">
        <ele>390.43</ele>
        <time>2015-02-01T11:33:35Z</time>
      </trkpt>
      <trkpt lat="43.76033" lon="3.55802">
        <ele>388.03</ele>
        <time>2015-02-01T11:33:45Z</time>
      </trkpt>
      <trkpt lat="43.7603" lon="3.55814">
        <ele>385.63</ele>
        <time>2015-02-01T11:33:55Z</time>
      </trkpt>
      <trkpt lat="43.76025" lon="3.55827">
        <ele>384.66</ele>
        <time>2015-02-01T11:34:02Z</time>
      </trkpt>
      <trkpt lat="43.76024" lon="3.55831">
        <ele>383.22</ele>
        <time>2015-02-01T11:34:05Z</time>
      </trkpt>
      <trkpt lat="43.76024" lon="3.55837">
        <ele>382.26</ele>
        <time>2015-02-01T11:34:09Z</time>
      </trkpt>
      <trkpt lat="43.76024" lon="3.55846">
        <ele>380.34</ele>
        <time>2015-02-01T11:34:15Z</time>
      </trkpt>
      <trkpt lat="43.76022" lon="3.5585">
        <ele>379.38</ele>
        <time>2015-02-01T11:34:17Z</time>
      </trkpt>
      <trkpt lat="43.7602" lon="3.55859">
        <ele>376.97</ele>
        <time>2015-02-01T11:34:23Z</time>
      </trkpt>
      <trkpt lat="43.76015" lon="3.55873">
        <ele>376.49</ele>
        <time>2015-02-01T11:34:32Z</time>
      </trkpt>
      <trkpt lat="43.76013" lon="3.55879">
        <ele>375.05</ele>
        <time>2015-02-01T11:34:35Z</time>
      </trkpt>
      <trkpt lat="43.76012" lon="3.55884">
        <ele>375.53</ele>
        <time>2015-02-01T11:34:39Z</time>
      </trkpt>
      <trkpt lat="43.7601" lon="3.55897">
        <ele>372.17</ele>
        <time>2015-02-01T11:34:48Z</time>
      </trkpt>
      <trkpt lat="43.76003" lon="3.55915">
        <ele>370.24</ele>
        <time>2015-02-01T11:35:00Z</time>
      </trkpt>
      <trkpt lat="43.76002" lon="3.55925">
        <ele>369.28</ele>
        <time>2015-02-01T11:35:06Z</time>
      </trkpt>
      <trkpt lat="43.76" lon="3.55935">
        <ele>366.4</ele>
        <time>2015-02-01T11:35:11Z</time>
      </trkpt>
      <trkpt lat="43.75998" lon="3.55947">
        <ele>364.96</ele>
        <time>2015-02-01T11:35:19Z</time>
      </trkpt>
      <trkpt lat="43.75993" lon="3.55957">
        <ele>364</ele>
        <time>2015-02-01T11:35:25Z</time>
      </trkpt>
      <trkpt lat="43.7599" lon="3.55976">
        <ele>361.59</ele>
        <time>2015-02-01T11:35:38Z</time>
      </trkpt>
      <trkpt lat="43.7599" lon="3.55978">
        <ele>361.11</ele>
        <time>2015-02-01T11:35:40Z</time>
      </trkpt>
      <trkpt lat="43.75985" lon="3.55997">
        <ele>358.71</ele>
        <time>2015-02-01T11:35:52Z</time>
      </trkpt>
      <trkpt lat="43.7598" lon="3.56007">
        <ele>357.27</ele>
        <time>2015-02-01T11:35:59Z</time>
      </trkpt>
      <trkpt lat="43.75972" lon="3.56021">
        <ele>355.83</ele>
        <time>2015-02-01T11:36:10Z</time>
      </trkpt>
      <trkpt lat="43.75967" lon="3.5603">
        <ele>352.94</ele>
        <time>2015-02-01T11:36:15Z</time>
      </trkpt>
      <trkpt lat="43.75962" lon="3.56041">
        <ele>353.42</ele>
        <time>2015-02-01T11:36:24Z</time>
      </trkpt>
      <trkpt lat="43.75959" lon="3.56048">
        <ele>355.34</ele>
        <time>2015-02-01T11:36:29Z</time>
      </trkpt>
      <trkpt lat="43.75956" lon="3.56053">
        <ele>351.5</ele>
        <time>2015-02-01T11:36:33Z</time>
      </trkpt>
      <trkpt lat="43.75953" lon="3.5606">
        <ele>351.98</ele>
        <time>2015-02-01T11:36:38Z</time>
      </trkpt>
      <trkpt lat="43.75951" lon="3.56066">
        <ele>351.5</ele>
        <time>2015-02-01T11:36:41Z</time>
      </trkpt>
      <trkpt lat="43.75946" lon="3.5608">
        <ele>350.06</ele>
        <time>2015-02-01T11:36:50Z</time>
      </trkpt>
      <trkpt lat="43.75939" lon="3.56092">
        <ele>347.65</ele>
        <time>2015-02-01T11:36:59Z</time>
      </trkpt>
      <trkpt lat="43.75931" lon="3.56101">
        <ele>347.17</ele>
        <time>2015-02-01T11:37:08Z</time>
      </trkpt>
      <trkpt lat="43.75927" lon="3.56107">
        <ele>345.73</ele>
        <time>2015-02-01T11:37:14Z</time>
      </trkpt>
      <trkpt lat="43.75922" lon="3.56112">
        <ele>345.25</ele>
        <time>2015-02-01T11:37:19Z</time>
      </trkpt>
      <trkpt lat="43.7592" lon="3.56116">
        <ele>345.73</ele>
        <time>2015-02-01T11:37:23Z</time>
      </trkpt>
      <trkpt lat="43.75912" lon="3.56135">
        <ele>343.81</ele>
        <time>2015-02-01T11:37:35Z</time>
      </trkpt>
      <trkpt lat="43.75908" lon="3.56148">
        <ele>341.41</ele>
        <time>2015-02-01T11:37:45Z</time>
      </trkpt>
      <trkpt lat="43.75903" lon="3.56159">
        <ele>340.44</ele>
        <time>2015-02-01T11:37:55Z</time>
      </trkpt>
      <trkpt lat="43.75898" lon="3.56178">
        <ele>339.96</ele>
        <time>2015-02-01T11:38:08Z</time>
      </trkpt>
      <trkpt lat="43.75894" lon="3.56189">
        <ele>337.56</ele>
        <time>2015-02-01T11:38:16Z</time>
      </trkpt>
      <trkpt lat="43.75891" lon="3.56198">
        <ele>336.6</ele>
        <time>2015-02-01T11:38:28Z</time>
      </trkpt>
      <trkpt lat="43.75891" lon="3.56199">
        <ele>337.56</ele>
        <time>2015-02-01T11:38:39Z</time>
      </trkpt>
      <trkpt lat="43.75893" lon="3.562">
        <ele>336.6</ele>
        <time>2015-02-01T11:38:54Z</time>
      </trkpt>
      <trkpt lat="43.75896" lon="3.56199">
        <ele>336.12</ele>
        <time>2015-02-01T11:39:05Z</time>
      </trkpt>
      <trkpt lat="43.75901" lon="3.56199">
        <ele>337.56</ele>
        <time>2015-02-01T11:39:11Z</time>
      </trkpt>
      <trkpt lat="43.75904" lon="3.56196">
        <ele>338.52</ele>
        <time>2015-02-01T11:39:15Z</time>
      </trkpt>
      <trkpt lat="43.75912" lon="3.56196">
        <ele>335.64</ele>
        <time>2015-02-01T11:39:25Z</time>
      </trkpt>
      <trkpt lat="43.75913" lon="3.56196">
        <ele>334.68</ele>
        <time>2015-02-01T11:39:27Z</time>
      </trkpt>
      <trkpt lat="43.7592" lon="3.56193">
        <ele>334.2</ele>
        <time>2015-02-01T11:39:41Z</time>
      </trkpt>
      <trkpt lat="43.75922" lon="3.5619">
        <ele>330.83</ele>
        <time>2015-02-01T11:39:49Z</time>
      </trkpt>
      <trkpt lat="43.75923" lon="3.5619">
        <ele>330.83</ele>
        <time>2015-02-01T11:39:50Z</time>
      </trkpt>
      <trkpt lat="43.75925" lon="3.56187">
        <ele>332.75</ele>
        <time>2015-02-01T11:39:54Z</time>
      </trkpt>
      <trkpt lat="43.75931" lon="3.56179">
        <ele>331.31</ele>
        <time>2015-02-01T11:40:07Z</time>
      </trkpt>
      <trkpt lat="43.75933" lon="3.56176">
        <ele>328.91</ele>
        <time>2015-02-01T11:40:19Z</time>
      </trkpt>
      <trkpt lat="43.75937" lon="3.56174">
        <ele>327.47</ele>
        <time>2015-02-01T11:40:30Z</time>
      </trkpt>
      <trkpt lat="43.75937" lon="3.56175">
        <ele>327.95</ele>
        <time>2015-02-01T11:40:44Z</time>
      </trkpt>
      <trkpt lat="43.75937" lon="3.56177">
        <ele>326.5</ele>
        <time>2015-02-01T11:40:59Z</time>
      </trkpt>
      <trkpt lat="43.75938" lon="3.56176">
        <ele>326.5</ele>
        <time>2015-02-01T11:41:16Z</time>
      </trkpt>
      <trkpt lat="43.75938" lon="3.56175">
        <ele>326.99</ele>
        <time>2015-02-01T11:41:33Z</time>
      </trkpt>
      <trkpt lat="43.75937" lon="3.56173">
        <ele>326.5</ele>
        <time>2015-02-01T11:41:52Z</time>
      </trkpt>
      <trkpt lat="43.75937" lon="3.56177">
        <ele>326.99</ele>
        <time>2015-02-01T11:42:13Z</time>
      </trkpt>
      <trkpt lat="43.75937" lon="3.56176">
        <ele>326.99</ele>
        <time>2015-02-01T11:42:29Z</time>
      </trkpt>
      <trkpt lat="43.75938" lon="3.56177">
        <ele>328.43</ele>
        <time>2015-02-01T11:42:55Z</time>
      </trkpt>
      <trkpt lat="43.75938" lon="3.56177">
        <ele>326.99</ele>
        <time>2015-02-01T11:42:58Z</time>
      </trkpt>
      <trkpt lat="43.75938" lon="3.56177">
        <ele>324.58</ele>
        <time>2015-02-01T11:43:03Z</time>
      </trkpt>
      <trkpt lat="43.75939" lon="3.56176">
        <ele>328.43</ele>
        <time>2015-02-01T11:43:30Z</time>
      </trkpt>
      <trkpt lat="43.75937" lon="3.56177">
        <ele>327.95</ele>
        <time>2015-02-01T11:44:08Z</time>
      </trkpt>
      <trkpt lat="43.75937" lon="3.56178">
        <ele>327.47</ele>
        <time>2015-02-01T11:44:18Z</time>
      </trkpt>
      <trkpt lat="43.75938" lon="3.56176">
        <ele>327.47</ele>
        <time>2015-02-01T11:44:33Z</time>
      </trkpt>
      <trkpt lat="43.75938" lon="3.56176">
        <ele>328.91</ele>
        <time>2015-02-01T11:44:36Z</time>
      </trkpt>
      <trkpt lat="43.75937" lon="3.56176">
        <ele>329.87</ele>
        <time>2015-02-01T11:44:38Z</time>
      </trkpt>
      <trkpt lat="43.75935" lon="3.56173">
        <ele>326.99</ele>
        <time>2015-02-01T11:45:08Z</time>
      </trkpt>
      <trkpt lat="43.75932" lon="3.5617">
        <ele>326.99</ele>
        <time>2015-02-01T11:45:47Z</time>
      </trkpt>
      <trkpt lat="43.75933" lon="3.56171">
        <ele>328.43</ele>
        <time>2015-02-01T11:45:54Z</time>
      </trkpt>
      <trkpt lat="43.75933" lon="3.56172">
        <ele>327.95</ele>
        <time>2015-02-01T11:45:56Z</time>
      </trkpt>
      <trkpt lat="43.75934" lon="3.56174">
        <ele>327.47</ele>
        <time>2015-02-01T11:46:07Z</time>
      </trkpt>
      <trkpt lat="43.75934" lon="3.56174">
        <ele>325.06</ele>
        <time>2015-02-01T11:46:18Z</time>
      </trkpt>
      <trkpt lat="43.75935" lon="3.56175">
        <ele>326.99</ele>
        <time>2015-02-01T11:46:22Z</time>
      </trkpt>
      <trkpt lat="43.75935" lon="3.56176">
        <ele>328.91</ele>
        <time>2015-02-01T11:46:47Z</time>
      </trkpt>
      <trkpt lat="43.75936" lon="3.56175">
        <ele>326.99</ele>
        <time>2015-02-01T11:47:06Z</time>
      </trkpt>
      <trkpt lat="43.75935" lon="3.56174">
        <ele>328.91</ele>
        <time>2015-02-01T11:47:32Z</time>
      </trkpt>
      <trkpt lat="43.75934" lon="3.56173">
        <ele>326.5</ele>
        <time>2015-02-01T11:47:53Z</time>
      </trkpt>
      <trkpt lat="43.75934" lon="3.56175">
        <ele>329.87</ele>
        <time>2015-02-01T11:48:09Z</time>
      </trkpt>
      <trkpt lat="43.75933" lon="3.56176">
        <ele>330.35</ele>
        <time>2015-02-01T11:48:19Z</time>
      </trkpt>
      <trkpt lat="43.75931" lon="3.56175">
        <ele>331.31</ele>
        <time>2015-02-01T11:48:29Z</time>
      </trkpt>
      <trkpt lat="43.75928" lon="3.56177">
        <ele>331.31</ele>
        <time>2015-02-01T11:48:41Z</time>
      </trkpt>
      <trkpt lat="43.75927" lon="3.56179">
        <ele>331.79</ele>
        <time>2015-02-01T11:48:44Z</time>
      </trkpt>
      <trkpt lat="43.75923" lon="3.56183">
        <ele>334.68</ele>
        <time>2015-02-01T11:48:52Z</time>
      </trkpt>
      <trkpt lat="43.75922" lon="3.56187">
        <ele>335.16</ele>
        <time>2015-02-01T11:48:57Z</time>
      </trkpt>
      <trkpt lat="43.75917" lon="3.56193">
        <ele>336.12</ele>
        <time>2015-02-01T11:49:09Z</time>
      </trkpt>
      <trkpt lat="43.75917" lon="3.56193">
        <ele>336.6</ele>
        <time>2015-02-01T11:49:10Z</time>
      </trkpt>
      <trkpt lat="43.75914" lon="3.56193">
        <ele>337.08</ele>
        <time>2015-02-01T11:49:13Z</time>
      </trkpt>
      <trkpt lat="43.75913" lon="3.56194">
        <ele>339.48</ele>
        <time>2015-02-01T11:49:16Z</time>
      </trkpt>
      <trkpt lat="43.75909" lon="3.56193">
        <ele>339.48</ele>
        <time>2015-02-01T11:49:21Z</time>
      </trkpt>
      <trkpt lat="43.75906" lon="3.56194">
        <ele>339</ele>
        <time>2015-02-01T11:49:25Z</time>
      </trkpt>
      <trkpt lat="43.75902" lon="3.56196">
        <ele>338.52</ele>
        <time>2015-02-01T11:49:29Z</time>
      </trkpt>
      <trkpt lat="43.75899" lon="3.56198">
        <ele>338.52</ele>
        <time>2015-02-01T11:49:32Z</time>
      </trkpt>
      <trkpt lat="43.75892" lon="3.56197">
        <ele>337.08</ele>
        <time>2015-02-01T11:49:43Z</time>
      </trkpt>
      <trkpt lat="43.7589" lon="3.56198">
        <ele>338.04</ele>
        <time>2015-02-01T11:49:54Z</time>
      </trkpt>
      <trkpt lat="43.75888" lon="3.562">
        <ele>339.96</ele>
        <time>2015-02-01T11:50:02Z</time>
      </trkpt>
      <trkpt lat="43.75887" lon="3.56201">
        <ele>339.96</ele>
        <time>2015-02-01T11:50:06Z</time>
      </trkpt>
      <trkpt lat="43.75888" lon="3.56203">
        <ele>339</ele>
        <time>2015-02-01T11:50:08Z</time>
      </trkpt>
      <trkpt lat="43.75888" lon="3.56205">
        <ele>339.48</ele>
        <time>2015-02-01T11:50:28Z</time>
      </trkpt>
      <trkpt lat="43.7589" lon="3.56205">
        <ele>339</ele>
        <time>2015-02-01T11:50:59Z</time>
      </trkpt>
      <trkpt lat="43.75886" lon="3.56204">
        <ele>338.04</ele>
        <time>2015-02-01T11:51:05Z</time>
      </trkpt>
      <trkpt lat="43.75882" lon="3.56203">
        <ele>337.56</ele>
        <time>2015-02-01T11:51:09Z</time>
      </trkpt>
      <trkpt lat="43.7588" lon="3.56202">
        <ele>337.08</ele>
        <time>2015-02-01T11:51:11Z</time>
      </trkpt>
      <trkpt lat="43.75874" lon="3.56199">
        <ele>335.64</ele>
        <time>2015-02-01T11:51:17Z</time>
      </trkpt>
      <trkpt lat="43.75869" lon="3.56194">
        <ele>335.16</ele>
        <time>2015-02-01T11:51:22Z</time>
      </trkpt>
      <trkpt lat="43.75861" lon="3.56188">
        <ele>333.71</ele>
        <time>2015-02-01T11:51:32Z</time>
      </trkpt>
      <trkpt lat="43.75861" lon="3.56188">
        <ele>333.71</ele>
        <time>2015-02-01T11:51:33Z</time>
      </trkpt>
      <trkpt lat="43.75857" lon="3.56183">
        <ele>331.31</ele>
        <time>2015-02-01T11:51:39Z</time>
      </trkpt>
      <trkpt lat="43.75852" lon="3.56178">
        <ele>329.39</ele>
        <time>2015-02-01T11:51:46Z</time>
      </trkpt>
      <trkpt lat="43.75841" lon="3.56185">
        <ele>327.95</ele>
        <time>2015-02-01T11:51:58Z</time>
      </trkpt>
      <trkpt lat="43.75841" lon="3.56186">
        <ele>327.95</ele>
        <time>2015-02-01T11:51:59Z</time>
      </trkpt>
      <trkpt lat="43.75838" lon="3.56191">
        <ele>326.99</ele>
        <time>2015-02-01T11:52:03Z</time>
      </trkpt>
      <trkpt lat="43.75835" lon="3.56196">
        <ele>327.95</ele>
        <time>2015-02-01T11:52:08Z</time>
      </trkpt>
      <trkpt lat="43.75826" lon="3.56206">
        <ele>328.43</ele>
        <time>2015-02-01T11:52:18Z</time>
      </trkpt>
      <trkpt lat="43.75822" lon="3.56207">
        <ele>327.95</ele>
        <time>2015-02-01T11:52:22Z</time>
      </trkpt>
      <trkpt lat="43.75821" lon="3.562">
        <ele>327.95</ele>
        <time>2015-02-01T11:52:28Z</time>
      </trkpt>
      <trkpt lat="43.75823" lon="3.56194">
        <ele>327.47</ele>
        <time>2015-02-01T11:52:35Z</time>
      </trkpt>
      <trkpt lat="43.75823" lon="3.56186">
        <ele>328.43</ele>
        <time>2015-02-01T11:52:42Z</time>
      </trkpt>
      <trkpt lat="43.75824" lon="3.56182">
        <ele>328.91</ele>
        <time>2015-02-01T11:52:47Z</time>
      </trkpt>
      <trkpt lat="43.75824" lon="3.56175">
        <ele>329.39</ele>
        <time>2015-02-01T11:52:51Z</time>
      </trkpt>
      <trkpt lat="43.75821" lon="3.56166">
        <ele>329.87</ele>
        <time>2015-02-01T11:52:56Z</time>
      </trkpt>
      <trkpt lat="43.75821" lon="3.56154">
        <ele>329.87</ele>
        <time>2015-02-01T11:53:03Z</time>
      </trkpt>
      <trkpt lat="43.75823" lon="3.56141">
        <ele>331.31</ele>
        <time>2015-02-01T11:53:12Z</time>
      </trkpt>
      <trkpt lat="43.75819" lon="3.56124">
        <ele>334.2</ele>
        <time>2015-02-01T11:53:24Z</time>
      </trkpt>
      <trkpt lat="43.75819" lon="3.56123">
        <ele>333.71</ele>
        <time>2015-02-01T11:53:25Z</time>
      </trkpt>
      <trkpt lat="43.75816" lon="3.56113">
        <ele>334.68</ele>
        <time>2015-02-01T11:53:33Z</time>
      </trkpt>
      <trkpt lat="43.75816" lon="3.56109">
        <ele>334.68</ele>
        <time>2015-02-01T11:53:35Z</time>
      </trkpt>
      <trkpt lat="43.75814" lon="3.56105">
        <ele>333.71</ele>
        <time>2015-02-01T11:53:38Z</time>
      </trkpt>
      <trkpt lat="43.75808" lon="3.56087">
        <ele>333.23</ele>
        <time>2015-02-01T11:53:49Z</time>
      </trkpt>
      <trkpt lat="43.75804" lon="3.56077">
        <ele>333.71</ele>
        <time>2015-02-01T11:53:56Z</time>
      </trkpt>
      <trkpt lat="43.75803" lon="3.5607">
        <ele>333.71</ele>
        <time>2015-02-01T11:54:01Z</time>
      </trkpt>
      <trkpt lat="43.75801" lon="3.56061">
        <ele>334.2</ele>
        <time>2015-02-01T11:54:07Z</time>
      </trkpt>
      <trkpt lat="43.75798" lon="3.56053">
        <ele>333.71</ele>
        <time>2015-02-01T11:54:12Z</time>
      </trkpt>
      <trkpt lat="43.75797" lon="3.56045">
        <ele>333.23</ele>
        <time>2015-02-01T11:54:17Z</time>
      </trkpt>
      <trkpt lat="43.75795" lon="3.56034">
        <ele>333.23</ele>
        <time>2015-02-01T11:54:24Z</time>
      </trkpt>
      <trkpt lat="43.7579" lon="3.56025">
        <ele>332.75</ele>
        <time>2015-02-01T11:54:30Z</time>
      </trkpt>
      <trkpt lat="43.75782" lon="3.56008">
        <ele>333.71</ele>
        <time>2015-02-01T11:54:41Z</time>
      </trkpt>
      <trkpt lat="43.75781" lon="3.56005">
        <ele>333.71</ele>
        <time>2015-02-01T11:54:44Z</time>
      </trkpt>
      <trkpt lat="43.75778" lon="3.56001">
        <ele>334.2</ele>
        <time>2015-02-01T11:54:48Z</time>
      </trkpt>
      <trkpt lat="43.75771" lon="3.55991">
        <ele>336.12</ele>
        <time>2015-02-01T11:54:56Z</time>
      </trkpt>
      <trkpt lat="43.75764" lon="3.55974">
        <ele>337.08</ele>
        <time>2015-02-01T11:55:08Z</time>
      </trkpt>
      <trkpt lat="43.75757" lon="3.55956">
        <ele>338.04</ele>
        <time>2015-02-01T11:55:19Z</time>
      </trkpt>
      <trkpt lat="43.75753" lon="3.55953">
        <ele>337.56</ele>
        <time>2015-02-01T11:55:23Z</time>
      </trkpt>
      <trkpt lat="43.75749" lon="3.55944">
        <ele>337.56</ele>
        <time>2015-02-01T11:55:29Z</time>
      </trkpt>
      <trkpt lat="43.75745" lon="3.55935">
        <ele>336.12</ele>
        <time>2015-02-01T11:55:34Z</time>
      </trkpt>
      <trkpt lat="43.75737" lon="3.55926">
        <ele>334.2</ele>
        <time>2015-02-01T11:55:42Z</time>
      </trkpt>
      <trkpt lat="43.75736" lon="3.55926">
        <ele>333.71</ele>
        <time>2015-02-01T11:55:43Z</time>
      </trkpt>
      <trkpt lat="43.75728" lon="3.55908">
        <ele>336.6</ele>
        <time>2015-02-01T11:55:56Z</time>
      </trkpt>
      <trkpt lat="43.75727" lon="3.55902">
        <ele>338.04</ele>
        <time>2015-02-01T11:55:59Z</time>
      </trkpt>
      <trkpt lat="43.75724" lon="3.55892">
        <ele>339.96</ele>
        <time>2015-02-01T11:56:06Z</time>
      </trkpt>
      <trkpt lat="43.75718" lon="3.55877">
        <ele>340.92</ele>
        <time>2015-02-01T11:56:17Z</time>
      </trkpt>
      <trkpt lat="43.75709" lon="3.5586">
        <ele>342.37</ele>
        <time>2015-02-01T11:56:29Z</time>
      </trkpt>
      <trkpt lat="43.75708" lon="3.55859">
        <ele>342.85</ele>
        <time>2015-02-01T11:56:30Z</time>
      </trkpt>
      <trkpt lat="43.75701" lon="3.55846">
        <ele>343.81</ele>
        <time>2015-02-01T11:56:38Z</time>
      </trkpt>
      <trkpt lat="43.75703" lon="3.55827">
        <ele>345.25</ele>
        <time>2015-02-01T11:56:50Z</time>
      </trkpt>
      <trkpt lat="43.75704" lon="3.55813">
        <ele>345.25</ele>
        <time>2015-02-01T11:56:58Z</time>
      </trkpt>
      <trkpt lat="43.75702" lon="3.55799">
        <ele>345.73</ele>
        <time>2015-02-01T11:57:06Z</time>
      </trkpt>
      <trkpt lat="43.75707" lon="3.55777">
        <ele>348.13</ele>
        <time>2015-02-01T11:57:17Z</time>
      </trkpt>
      <trkpt lat="43.75707" lon="3.55768">
        <ele>346.69</ele>
        <time>2015-02-01T11:57:23Z</time>
      </trkpt>
      <trkpt lat="43.75706" lon="3.55743">
        <ele>346.21</ele>
        <time>2015-02-01T11:57:35Z</time>
      </trkpt>
      <trkpt lat="43.75701" lon="3.55727">
        <ele>347.17</ele>
        <time>2015-02-01T11:57:46Z</time>
      </trkpt>
      <trkpt lat="43.75699" lon="3.55721">
        <ele>347.17</ele>
        <time>2015-02-01T11:57:50Z</time>
      </trkpt>
      <trkpt lat="43.75694" lon="3.55711">
        <ele>347.65</ele>
        <time>2015-02-01T11:57:57Z</time>
      </trkpt>
      <trkpt lat="43.75687" lon="3.55693">
        <ele>347.17</ele>
        <time>2015-02-01T11:58:07Z</time>
      </trkpt>
      <trkpt lat="43.75687" lon="3.55684">
        <ele>348.13</ele>
        <time>2015-02-01T11:58:12Z</time>
      </trkpt>
      <trkpt lat="43.75687" lon="3.55669">
        <ele>349.58</ele>
        <time>2015-02-01T11:58:23Z</time>
      </trkpt>
      <trkpt lat="43.75687" lon="3.55666">
        <ele>349.58</ele>
        <time>2015-02-01T11:58:25Z</time>
      </trkpt>
      <trkpt lat="43.75686" lon="3.55646">
        <ele>347.17</ele>
        <time>2015-02-01T11:58:37Z</time>
      </trkpt>
      <trkpt lat="43.75687" lon="3.55633">
        <ele>346.21</ele>
        <time>2015-02-01T11:58:49Z</time>
      </trkpt>
      <trkpt lat="43.7569" lon="3.55622">
        <ele>346.21</ele>
        <time>2015-02-01T11:59:01Z</time>
      </trkpt>
      <trkpt lat="43.75687" lon="3.55603">
        <ele>344.29</ele>
        <time>2015-02-01T11:59:13Z</time>
      </trkpt>
      <trkpt lat="43.75686" lon="3.55602">
        <ele>343.33</ele>
        <time>2015-02-01T11:59:14Z</time>
      </trkpt>
      <trkpt lat="43.75686" lon="3.55585">
        <ele>343.81</ele>
        <time>2015-02-01T11:59:26Z</time>
      </trkpt>
      <trkpt lat="43.75681" lon="3.55582">
        <ele>342.85</ele>
        <time>2015-02-01T11:59:39Z</time>
      </trkpt>
      <trkpt lat="43.75678" lon="3.5558">
        <ele>342.85</ele>
        <time>2015-02-01T11:59:43Z</time>
      </trkpt>
      <trkpt lat="43.75677" lon="3.55579">
        <ele>342.85</ele>
        <time>2015-02-01T11:59:46Z</time>
      </trkpt>
      <trkpt lat="43.75674" lon="3.55577">
        <ele>341.89</ele>
        <time>2015-02-01T11:59:51Z</time>
      </trkpt>
      <trkpt lat="43.7567" lon="3.55574">
        <ele>341.89</ele>
        <time>2015-02-01T12:00:04Z</time>
      </trkpt>
      <trkpt lat="43.75668" lon="3.55573">
        <ele>341.41</ele>
        <time>2015-02-01T12:00:08Z</time>
      </trkpt>
      <trkpt lat="43.75666" lon="3.5557">
        <ele>341.41</ele>
        <time>2015-02-01T12:00:11Z</time>
      </trkpt>
      <trkpt lat="43.7566" lon="3.55566">
        <ele>339.96</ele>
        <time>2015-02-01T12:00:21Z</time>
      </trkpt>
      <trkpt lat="43.75658" lon="3.55563">
        <ele>337.56</ele>
        <time>2015-02-01T12:00:33Z</time>
      </trkpt>
      <trkpt lat="43.75657" lon="3.55561">
        <ele>340.92</ele>
        <time>2015-02-01T12:00:42Z</time>
      </trkpt>
      <trkpt lat="43.75661" lon="3.5556">
        <ele>339.96</ele>
        <time>2015-02-01T12:00:59Z</time>
      </trkpt>
      <trkpt lat="43.75664" lon="3.55554">
        <ele>340.44</ele>
        <time>2015-02-01T12:01:11Z</time>
      </trkpt>
      <trkpt lat="43.75663" lon="3.55551">
        <ele>338.04</ele>
        <time>2015-02-01T12:01:20Z</time>
      </trkpt>
      <trkpt lat="43.75665" lon="3.55557">
        <ele>339</ele>
        <time>2015-02-01T12:01:30Z</time>
      </trkpt>
      <trkpt lat="43.75664" lon="3.55557">
        <ele>340.44</ele>
        <time>2015-02-01T12:01:46Z</time>
      </trkpt>
      <trkpt lat="43.75665" lon="3.55557">
        <ele>340.92</ele>
        <time>2015-02-01T12:01:58Z</time>
      </trkpt>
      <trkpt lat="43.75665" lon="3.55557">
        <ele>341.41</ele>
        <time>2015-02-01T12:02:02Z</time>
      </trkpt>
      <trkpt lat="43.75665" lon="3.55559">
        <ele>342.85</ele>
        <time>2015-02-01T12:02:16Z</time>
      </trkpt>
      <trkpt lat="43.75666" lon="3.55559">
        <ele>340.92</ele>
        <time>2015-02-01T12:02:34Z</time>
      </trkpt>
      <trkpt lat="43.75667" lon="3.55556">
        <ele>339.96</ele>
        <time>2015-02-01T12:02:59Z</time>
      </trkpt>
      <trkpt lat="43.75666" lon="3.55555">
        <ele>341.89</ele>
        <time>2015-02-01T12:03:22Z</time>
      </trkpt>
      <trkpt lat="43.75665" lon="3.55555">
        <ele>339</ele>
        <time>2015-02-01T12:03:45Z</time>
      </trkpt>
      <trkpt lat="43.75666" lon="3.55556">
        <ele>341.89</ele>
        <time>2015-02-01T12:04:12Z</time>
      </trkpt>
      <trkpt lat="43.75665" lon="3.55557">
        <ele>339</ele>
        <time>2015-02-01T12:04:24Z</time>
      </trkpt>
      <trkpt lat="43.75665" lon="3.55558">
        <ele>340.92</ele>
        <time>2015-02-01T12:04:51Z</time>
      </trkpt>
      <trkpt lat="43.75665" lon="3.55556">
        <ele>337.56</ele>
        <time>2015-02-01T12:05:01Z</time>
      </trkpt>
      <trkpt lat="43.75665" lon="3.55558">
        <ele>340.92</ele>
        <time>2015-02-01T12:05:23Z</time>
      </trkpt>
      <trkpt lat="43.75666" lon="3.55561">
        <ele>341.41</ele>
        <time>2015-02-01T12:05:52Z</time>
      </trkpt>
      <trkpt lat="43.75666" lon="3.55561">
        <ele>339.96</ele>
        <time>2015-02-01T12:06:19Z</time>
      </trkpt>
      <trkpt lat="43.75667" lon="3.55561">
        <ele>341.41</ele>
        <time>2015-02-01T12:06:54Z</time>
      </trkpt>
      <trkpt lat="43.75668" lon="3.5556">
        <ele>339.96</ele>
        <time>2015-02-01T12:07:34Z</time>
      </trkpt>
      <trkpt lat="43.7567" lon="3.55561">
        <ele>339.48</ele>
        <time>2015-02-01T12:08:25Z</time>
      </trkpt>
      <trkpt lat="43.75667" lon="3.55562">
        <ele>340.44</ele>
        <time>2015-02-01T12:09:02Z</time>
      </trkpt>
      <trkpt lat="43.75668" lon="3.55562">
        <ele>340.44</ele>
        <time>2015-02-01T12:09:20Z</time>
      </trkpt>
      <trkpt lat="43.75667" lon="3.55561">
        <ele>340.44</ele>
        <time>2015-02-01T12:09:52Z</time>
      </trkpt>
      <trkpt lat="43.75666" lon="3.55562">
        <ele>339.96</ele>
        <time>2015-02-01T12:10:33Z</time>
      </trkpt>
      <trkpt lat="43.75665" lon="3.55561">
        <ele>340.92</ele>
        <time>2015-02-01T12:11:14Z</time>
      </trkpt>
      <trkpt lat="43.75665" lon="3.55561">
        <ele>342.37</ele>
        <time>2015-02-01T12:11:49Z</time>
      </trkpt>
      <trkpt lat="43.75665" lon="3.55562">
        <ele>341.41</ele>
        <time>2015-02-01T12:12:29Z</time>
      </trkpt>
      <trkpt lat="43.75666" lon="3.55562">
        <ele>341.89</ele>
        <time>2015-02-01T12:13:08Z</time>
      </trkpt>
      <trkpt lat="43.75666" lon="3.55562">
        <ele>341.89</ele>
        <time>2015-02-01T12:13:46Z</time>
      </trkpt>
      <trkpt lat="43.75666" lon="3.55561">
        <ele>339</ele>
        <time>2015-02-01T12:14:25Z</time>
      </trkpt>
      <trkpt lat="43.75665" lon="3.55562">
        <ele>341.89</ele>
        <time>2015-02-01T12:14:38Z</time>
      </trkpt>
      <trkpt lat="43.75666" lon="3.55563">
        <ele>340.44</ele>
        <time>2015-02-01T12:14:47Z</time>
      </trkpt>
      <trkpt lat="43.75666" lon="3.55562">
        <ele>339.96</ele>
        <time>2015-02-01T12:15:25Z</time>
      </trkpt>
      <trkpt lat="43.75666" lon="3.55562">
        <ele>339.96</ele>
        <time>2015-02-01T12:15:57Z</time>
      </trkpt>
      <trkpt lat="43.75667" lon="3.55563">
        <ele>341.89</ele>
        <time>2015-02-01T12:16:27Z</time>
      </trkpt>
      <trkpt lat="43.75667" lon="3.55562">
        <ele>341.89</ele>
        <time>2015-02-01T12:16:55Z</time>
      </trkpt>
      <trkpt lat="43.75667" lon="3.55561">
        <ele>339</ele>
        <time>2015-02-01T12:17:03Z</time>
      </trkpt>
      <trkpt lat="43.75668" lon="3.55561">
        <ele>340.44</ele>
        <time>2015-02-01T12:17:55Z</time>
      </trkpt>
      <trkpt lat="43.75667" lon="3.55562">
        <ele>339.96</ele>
        <time>2015-02-01T12:18:46Z</time>
      </trkpt>
      <trkpt lat="43.75666" lon="3.55562">
        <ele>340.92</ele>
        <time>2015-02-01T12:19:22Z</time>
      </trkpt>
      <trkpt lat="43.75666" lon="3.5556">
        <ele>341.89</ele>
        <time>2015-02-01T12:19:58Z</time>
      </trkpt>
      <trkpt lat="43.75668" lon="3.55562">
        <ele>340.44</ele>
        <time>2015-02-01T12:20:43Z</time>
      </trkpt>
      <trkpt lat="43.75669" lon="3.5556">
        <ele>341.41</ele>
        <time>2015-02-01T12:21:34Z</time>
      </trkpt>
      <trkpt lat="43.75668" lon="3.55561">
        <ele>340.44</ele>
        <time>2015-02-01T12:22:16Z</time>
      </trkpt>
      <trkpt lat="43.75667" lon="3.55559">
        <ele>339</ele>
        <time>2015-02-01T12:22:49Z</time>
      </trkpt>
      <trkpt lat="43.75667" lon="3.55559">
        <ele>342.37</ele>
        <time>2015-02-01T12:23:14Z</time>
      </trkpt>
      <trkpt lat="43.75667" lon="3.55561">
        <ele>339.48</ele>
        <time>2015-02-01T12:23:53Z</time>
      </trkpt>
      <trkpt lat="43.75665" lon="3.5556">
        <ele>340.44</ele>
        <time>2015-02-01T12:24:29Z</time>
      </trkpt>
      <trkpt lat="43.75665" lon="3.5556">
        <ele>339</ele>
        <time>2015-02-01T12:24:36Z</time>
      </trkpt>
      <trkpt lat="43.75666" lon="3.55556">
        <ele>339.48</ele>
        <time>2015-02-01T12:25:06Z</time>
      </trkpt>
      <trkpt lat="43.75664" lon="3.55559">
        <ele>339</ele>
        <time>2015-02-01T12:25:24Z</time>
      </trkpt>
      <trkpt lat="43.75664" lon="3.55559">
        <ele>338.52</ele>
        <time>2015-02-01T12:25:30Z</time>
      </trkpt>
      <trkpt lat="43.75664" lon="3.55562">
        <ele>339.96</ele>
        <time>2015-02-01T12:25:33Z</time>
      </trkpt>
      <trkpt lat="43.75662" lon="3.55565">
        <ele>338.04</ele>
        <time>2015-02-01T12:25:37Z</time>
      </trkpt>
      <trkpt lat="43.75665" lon="3.55573">
        <ele>340.44</ele>
        <time>2015-02-01T12:25:47Z</time>
      </trkpt>
      <trkpt lat="43.75668" lon="3.55572">
        <ele>342.37</ele>
        <time>2015-02-01T12:26:11Z</time>
      </trkpt>
      <trkpt lat="43.75671" lon="3.55573">
        <ele>341.89</ele>
        <time>2015-02-01T12:26:25Z</time>
      </trkpt>
      <trkpt lat="43.75674" lon="3.5558">
        <ele>343.33</ele>
        <time>2015-02-01T12:26:37Z</time>
      </trkpt>
      <trkpt lat="43.75674" lon="3.5558">
        <ele>342.85</ele>
        <time>2015-02-01T12:26:43Z</time>
      </trkpt>
      <trkpt lat="43.75674" lon="3.55579">
        <ele>343.33</ele>
        <time>2015-02-01T12:26:45Z</time>
      </trkpt>
      <trkpt lat="43.75672" lon="3.55576">
        <ele>341.89</ele>
        <time>2015-02-01T12:27:02Z</time>
      </trkpt>
      <trkpt lat="43.7567" lon="3.55572">
        <ele>341.89</ele>
        <time>2015-02-01T12:27:14Z</time>
      </trkpt>
      <trkpt lat="43.75667" lon="3.55568">
        <ele>340.92</ele>
        <time>2015-02-01T12:27:28Z</time>
      </trkpt>
      <trkpt lat="43.75665" lon="3.55572">
        <ele>340.92</ele>
        <time>2015-02-01T12:27:39Z</time>
      </trkpt>
      <trkpt lat="43.75665" lon="3.55566">
        <ele>340.44</ele>
        <time>2015-02-01T12:27:51Z</time>
      </trkpt>
      <trkpt lat="43.75666" lon="3.55564">
        <ele>341.89</ele>
        <time>2015-02-01T12:27:53Z</time>
      </trkpt>
      <trkpt lat="43.75665" lon="3.55561">
        <ele>339.96</ele>
        <time>2015-02-01T12:28:10Z</time>
      </trkpt>
      <trkpt lat="43.75667" lon="3.55561">
        <ele>338.04</ele>
        <time>2015-02-01T12:28:25Z</time>
      </trkpt>
      <trkpt lat="43.75667" lon="3.55561">
        <ele>341.41</ele>
        <time>2015-02-01T12:28:26Z</time>
      </trkpt>
      <trkpt lat="43.75667" lon="3.55561">
        <ele>341.89</ele>
        <time>2015-02-01T12:28:27Z</time>
      </trkpt>
      <trkpt lat="43.75666" lon="3.5556">
        <ele>339.96</ele>
        <time>2015-02-01T12:28:29Z</time>
      </trkpt>
      <trkpt lat="43.75666" lon="3.5556">
        <ele>340.44</ele>
        <time>2015-02-01T12:29:13Z</time>
      </trkpt>
      <trkpt lat="43.75665" lon="3.55558">
        <ele>341.89</ele>
        <time>2015-02-01T12:29:54Z</time>
      </trkpt>
      <trkpt lat="43.75665" lon="3.55557">
        <ele>340.44</ele>
        <time>2015-02-01T12:30:33Z</time>
      </trkpt>
      <trkpt lat="43.75665" lon="3.55558">
        <ele>337.56</ele>
        <time>2015-02-01T12:30:58Z</time>
      </trkpt>
      <trkpt lat="43.75666" lon="3.55558">
        <ele>340.92</ele>
        <time>2015-02-01T12:31:02Z</time>
      </trkpt>
      <trkpt lat="43.75665" lon="3.55558">
        <ele>341.89</ele>
        <time>2015-02-01T12:31:09Z</time>
      </trkpt>
      <trkpt lat="43.75665" lon="3.55557">
        <ele>339.48</ele>
        <time>2015-02-01T12:31:26Z</time>
      </trkpt>
      <trkpt lat="43.75665" lon="3.55559">
        <ele>339</ele>
        <time>2015-02-01T12:32:13Z</time>
      </trkpt>
      <trkpt lat="43.75665" lon="3.55558">
        <ele>340.44</ele>
        <time>2015-02-01T12:32:50Z</time>
      </trkpt>
      <trkpt lat="43.75665" lon="3.55559">
        <ele>341.89</ele>
        <time>2015-02-01T12:32:56Z</time>
      </trkpt>
      <trkpt lat="43.75665" lon="3.5556">
        <ele>338.52</ele>
        <time>2015-02-01T12:33:32Z</time>
      </trkpt>
      <trkpt lat="43.75666" lon="3.55559">
        <ele>339.48</ele>
        <time>2015-02-01T12:34:11Z</time>
      </trkpt>
      <trkpt lat="43.75667" lon="3.55559">
        <ele>335.16</ele>
        <time>2015-02-01T12:34:44Z</time>
      </trkpt>
      <trkpt lat="43.75667" lon="3.55559">
        <ele>335.64</ele>
        <time>2015-02-01T12:34:45Z</time>
      </trkpt>
      <trkpt lat="43.75667" lon="3.55559">
        <ele>338.52</ele>
        <time>2015-02-01T12:34:47Z</time>
      </trkpt>
      <trkpt lat="43.75666" lon="3.55558">
        <ele>339</ele>
        <time>2015-02-01T12:35:22Z</time>
      </trkpt>
      <trkpt lat="43.75667" lon="3.55559">
        <ele>338.04</ele>
        <time>2015-02-01T12:35:58Z</time>
      </trkpt>
      <trkpt lat="43.75667" lon="3.55558">
        <ele>339</ele>
        <time>2015-02-01T12:36:38Z</time>
      </trkpt>
      <trkpt lat="43.75668" lon="3.55556">
        <ele>336.12</ele>
        <time>2015-02-01T12:37:23Z</time>
      </trkpt>
      <trkpt lat="43.75667" lon="3.55557">
        <ele>336.6</ele>
        <time>2015-02-01T12:37:44Z</time>
      </trkpt>
      <trkpt lat="43.75666" lon="3.55557">
        <ele>336.6</ele>
        <time>2015-02-01T12:38:23Z</time>
      </trkpt>
      <trkpt lat="43.75667" lon="3.55558">
        <ele>337.08</ele>
        <time>2015-02-01T12:38:55Z</time>
      </trkpt>
      <trkpt lat="43.75665" lon="3.5556">
        <ele>334.2</ele>
        <time>2015-02-01T12:39:17Z</time>
      </trkpt>
      <trkpt lat="43.75666" lon="3.55559">
        <ele>337.08</ele>
        <time>2015-02-01T12:39:23Z</time>
      </trkpt>
      <trkpt lat="43.75667" lon="3.5556">
        <ele>337.56</ele>
        <time>2015-02-01T12:39:46Z</time>
      </trkpt>
      <trkpt lat="43.75667" lon="3.5556">
        <ele>336.12</ele>
        <time>2015-02-01T12:40:18Z</time>
      </trkpt>
      <trkpt lat="43.75668" lon="3.55561">
        <ele>336.6</ele>
        <time>2015-02-01T12:40:52Z</time>
      </trkpt>
      <trkpt lat="43.75665" lon="3.55561">
        <ele>334.2</ele>
        <time>2015-02-01T12:41:20Z</time>
      </trkpt>
      <trkpt lat="43.75665" lon="3.5556">
        <ele>337.56</ele>
        <time>2015-02-01T12:41:25Z</time>
      </trkpt>
      <trkpt lat="43.75663" lon="3.5556">
        <ele>336.6</ele>
        <time>2015-02-01T12:42:02Z</time>
      </trkpt>
      <trkpt lat="43.75666" lon="3.55562">
        <ele>335.16</ele>
        <time>2015-02-01T12:42:35Z</time>
      </trkpt>
      <trkpt lat="43.75666" lon="3.55561">
        <ele>334.68</ele>
        <time>2015-02-01T12:43:08Z</time>
      </trkpt>
      <trkpt lat="43.75665" lon="3.5556">
        <ele>335.16</ele>
        <time>2015-02-01T12:43:48Z</time>
      </trkpt>
      <trkpt lat="43.75667" lon="3.5556">
        <ele>336.12</ele>
        <time>2015-02-01T12:44:29Z</time>
      </trkpt>
      <trkpt lat="43.75666" lon="3.5556">
        <ele>335.16</ele>
        <time>2015-02-01T12:45:05Z</time>
      </trkpt>
      <trkpt lat="43.75666" lon="3.55558">
        <ele>335.16</ele>
        <time>2015-02-01T12:45:39Z</time>
      </trkpt>
      <trkpt lat="43.75666" lon="3.55557">
        <ele>336.12</ele>
        <time>2015-02-01T12:45:41Z</time>
      </trkpt>
      <trkpt lat="43.75667" lon="3.55558">
        <ele>332.75</ele>
        <time>2015-02-01T12:45:59Z</time>
      </trkpt>
      <trkpt lat="43.75667" lon="3.55558">
        <ele>335.16</ele>
        <time>2015-02-01T12:46:03Z</time>
      </trkpt>
      <trkpt lat="43.75667" lon="3.55558">
        <ele>336.12</ele>
        <time>2015-02-01T12:46:08Z</time>
      </trkpt>
      <trkpt lat="43.75666" lon="3.55559">
        <ele>332.27</ele>
        <time>2015-02-01T12:46:13Z</time>
      </trkpt>
      <trkpt lat="43.75666" lon="3.55559">
        <ele>332.27</ele>
        <time>2015-02-01T12:46:14Z</time>
      </trkpt>
      <trkpt lat="43.75666" lon="3.55559">
        <ele>335.64</ele>
        <time>2015-02-01T12:46:17Z</time>
      </trkpt>
      <trkpt lat="43.75665" lon="3.55559">
        <ele>333.71</ele>
        <time>2015-02-01T12:46:45Z</time>
      </trkpt>
      <trkpt lat="43.75665" lon="3.55558">
        <ele>333.71</ele>
        <time>2015-02-01T12:47:19Z</time>
      </trkpt>
      <trkpt lat="43.75666" lon="3.55559">
        <ele>333.23</ele>
        <time>2015-02-01T12:47:59Z</time>
      </trkpt>
      <trkpt lat="43.75664" lon="3.55558">
        <ele>334.2</ele>
        <time>2015-02-01T12:48:37Z</time>
      </trkpt>
      <trkpt lat="43.75665" lon="3.55557">
        <ele>333.23</ele>
        <time>2015-02-01T12:49:17Z</time>
      </trkpt>
      <trkpt lat="43.75665" lon="3.55557">
        <ele>333.23</ele>
        <time>2015-02-01T12:49:18Z</time>
      </trkpt>
      <trkpt lat="43.75667" lon="3.55559">
        <ele>334.2</ele>
        <time>2015-02-01T12:49:47Z</time>
      </trkpt>
      <trkpt lat="43.75662" lon="3.55556">
        <ele>333.71</ele>
        <time>2015-02-01T12:50:25Z</time>
      </trkpt>
      <trkpt lat="43.75665" lon="3.55557">
        <ele>332.75</ele>
        <time>2015-02-01T12:51:08Z</time>
      </trkpt>
      <trkpt lat="43.75668" lon="3.55558">
        <ele>336.6</ele>
        <time>2015-02-01T12:51:23Z</time>
      </trkpt>
      <trkpt lat="43.75664" lon="3.5556">
        <ele>334.2</ele>
        <time>2015-02-01T12:51:54Z</time>
      </trkpt>
      <trkpt lat="43.75664" lon="3.55559">
        <ele>334.68</ele>
        <time>2015-02-01T12:52:26Z</time>
      </trkpt>
      <trkpt lat="43.75665" lon="3.55559">
        <ele>338.04</ele>
        <time>2015-02-01T12:52:47Z</time>
      </trkpt>
      <trkpt lat="43.75665" lon="3.55559">
        <ele>337.08</ele>
        <time>2015-02-01T12:52:48Z</time>
      </trkpt>
      <trkpt lat="43.75667" lon="3.55563">
        <ele>336.6</ele>
        <time>2015-02-01T12:53:02Z</time>
      </trkpt>
      <trkpt lat="43.75668" lon="3.55568">
        <ele>337.08</ele>
        <time>2015-02-01T12:53:15Z</time>
      </trkpt>
      <trkpt lat="43.75671" lon="3.55571">
        <ele>336.12</ele>
        <time>2015-02-01T12:53:34Z</time>
      </trkpt>
      <trkpt lat="43.75672" lon="3.55575">
        <ele>336.6</ele>
        <time>2015-02-01T12:53:43Z</time>
      </trkpt>
      <trkpt lat="43.75674" lon="3.5558">
        <ele>338.04</ele>
        <time>2015-02-01T12:53:55Z</time>
      </trkpt>
      <trkpt lat="43.75672" lon="3.55578">
        <ele>336.6</ele>
        <time>2015-02-01T12:54:11Z</time>
      </trkpt>
      <trkpt lat="43.75671" lon="3.55577">
        <ele>340.44</ele>
        <time>2015-02-01T12:54:15Z</time>
      </trkpt>
      <trkpt lat="43.75671" lon="3.55577">
        <ele>339.48</ele>
        <time>2015-02-01T12:54:16Z</time>
      </trkpt>
      <trkpt lat="43.75671" lon="3.55576">
        <ele>332.75</ele>
        <time>2015-02-01T12:54:20Z</time>
      </trkpt>
      <trkpt lat="43.75671" lon="3.55576">
        <ele>339</ele>
        <time>2015-02-01T12:54:21Z</time>
      </trkpt>
      <trkpt lat="43.75672" lon="3.55574">
        <ele>337.08</ele>
        <time>2015-02-01T12:54:35Z</time>
      </trkpt>
      <trkpt lat="43.75675" lon="3.55582">
        <ele>338.52</ele>
        <time>2015-02-01T12:54:47Z</time>
      </trkpt>
      <trkpt lat="43.75678" lon="3.55586">
        <ele>337.56</ele>
        <time>2015-02-01T12:54:51Z</time>
      </trkpt>
      <trkpt lat="43.75685" lon="3.55587">
        <ele>339.48</ele>
        <time>2015-02-01T12:55:02Z</time>
      </trkpt>
      <trkpt lat="43.75686" lon="3.55579">
        <ele>338.04</ele>
        <time>2015-02-01T12:55:15Z</time>
      </trkpt>
      <trkpt lat="43.75686" lon="3.55578">
        <ele>338.04</ele>
        <time>2015-02-01T12:55:47Z</time>
      </trkpt>
      <trkpt lat="43.75685" lon="3.55578">
        <ele>338.04</ele>
        <time>2015-02-01T12:56:24Z</time>
      </trkpt>
      <trkpt lat="43.75685" lon="3.55582">
        <ele>339</ele>
        <time>2015-02-01T12:56:49Z</time>
      </trkpt>
      <trkpt lat="43.75683" lon="3.55584">
        <ele>339</ele>
        <time>2015-02-01T12:57:03Z</time>
      </trkpt>
      <trkpt lat="43.75676" lon="3.55581">
        <ele>337.08</ele>
        <time>2015-02-01T12:57:17Z</time>
      </trkpt>
      <trkpt lat="43.75673" lon="3.55578">
        <ele>336.6</ele>
        <time>2015-02-01T12:57:25Z</time>
      </trkpt>
      <trkpt lat="43.75673" lon="3.55578">
        <ele>338.04</ele>
        <time>2015-02-01T12:57:28Z</time>
      </trkpt>
      <trkpt lat="43.75674" lon="3.55579">
        <ele>338.04</ele>
        <time>2015-02-01T12:57:48Z</time>
      </trkpt>
      <trkpt lat="43.75673" lon="3.55582">
        <ele>337.08</ele>
        <time>2015-02-01T12:58:14Z</time>
      </trkpt>
      <trkpt lat="43.75675" lon="3.55583">
        <ele>337.56</ele>
        <time>2015-02-01T12:58:37Z</time>
      </trkpt>
      <trkpt lat="43.75675" lon="3.55582">
        <ele>336.12</ele>
        <time>2015-02-01T12:58:54Z</time>
      </trkpt>
      <trkpt lat="43.75676" lon="3.55581">
        <ele>337.56</ele>
        <time>2015-02-01T12:59:21Z</time>
      </trkpt>
      <trkpt lat="43.75672" lon="3.55577">
        <ele>336.6</ele>
        <time>2015-02-01T12:59:34Z</time>
      </trkpt>
      <trkpt lat="43.75672" lon="3.55581">
        <ele>336.6</ele>
        <time>2015-02-01T12:59:48Z</time>
      </trkpt>
      <trkpt lat="43.75675" lon="3.55585">
        <ele>338.52</ele>
        <time>2015-02-01T13:00:02Z</time>
      </trkpt>
      <trkpt lat="43.75675" lon="3.55584">
        <ele>337.56</ele>
        <time>2015-02-01T13:00:19Z</time>
      </trkpt>
      <trkpt lat="43.75676" lon="3.55583">
        <ele>338.04</ele>
        <time>2015-02-01T13:00:42Z</time>
      </trkpt>
      <trkpt lat="43.75676" lon="3.55584">
        <ele>338.52</ele>
        <time>2015-02-01T13:00:46Z</time>
      </trkpt>
      <trkpt lat="43.75681" lon="3.5559">
        <ele>339.48</ele>
        <time>2015-02-01T13:00:58Z</time>
      </trkpt>
      <trkpt lat="43.75687" lon="3.55586">
        <ele>339.96</ele>
        <time>2015-02-01T13:01:08Z</time>
      </trkpt>
      <trkpt lat="43.75687" lon="3.55576">
        <ele>340.92</ele>
        <time>2015-02-01T13:01:17Z</time>
      </trkpt>
      <trkpt lat="43.75686" lon="3.55571">
        <ele>339.96</ele>
        <time>2015-02-01T13:01:21Z</time>
      </trkpt>
      <trkpt lat="43.75686" lon="3.55565">
        <ele>338.04</ele>
        <time>2015-02-01T13:01:27Z</time>
      </trkpt>
      <trkpt lat="43.75687" lon="3.55557">
        <ele>336.12</ele>
        <time>2015-02-01T13:01:35Z</time>
      </trkpt>
      <trkpt lat="43.75687" lon="3.55554">
        <ele>335.16</ele>
        <time>2015-02-01T13:01:37Z</time>
      </trkpt>
      <trkpt lat="43.75689" lon="3.55544">
        <ele>333.23</ele>
        <time>2015-02-01T13:01:45Z</time>
      </trkpt>
      <trkpt lat="43.75685" lon="3.55533">
        <ele>332.27</ele>
        <time>2015-02-01T13:01:56Z</time>
      </trkpt>
      <trkpt lat="43.75683" lon="3.5552">
        <ele>333.23</ele>
        <time>2015-02-01T13:02:07Z</time>
      </trkpt>
      <trkpt lat="43.75678" lon="3.55512">
        <ele>333.23</ele>
        <time>2015-02-01T13:02:16Z</time>
      </trkpt>
      <trkpt lat="43.7567" lon="3.55501">
        <ele>334.68</ele>
        <time>2015-02-01T13:02:27Z</time>
      </trkpt>
      <trkpt lat="43.7567" lon="3.55497">
        <ele>334.2</ele>
        <time>2015-02-01T13:02:31Z</time>
      </trkpt>
      <trkpt lat="43.7567" lon="3.55494">
        <ele>333.23</ele>
        <time>2015-02-01T13:02:34Z</time>
      </trkpt>
      <trkpt lat="43.75672" lon="3.55486">
        <ele>332.27</ele>
        <time>2015-02-01T13:02:40Z</time>
      </trkpt>
      <trkpt lat="43.75674" lon="3.5548">
        <ele>331.79</ele>
        <time>2015-02-01T13:02:47Z</time>
      </trkpt>
      <trkpt lat="43.75676" lon="3.55476">
        <ele>329.87</ele>
        <time>2015-02-01T13:02:53Z</time>
      </trkpt>
      <trkpt lat="43.75677" lon="3.55473">
        <ele>329.87</ele>
        <time>2015-02-01T13:02:56Z</time>
      </trkpt>
      <trkpt lat="43.75678" lon="3.55469">
        <ele>328.91</ele>
        <time>2015-02-01T13:02:59Z</time>
      </trkpt>
      <trkpt lat="43.7568" lon="3.55461">
        <ele>326.5</ele>
        <time>2015-02-01T13:03:09Z</time>
      </trkpt>
      <trkpt lat="43.75679" lon="3.55458">
        <ele>326.02</ele>
        <time>2015-02-01T13:03:11Z</time>
      </trkpt>
      <trkpt lat="43.75682" lon="3.55443">
        <ele>324.1</ele>
        <time>2015-02-01T13:03:25Z</time>
      </trkpt>
      <trkpt lat="43.75683" lon="3.55441">
        <ele>323.62</ele>
        <time>2015-02-01T13:03:28Z</time>
      </trkpt>
      <trkpt lat="43.75683" lon="3.55438">
        <ele>322.66</ele>
        <time>2015-02-01T13:03:31Z</time>
      </trkpt>
      <trkpt lat="43.75683" lon="3.55432">
        <ele>323.14</ele>
        <time>2015-02-01T13:03:36Z</time>
      </trkpt>
      <trkpt lat="43.75683" lon="3.55429">
        <ele>323.62</ele>
        <time>2015-02-01T13:03:38Z</time>
      </trkpt>
      <trkpt lat="43.75682" lon="3.55415">
        <ele>323.14</ele>
        <time>2015-02-01T13:03:49Z</time>
      </trkpt>
      <trkpt lat="43.75681" lon="3.55402">
        <ele>321.22</ele>
        <time>2015-02-01T13:04:03Z</time>
      </trkpt>
      <trkpt lat="43.7568" lon="3.55391">
        <ele>320.26</ele>
        <time>2015-02-01T13:04:14Z</time>
      </trkpt>
      <trkpt lat="43.75679" lon="3.5538">
        <ele>319.3</ele>
        <time>2015-02-01T13:04:24Z</time>
      </trkpt>
      <trkpt lat="43.75678" lon="3.55379">
        <ele>319.3</ele>
        <time>2015-02-01T13:04:25Z</time>
      </trkpt>
      <trkpt lat="43.75672" lon="3.55359">
        <ele>318.33</ele>
        <time>2015-02-01T13:04:41Z</time>
      </trkpt>
      <trkpt lat="43.75656" lon="3.55353">
        <ele>321.22</ele>
        <time>2015-02-01T13:04:57Z</time>
      </trkpt>
      <trkpt lat="43.75653" lon="3.55353">
        <ele>322.18</ele>
        <time>2015-02-01T13:05:00Z</time>
      </trkpt>
      <trkpt lat="43.75637" lon="3.55353">
        <ele>322.66</ele>
        <time>2015-02-01T13:05:13Z</time>
      </trkpt>
      <trkpt lat="43.75623" lon="3.55354">
        <ele>322.18</ele>
        <time>2015-02-01T13:05:27Z</time>
      </trkpt>
      <trkpt lat="43.75615" lon="3.55356">
        <ele>320.74</ele>
        <time>2015-02-01T13:05:34Z</time>
      </trkpt>
      <trkpt lat="43.75609" lon="3.55355">
        <ele>320.74</ele>
        <time>2015-02-01T13:05:39Z</time>
      </trkpt>
      <trkpt lat="43.75603" lon="3.55353">
        <ele>322.18</ele>
        <time>2015-02-01T13:05:47Z</time>
      </trkpt>
      <trkpt lat="43.756" lon="3.55353">
        <ele>322.66</ele>
        <time>2015-02-01T13:05:50Z</time>
      </trkpt>
      <trkpt lat="43.75593" lon="3.55352">
        <ele>320.74</ele>
        <time>2015-02-01T13:05:59Z</time>
      </trkpt>
      <trkpt lat="43.75582" lon="3.55351">
        <ele>324.1</ele>
        <time>2015-02-01T13:06:13Z</time>
      </trkpt>
      <trkpt lat="43.7558" lon="3.55354">
        <ele>325.06</ele>
        <time>2015-02-01T13:06:16Z</time>
      </trkpt>
      <trkpt lat="43.75572" lon="3.55358">
        <ele>327.95</ele>
        <time>2015-02-01T13:06:25Z</time>
      </trkpt>
      <trkpt lat="43.75565" lon="3.5536">
        <ele>327.47</ele>
        <time>2015-02-01T13:06:31Z</time>
      </trkpt>
      <trkpt lat="43.75559" lon="3.55369">
        <ele>328.43</ele>
        <time>2015-02-01T13:06:38Z</time>
      </trkpt>
      <trkpt lat="43.75557" lon="3.55371">
        <ele>328.43</ele>
        <time>2015-02-01T13:06:40Z</time>
      </trkpt>
      <trkpt lat="43.75548" lon="3.55379">
        <ele>329.39</ele>
        <time>2015-02-01T13:06:52Z</time>
      </trkpt>
      <trkpt lat="43.75541" lon="3.55377">
        <ele>329.39</ele>
        <time>2015-02-01T13:06:59Z</time>
      </trkpt>
      <trkpt lat="43.75528" lon="3.55381">
        <ele>331.31</ele>
        <time>2015-02-01T13:07:14Z</time>
      </trkpt>
      <trkpt lat="43.75516" lon="3.55381">
        <ele>329.39</ele>
        <time>2015-02-01T13:07:29Z</time>
      </trkpt>
      <trkpt lat="43.75498" lon="3.55388">
        <ele>331.79</ele>
        <time>2015-02-01T13:07:46Z</time>
      </trkpt>
      <trkpt lat="43.75496" lon="3.55389">
        <ele>332.75</ele>
        <time>2015-02-01T13:07:48Z</time>
      </trkpt>
      <trkpt lat="43.75481" lon="3.554">
        <ele>331.31</ele>
        <time>2015-02-01T13:08:04Z</time>
      </trkpt>
      <trkpt lat="43.75474" lon="3.55402">
        <ele>327.47</ele>
        <time>2015-02-01T13:08:12Z</time>
      </trkpt>
      <trkpt lat="43.75474" lon="3.55402">
        <ele>332.27</ele>
        <time>2015-02-01T13:08:13Z</time>
      </trkpt>
      <trkpt lat="43.75469" lon="3.55402">
        <ele>332.75</ele>
        <time>2015-02-01T13:08:20Z</time>
      </trkpt>
      <trkpt lat="43.75467" lon="3.55401">
        <ele>334.2</ele>
        <time>2015-02-01T13:08:23Z</time>
      </trkpt>
      <trkpt lat="43.75466" lon="3.554">
        <ele>332.75</ele>
        <time>2015-02-01T13:08:24Z</time>
      </trkpt>
      <trkpt lat="43.75454" lon="3.55396">
        <ele>332.27</ele>
        <time>2015-02-01T13:08:37Z</time>
      </trkpt>
      <trkpt lat="43.75443" lon="3.55387">
        <ele>330.83</ele>
        <time>2015-02-01T13:08:50Z</time>
      </trkpt>
      <trkpt lat="43.75428" lon="3.55379">
        <ele>328.43</ele>
        <time>2015-02-01T13:09:06Z</time>
      </trkpt>
      <trkpt lat="43.75418" lon="3.55375">
        <ele>326.5</ele>
        <time>2015-02-01T13:09:18Z</time>
      </trkpt>
      <trkpt lat="43.75406" lon="3.5537">
        <ele>326.99</ele>
        <time>2015-02-01T13:09:30Z</time>
      </trkpt>
      <trkpt lat="43.75393" lon="3.55364">
        <ele>326.02</ele>
        <time>2015-02-01T13:09:42Z</time>
      </trkpt>
      <trkpt lat="43.75386" lon="3.55364">
        <ele>324.58</ele>
        <time>2015-02-01T13:09:48Z</time>
      </trkpt>
      <trkpt lat="43.75379" lon="3.55361">
        <ele>324.58</ele>
        <time>2015-02-01T13:09:54Z</time>
      </trkpt>
      <trkpt lat="43.75373" lon="3.55352">
        <ele>325.06</ele>
        <time>2015-02-01T13:10:03Z</time>
      </trkpt>
      <trkpt lat="43.75367" lon="3.55346">
        <ele>323.62</ele>
        <time>2015-02-01T13:10:09Z</time>
      </trkpt>
      <trkpt lat="43.75366" lon="3.55344">
        <ele>323.62</ele>
        <time>2015-02-01T13:10:11Z</time>
      </trkpt>
      <trkpt lat="43.75364" lon="3.55336">
        <ele>323.14</ele>
        <time>2015-02-01T13:10:19Z</time>
      </trkpt>
      <trkpt lat="43.75361" lon="3.55325">
        <ele>319.3</ele>
        <time>2015-02-01T13:10:32Z</time>
      </trkpt>
      <trkpt lat="43.75357" lon="3.55318">
        <ele>316.41</ele>
        <time>2015-02-01T13:10:42Z</time>
      </trkpt>
      <trkpt lat="43.75352" lon="3.55314">
        <ele>314.97</ele>
        <time>2015-02-01T13:10:53Z</time>
      </trkpt>
      <trkpt lat="43.75351" lon="3.55307">
        <ele>314.01</ele>
        <time>2015-02-01T13:11:03Z</time>
      </trkpt>
      <trkpt lat="43.7535" lon="3.55305">
        <ele>314.01</ele>
        <time>2015-02-01T13:11:05Z</time>
      </trkpt>
      <trkpt lat="43.75349" lon="3.553">
        <ele>312.57</ele>
        <time>2015-02-01T13:11:08Z</time>
      </trkpt>
      <trkpt lat="43.75348" lon="3.55296">
        <ele>311.6</ele>
        <time>2015-02-01T13:11:11Z</time>
      </trkpt>
      <trkpt lat="43.75345" lon="3.55287">
        <ele>309.68</ele>
        <time>2015-02-01T13:11:19Z</time>
      </trkpt>
      <trkpt lat="43.75344" lon="3.55283">
        <ele>309.2</ele>
        <time>2015-02-01T13:11:22Z</time>
      </trkpt>
      <trkpt lat="43.75343" lon="3.55276">
        <ele>307.76</ele>
        <time>2015-02-01T13:11:28Z</time>
      </trkpt>
      <trkpt lat="43.75338" lon="3.55259">
        <ele>305.36</ele>
        <time>2015-02-01T13:11:39Z</time>
      </trkpt>
      <trkpt lat="43.75332" lon="3.55249">
        <ele>302.95</ele>
        <time>2015-02-01T13:11:48Z</time>
      </trkpt>
      <trkpt lat="43.75329" lon="3.55244">
        <ele>302.47</ele>
        <time>2015-02-01T13:11:54Z</time>
      </trkpt>
      <trkpt lat="43.75328" lon="3.55233">
        <ele>302.47</ele>
        <time>2015-02-01T13:12:02Z</time>
      </trkpt>
      <trkpt lat="43.75325" lon="3.55228">
        <ele>301.99</ele>
        <time>2015-02-01T13:12:06Z</time>
      </trkpt>
      <trkpt lat="43.75314" lon="3.55217">
        <ele>301.51</ele>
        <time>2015-02-01T13:12:19Z</time>
      </trkpt>
      <trkpt lat="43.75308" lon="3.55216">
        <ele>301.51</ele>
        <time>2015-02-01T13:12:25Z</time>
      </trkpt>
      <trkpt lat="43.75297" lon="3.55213">
        <ele>301.03</ele>
        <time>2015-02-01T13:12:36Z</time>
      </trkpt>
      <trkpt lat="43.75288" lon="3.55209">
        <ele>301.51</ele>
        <time>2015-02-01T13:12:49Z</time>
      </trkpt>
      <trkpt lat="43.75286" lon="3.55207">
        <ele>303.91</ele>
        <time>2015-02-01T13:12:54Z</time>
      </trkpt>
      <trkpt lat="43.75283" lon="3.55207">
        <ele>304.39</ele>
        <time>2015-02-01T13:12:57Z</time>
      </trkpt>
      <trkpt lat="43.75279" lon="3.55208">
        <ele>305.84</ele>
        <time>2015-02-01T13:13:01Z</time>
      </trkpt>
      <trkpt lat="43.75267" lon="3.55216">
        <ele>308.72</ele>
        <time>2015-02-01T13:13:17Z</time>
      </trkpt>
      <trkpt lat="43.75266" lon="3.55217">
        <ele>309.2</ele>
        <time>2015-02-01T13:13:18Z</time>
      </trkpt>
      <trkpt lat="43.75264" lon="3.5522">
        <ele>308.24</ele>
        <time>2015-02-01T13:13:20Z</time>
      </trkpt>
      <trkpt lat="43.75262" lon="3.55226">
        <ele>307.76</ele>
        <time>2015-02-01T13:13:24Z</time>
      </trkpt>
      <trkpt lat="43.75259" lon="3.55232">
        <ele>306.8</ele>
        <time>2015-02-01T13:13:30Z</time>
      </trkpt>
      <trkpt lat="43.75255" lon="3.55236">
        <ele>306.8</ele>
        <time>2015-02-01T13:13:35Z</time>
      </trkpt>
      <trkpt lat="43.75252" lon="3.55239">
        <ele>305.84</ele>
        <time>2015-02-01T13:13:38Z</time>
      </trkpt>
      <trkpt lat="43.75242" lon="3.55244">
        <ele>309.2</ele>
        <time>2015-02-01T13:13:49Z</time>
      </trkpt>
      <trkpt lat="43.75237" lon="3.5525">
        <ele>308.24</ele>
        <time>2015-02-01T13:14:01Z</time>
      </trkpt>
      <trkpt lat="43.75237" lon="3.55249">
        <ele>306.32</ele>
        <time>2015-02-01T13:14:38Z</time>
      </trkpt>
      <trkpt lat="43.7523" lon="3.5525">
        <ele>305.36</ele>
        <time>2015-02-01T13:14:50Z</time>
      </trkpt>
      <trkpt lat="43.75221" lon="3.55251">
        <ele>304.88</ele>
        <time>2015-02-01T13:15:01Z</time>
      </trkpt>
      <trkpt lat="43.75217" lon="3.55249">
        <ele>305.36</ele>
        <time>2015-02-01T13:15:06Z</time>
      </trkpt>
      <trkpt lat="43.75209" lon="3.55245">
        <ele>306.8</ele>
        <time>2015-02-01T13:15:15Z</time>
      </trkpt>
      <trkpt lat="43.752" lon="3.55253">
        <ele>305.36</ele>
        <time>2015-02-01T13:15:26Z</time>
      </trkpt>
      <trkpt lat="43.75199" lon="3.55256">
        <ele>304.88</ele>
        <time>2015-02-01T13:15:29Z</time>
      </trkpt>
      <trkpt lat="43.75195" lon="3.55259">
        <ele>302.95</ele>
        <time>2015-02-01T13:15:32Z</time>
      </trkpt>
      <trkpt lat="43.75193" lon="3.5526">
        <ele>303.43</ele>
        <time>2015-02-01T13:15:35Z</time>
      </trkpt>
      <trkpt lat="43.75186" lon="3.55264">
        <ele>305.84</ele>
        <time>2015-02-01T13:15:46Z</time>
      </trkpt>
      <trkpt lat="43.75183" lon="3.55264">
        <ele>305.36</ele>
        <time>2015-02-01T13:15:50Z</time>
      </trkpt>
      <trkpt lat="43.75179" lon="3.55264">
        <ele>305.84</ele>
        <time>2015-02-01T13:15:54Z</time>
      </trkpt>
      <trkpt lat="43.75174" lon="3.55267">
        <ele>306.32</ele>
        <time>2015-02-01T13:15:59Z</time>
      </trkpt>
      <trkpt lat="43.75166" lon="3.55266">
        <ele>306.8</ele>
        <time>2015-02-01T13:16:07Z</time>
      </trkpt>
      <trkpt lat="43.75164" lon="3.5527">
        <ele>306.8</ele>
        <time>2015-02-01T13:16:22Z</time>
      </trkpt>
      <trkpt lat="43.75161" lon="3.5527">
        <ele>305.36</ele>
        <time>2015-02-01T13:16:41Z</time>
      </trkpt>
      <trkpt lat="43.7516" lon="3.55269">
        <ele>305.84</ele>
        <time>2015-02-01T13:16:44Z</time>
      </trkpt>
      <trkpt lat="43.75155" lon="3.55265">
        <ele>302.95</ele>
        <time>2015-02-01T13:16:55Z</time>
      </trkpt>
      <trkpt lat="43.75149" lon="3.55265">
        <ele>303.91</ele>
        <time>2015-02-01T13:17:00Z</time>
      </trkpt>
      <trkpt lat="43.75146" lon="3.55261">
        <ele>304.39</ele>
        <time>2015-02-01T13:17:05Z</time>
      </trkpt>
      <trkpt lat="43.75143" lon="3.55254">
        <ele>305.84</ele>
        <time>2015-02-01T13:17:10Z</time>
      </trkpt>
      <trkpt lat="43.75134" lon="3.55252">
        <ele>304.88</ele>
        <time>2015-02-01T13:17:18Z</time>
      </trkpt>
      <trkpt lat="43.75119" lon="3.5524">
        <ele>304.88</ele>
        <time>2015-02-01T13:17:32Z</time>
      </trkpt>
      <trkpt lat="43.75113" lon="3.5524">
        <ele>306.32</ele>
        <time>2015-02-01T13:17:37Z</time>
      </trkpt>
      <trkpt lat="43.75108" lon="3.55241">
        <ele>304.88</ele>
        <time>2015-02-01T13:17:42Z</time>
      </trkpt>
      <trkpt lat="43.75101" lon="3.55238">
        <ele>306.32</ele>
        <time>2015-02-01T13:17:49Z</time>
      </trkpt>
      <trkpt lat="43.75097" lon="3.55236">
        <ele>306.32</ele>
        <time>2015-02-01T13:17:53Z</time>
      </trkpt>
      <trkpt lat="43.75096" lon="3.55233">
        <ele>306.32</ele>
        <time>2015-02-01T13:17:56Z</time>
      </trkpt>
      <trkpt lat="43.75095" lon="3.55231">
        <ele>305.84</ele>
        <time>2015-02-01T13:17:58Z</time>
      </trkpt>
      <trkpt lat="43.75092" lon="3.55219">
        <ele>304.88</ele>
        <time>2015-02-01T13:18:11Z</time>
      </trkpt>
      <trkpt lat="43.75092" lon="3.55218">
        <ele>303.43</ele>
        <time>2015-02-01T13:18:26Z</time>
      </trkpt>
      <trkpt lat="43.75093" lon="3.55212">
        <ele>302.47</ele>
        <time>2015-02-01T13:18:46Z</time>
      </trkpt>
      <trkpt lat="43.75093" lon="3.55205">
        <ele>302.95</ele>
        <time>2015-02-01T13:18:50Z</time>
      </trkpt>
      <trkpt lat="43.75093" lon="3.55198">
        <ele>299.11</ele>
        <time>2015-02-01T13:18:57Z</time>
      </trkpt>
      <trkpt lat="43.75091" lon="3.55186">
        <ele>296.22</ele>
        <time>2015-02-01T13:19:09Z</time>
      </trkpt>
      <trkpt lat="43.75091" lon="3.55183">
        <ele>297.67</ele>
        <time>2015-02-01T13:19:12Z</time>
      </trkpt>
      <trkpt lat="43.75089" lon="3.55173">
        <ele>295.74</ele>
        <time>2015-02-01T13:19:20Z</time>
      </trkpt>
      <trkpt lat="43.75082" lon="3.55168">
        <ele>294.78</ele>
        <time>2015-02-01T13:19:33Z</time>
      </trkpt>
      <trkpt lat="43.75081" lon="3.55166">
        <ele>294.3</ele>
        <time>2015-02-01T13:19:35Z</time>
      </trkpt>
      <trkpt lat="43.75078" lon="3.55163">
        <ele>293.34</ele>
        <time>2015-02-01T13:19:39Z</time>
      </trkpt>
      <trkpt lat="43.75077" lon="3.5516">
        <ele>294.78</ele>
        <time>2015-02-01T13:19:43Z</time>
      </trkpt>
      <trkpt lat="43.75075" lon="3.55155">
        <ele>294.3</ele>
        <time>2015-02-01T13:19:48Z</time>
      </trkpt>
      <trkpt lat="43.75072" lon="3.55152">
        <ele>294.3</ele>
        <time>2015-02-01T13:20:01Z</time>
      </trkpt>
      <trkpt lat="43.75071" lon="3.5515">
        <ele>294.3</ele>
        <time>2015-02-01T13:20:04Z</time>
      </trkpt>
      <trkpt lat="43.75068" lon="3.55141">
        <ele>289.97</ele>
        <time>2015-02-01T13:20:13Z</time>
      </trkpt>
      <trkpt lat="43.75069" lon="3.55141">
        <ele>295.74</ele>
        <time>2015-02-01T13:20:14Z</time>
      </trkpt>
      <trkpt lat="43.75069" lon="3.5514">
        <ele>292.38</ele>
        <time>2015-02-01T13:20:15Z</time>
      </trkpt>
      <trkpt lat="43.75069" lon="3.5514">
        <ele>296.22</ele>
        <time>2015-02-01T13:20:16Z</time>
      </trkpt>
      <trkpt lat="43.75069" lon="3.5514">
        <ele>290.94</ele>
        <time>2015-02-01T13:20:17Z</time>
      </trkpt>
      <trkpt lat="43.75068" lon="3.5514">
        <ele>301.51</ele>
        <time>2015-02-01T13:20:18Z</time>
      </trkpt>
      <trkpt lat="43.75068" lon="3.5514">
        <ele>297.67</ele>
        <time>2015-02-01T13:20:19Z</time>
      </trkpt>
      <trkpt lat="43.7507" lon="3.5514">
        <ele>293.82</ele>
        <time>2015-02-01T13:20:25Z</time>
      </trkpt>
      <trkpt lat="43.7507" lon="3.5514">
        <ele>298.15</ele>
        <time>2015-02-01T13:20:26Z</time>
      </trkpt>
      <trkpt lat="43.75074" lon="3.55136">
        <ele>295.26</ele>
        <time>2015-02-01T13:20:36Z</time>
      </trkpt>
      <trkpt lat="43.7507" lon="3.55134">
        <ele>296.7</ele>
        <time>2015-02-01T13:20:46Z</time>
      </trkpt>
      <trkpt lat="43.75071" lon="3.55135">
        <ele>296.22</ele>
        <time>2015-02-01T13:20:53Z</time>
      </trkpt>
      <trkpt lat="43.75074" lon="3.55135">
        <ele>297.18</ele>
        <time>2015-02-01T13:20:56Z</time>
      </trkpt>
      <trkpt lat="43.75077" lon="3.55144">
        <ele>298.15</ele>
        <time>2015-02-01T13:21:04Z</time>
      </trkpt>
      <trkpt lat="43.75076" lon="3.55145">
        <ele>297.67</ele>
        <time>2015-02-01T13:21:21Z</time>
      </trkpt>
      <trkpt lat="43.75074" lon="3.55138">
        <ele>296.22</ele>
        <time>2015-02-01T13:21:28Z</time>
      </trkpt>
      <trkpt lat="43.75072" lon="3.55133">
        <ele>296.7</ele>
        <time>2015-02-01T13:21:33Z</time>
      </trkpt>
      <trkpt lat="43.75069" lon="3.55125">
        <ele>294.78</ele>
        <time>2015-02-01T13:21:41Z</time>
      </trkpt>
      <trkpt lat="43.75068" lon="3.5512">
        <ele>293.82</ele>
        <time>2015-02-01T13:21:51Z</time>
      </trkpt>
      <trkpt lat="43.75069" lon="3.55114">
        <ele>293.34</ele>
        <time>2015-02-01T13:22:06Z</time>
      </trkpt>
      <trkpt lat="43.7507" lon="3.5511">
        <ele>293.34</ele>
        <time>2015-02-01T13:22:18Z</time>
      </trkpt>
      <trkpt lat="43.75072" lon="3.55109">
        <ele>296.22</ele>
        <time>2015-02-01T13:22:29Z</time>
      </trkpt>
      <trkpt lat="43.75075" lon="3.55109">
        <ele>295.74</ele>
        <time>2015-02-01T13:22:45Z</time>
      </trkpt>
      <trkpt lat="43.75075" lon="3.551">
        <ele>296.7</ele>
        <time>2015-02-01T13:22:58Z</time>
      </trkpt>
      <trkpt lat="43.75084" lon="3.55092">
        <ele>294.78</ele>
        <time>2015-02-01T13:23:16Z</time>
      </trkpt>
      <trkpt lat="43.75084" lon="3.551">
        <ele>296.22</ele>
        <time>2015-02-01T13:23:35Z</time>
      </trkpt>
      <trkpt lat="43.75081" lon="3.55102">
        <ele>295.74</ele>
        <time>2015-02-01T13:23:59Z</time>
      </trkpt>
      <trkpt lat="43.7508" lon="3.551">
        <ele>297.18</ele>
        <time>2015-02-01T13:24:18Z</time>
      </trkpt>
      <trkpt lat="43.75081" lon="3.55105">
        <ele>296.7</ele>
        <time>2015-02-01T13:24:47Z</time>
      </trkpt>
      <trkpt lat="43.75085" lon="3.55098">
        <ele>297.67</ele>
        <time>2015-02-01T13:25:13Z</time>
      </trkpt>
      <trkpt lat="43.75086" lon="3.55097">
        <ele>297.67</ele>
        <time>2015-02-01T13:25:37Z</time>
      </trkpt>
      <trkpt lat="43.75084" lon="3.55104">
        <ele>297.18</ele>
        <time>2015-02-01T13:26:02Z</time>
      </trkpt>
      <trkpt lat="43.75081" lon="3.55101">
        <ele>296.22</ele>
        <time>2015-02-01T13:26:29Z</time>
      </trkpt>
      <trkpt lat="43.75081" lon="3.55101">
        <ele>295.26</ele>
        <time>2015-02-01T13:26:36Z</time>
      </trkpt>
      <trkpt lat="43.7508" lon="3.55103">
        <ele>298.15</ele>
        <time>2015-02-01T13:26:44Z</time>
      </trkpt>
      <trkpt lat="43.75081" lon="3.55099">
        <ele>298.15</ele>
        <time>2015-02-01T13:27:06Z</time>
      </trkpt>
      <trkpt lat="43.75078" lon="3.551">
        <ele>297.67</ele>
        <time>2015-02-01T13:27:36Z</time>
      </trkpt>
      <trkpt lat="43.75078" lon="3.55105">
        <ele>297.67</ele>
        <time>2015-02-01T13:28:02Z</time>
      </trkpt>
      <trkpt lat="43.75079" lon="3.55103">
        <ele>297.18</ele>
        <time>2015-02-01T13:28:25Z</time>
      </trkpt>
      <trkpt lat="43.75077" lon="3.55104">
        <ele>293.82</ele>
        <time>2015-02-01T13:28:47Z</time>
      </trkpt>
      <trkpt lat="43.75076" lon="3.55104">
        <ele>299.11</ele>
        <time>2015-02-01T13:28:48Z</time>
      </trkpt>
      <trkpt lat="43.7507" lon="3.55107">
        <ele>298.15</ele>
        <time>2015-02-01T13:28:53Z</time>
      </trkpt>
      <trkpt lat="43.75065" lon="3.55104">
        <ele>295.26</ele>
        <time>2015-02-01T13:29:05Z</time>
      </trkpt>
      <trkpt lat="43.75064" lon="3.55106">
        <ele>292.38</ele>
        <time>2015-02-01T13:29:20Z</time>
      </trkpt>
      <trkpt lat="43.75064" lon="3.55105">
        <ele>290.94</ele>
        <time>2015-02-01T13:29:33Z</time>
      </trkpt>
      <trkpt lat="43.75063" lon="3.55106">
        <ele>289.97</ele>
        <time>2015-02-01T13:29:46Z</time>
      </trkpt>
      <trkpt lat="43.75064" lon="3.55102">
        <ele>288.53</ele>
        <time>2015-02-01T13:30:01Z</time>
      </trkpt>
      <trkpt lat="43.75064" lon="3.55096">
        <ele>287.09</ele>
        <time>2015-02-01T13:30:16Z</time>
      </trkpt>
      <trkpt lat="43.75064" lon="3.55097">
        <ele>285.65</ele>
        <time>2015-02-01T13:30:37Z</time>
      </trkpt>
      <trkpt lat="43.75064" lon="3.55098">
        <ele>287.57</ele>
        <time>2015-02-01T13:31:00Z</time>
      </trkpt>
      <trkpt lat="43.75063" lon="3.551">
        <ele>289.01</ele>
        <time>2015-02-01T13:31:26Z</time>
      </trkpt>
      <trkpt lat="43.75062" lon="3.55102">
        <ele>288.53</ele>
        <time>2015-02-01T13:31:49Z</time>
      </trkpt>
      <trkpt lat="43.75063" lon="3.55103">
        <ele>286.61</ele>
        <time>2015-02-01T13:32:15Z</time>
      </trkpt>
      <trkpt lat="43.75064" lon="3.55104">
        <ele>287.09</ele>
        <time>2015-02-01T13:32:37Z</time>
      </trkpt>
      <trkpt lat="43.75064" lon="3.55103">
        <ele>288.05</ele>
        <time>2015-02-01T13:33:07Z</time>
      </trkpt>
      <trkpt lat="43.75063" lon="3.55104">
        <ele>285.17</ele>
        <time>2015-02-01T13:33:35Z</time>
      </trkpt>
      <trkpt lat="43.75064" lon="3.55103">
        <ele>289.01</ele>
        <time>2015-02-01T13:33:50Z</time>
      </trkpt>
      <trkpt lat="43.75064" lon="3.55103">
        <ele>289.01</ele>
        <time>2015-02-01T13:33:51Z</time>
      </trkpt>
      <trkpt lat="43.7506" lon="3.55103">
        <ele>289.01</ele>
        <time>2015-02-01T13:34:27Z</time>
      </trkpt>
      <trkpt lat="43.7506" lon="3.55103">
        <ele>287.57</ele>
        <time>2015-02-01T13:34:30Z</time>
      </trkpt>
      <trkpt lat="43.7506" lon="3.55103">
        <ele>288.53</ele>
        <time>2015-02-01T13:34:57Z</time>
      </trkpt>
      <trkpt lat="43.75062" lon="3.55102">
        <ele>288.05</ele>
        <time>2015-02-01T13:35:27Z</time>
      </trkpt>
      <trkpt lat="43.7506" lon="3.55101">
        <ele>288.05</ele>
        <time>2015-02-01T13:36:01Z</time>
      </trkpt>
      <trkpt lat="43.75059" lon="3.55102">
        <ele>287.57</ele>
        <time>2015-02-01T13:36:27Z</time>
      </trkpt>
      <trkpt lat="43.7506" lon="3.55103">
        <ele>288.53</ele>
        <time>2015-02-01T13:36:52Z</time>
      </trkpt>
      <trkpt lat="43.7506" lon="3.55101">
        <ele>290.94</ele>
        <time>2015-02-01T13:37:18Z</time>
      </trkpt>
      <trkpt lat="43.75061" lon="3.55101">
        <ele>289.97</ele>
        <time>2015-02-01T13:37:45Z</time>
      </trkpt>
      <trkpt lat="43.75061" lon="3.55101">
        <ele>289.97</ele>
        <time>2015-02-01T13:38:05Z</time>
      </trkpt>
      <trkpt lat="43.75063" lon="3.551">
        <ele>288.53</ele>
        <time>2015-02-01T13:38:26Z</time>
      </trkpt>
      <trkpt lat="43.75063" lon="3.551">
        <ele>288.53</ele>
        <time>2015-02-01T13:38:48Z</time>
      </trkpt>
      <trkpt lat="43.75063" lon="3.55099">
        <ele>288.53</ele>
        <time>2015-02-01T13:39:19Z</time>
      </trkpt>
      <trkpt lat="43.75063" lon="3.55095">
        <ele>288.53</ele>
        <time>2015-02-01T13:39:38Z</time>
      </trkpt>
      <trkpt lat="43.75061" lon="3.55094">
        <ele>288.53</ele>
        <time>2015-02-01T13:39:41Z</time>
      </trkpt>
      <trkpt lat="43.75059" lon="3.55093">
        <ele>287.09</ele>
        <time>2015-02-01T13:39:44Z</time>
      </trkpt>
      <trkpt lat="43.75054" lon="3.55094">
        <ele>286.13</ele>
        <time>2015-02-01T13:39:54Z</time>
      </trkpt>
      <trkpt lat="43.75053" lon="3.55088">
        <ele>285.17</ele>
        <time>2015-02-01T13:40:13Z</time>
      </trkpt>
      <trkpt lat="43.75049" lon="3.55079">
        <ele>286.61</ele>
        <time>2015-02-01T13:40:26Z</time>
      </trkpt>
      <trkpt lat="43.75048" lon="3.55078">
        <ele>286.61</ele>
        <time>2015-02-01T13:40:29Z</time>
      </trkpt>
      <trkpt lat="43.75044" lon="3.55074">
        <ele>286.61</ele>
        <time>2015-02-01T13:40:35Z</time>
      </trkpt>
      <trkpt lat="43.75042" lon="3.5507">
        <ele>287.57</ele>
        <time>2015-02-01T13:40:39Z</time>
      </trkpt>
      <trkpt lat="43.7504" lon="3.55068">
        <ele>286.13</ele>
        <time>2015-02-01T13:40:43Z</time>
      </trkpt>
      <trkpt lat="43.75032" lon="3.55061">
        <ele>284.21</ele>
        <time>2015-02-01T13:40:57Z</time>
      </trkpt>
      <trkpt lat="43.75025" lon="3.55058">
        <ele>283.73</ele>
        <time>2015-02-01T13:41:05Z</time>
      </trkpt>
      <trkpt lat="43.75023" lon="3.55052">
        <ele>284.21</ele>
        <time>2015-02-01T13:41:09Z</time>
      </trkpt>
      <trkpt lat="43.75017" lon="3.55043">
        <ele>283.73</ele>
        <time>2015-02-01T13:41:19Z</time>
      </trkpt>
      <trkpt lat="43.75009" lon="3.5503">
        <ele>283.25</ele>
        <time>2015-02-01T13:41:31Z</time>
      </trkpt>
      <trkpt lat="43.75001" lon="3.55024">
        <ele>283.25</ele>
        <time>2015-02-01T13:41:41Z</time>
      </trkpt>
      <trkpt lat="43.74997" lon="3.55023">
        <ele>283.73</ele>
        <time>2015-02-01T13:41:45Z</time>
      </trkpt>
      <trkpt lat="43.74994" lon="3.55019">
        <ele>281.32</ele>
        <time>2015-02-01T13:41:51Z</time>
      </trkpt>
      <trkpt lat="43.74991" lon="3.55015">
        <ele>278.92</ele>
        <time>2015-02-01T13:42:02Z</time>
      </trkpt>
      <trkpt lat="43.74991" lon="3.55015">
        <ele>279.4</ele>
        <time>2015-02-01T13:42:03Z</time>
      </trkpt>
      <trkpt lat="43.74991" lon="3.5501">
        <ele>278.92</ele>
        <time>2015-02-01T13:42:07Z</time>
      </trkpt>
      <trkpt lat="43.74991" lon="3.54997">
        <ele>277</ele>
        <time>2015-02-01T13:42:17Z</time>
      </trkpt>
      <trkpt lat="43.74993" lon="3.54994">
        <ele>278.44</ele>
        <time>2015-02-01T13:42:28Z</time>
      </trkpt>
      <trkpt lat="43.74993" lon="3.54993">
        <ele>275.56</ele>
        <time>2015-02-01T13:42:35Z</time>
      </trkpt>
      <trkpt lat="43.74993" lon="3.5499">
        <ele>275.56</ele>
        <time>2015-02-01T13:42:44Z</time>
      </trkpt>
      <trkpt lat="43.74994" lon="3.54984">
        <ele>272.67</ele>
        <time>2015-02-01T13:42:49Z</time>
      </trkpt>
      <trkpt lat="43.74996" lon="3.54982">
        <ele>272.19</ele>
        <time>2015-02-01T13:42:51Z</time>
      </trkpt>
      <trkpt lat="43.74997" lon="3.5498">
        <ele>271.23</ele>
        <time>2015-02-01T13:42:53Z</time>
      </trkpt>
      <trkpt lat="43.74998" lon="3.54979">
        <ele>272.19</ele>
        <time>2015-02-01T13:42:54Z</time>
      </trkpt>
      <trkpt lat="43.75001" lon="3.54976">
        <ele>275.07</ele>
        <time>2015-02-01T13:42:57Z</time>
      </trkpt>
      <trkpt lat="43.75001" lon="3.54975">
        <ele>274.59</ele>
        <time>2015-02-01T13:42:58Z</time>
      </trkpt>
      <trkpt lat="43.75001" lon="3.54962">
        <ele>274.59</ele>
        <time>2015-02-01T13:43:07Z</time>
      </trkpt>
      <trkpt lat="43.74999" lon="3.54953">
        <ele>275.56</ele>
        <time>2015-02-01T13:43:18Z</time>
      </trkpt>
      <trkpt lat="43.74999" lon="3.54949">
        <ele>276.52</ele>
        <time>2015-02-01T13:43:41Z</time>
      </trkpt>
      <trkpt lat="43.74998" lon="3.54949">
        <ele>274.59</ele>
        <time>2015-02-01T13:44:04Z</time>
      </trkpt>
      <trkpt lat="43.74997" lon="3.5495">
        <ele>274.59</ele>
        <time>2015-02-01T13:44:35Z</time>
      </trkpt>
      <trkpt lat="43.74996" lon="3.5495">
        <ele>273.63</ele>
        <time>2015-02-01T13:44:49Z</time>
      </trkpt>
      <trkpt lat="43.74997" lon="3.54947">
        <ele>274.59</ele>
        <time>2015-02-01T13:44:51Z</time>
      </trkpt>
      <trkpt lat="43.74999" lon="3.54943">
        <ele>274.11</ele>
        <time>2015-02-01T13:44:54Z</time>
      </trkpt>
      <trkpt lat="43.75001" lon="3.54938">
        <ele>274.59</ele>
        <time>2015-02-01T13:44:57Z</time>
      </trkpt>
      <trkpt lat="43.75009" lon="3.54925">
        <ele>274.59</ele>
        <time>2015-02-01T13:45:08Z</time>
      </trkpt>
      <trkpt lat="43.7501" lon="3.54922">
        <ele>275.07</ele>
        <time>2015-02-01T13:45:17Z</time>
      </trkpt>
      <trkpt lat="43.75013" lon="3.54919">
        <ele>276.52</ele>
        <time>2015-02-01T13:45:20Z</time>
      </trkpt>
      <trkpt lat="43.75014" lon="3.54918">
        <ele>276.04</ele>
        <time>2015-02-01T13:45:21Z</time>
      </trkpt>
      <trkpt lat="43.75022" lon="3.54904">
        <ele>275.07</ele>
        <time>2015-02-01T13:45:32Z</time>
      </trkpt>
      <trkpt lat="43.75025" lon="3.54892">
        <ele>276.04</ele>
        <time>2015-02-01T13:45:43Z</time>
      </trkpt>
      <trkpt lat="43.75025" lon="3.54887">
        <ele>275.56</ele>
        <time>2015-02-01T13:45:47Z</time>
      </trkpt>
      <trkpt lat="43.75027" lon="3.54884">
        <ele>276.04</ele>
        <time>2015-02-01T13:45:50Z</time>
      </trkpt>
      <trkpt lat="43.7503" lon="3.54879">
        <ele>276.04</ele>
        <time>2015-02-01T13:45:55Z</time>
      </trkpt>
      <trkpt lat="43.75032" lon="3.54874">
        <ele>277</ele>
        <time>2015-02-01T13:45:59Z</time>
      </trkpt>
      <trkpt lat="43.75039" lon="3.54866">
        <ele>277.96</ele>
        <time>2015-02-01T13:46:10Z</time>
      </trkpt>
      <trkpt lat="43.7504" lon="3.54863">
        <ele>278.44</ele>
        <time>2015-02-01T13:46:12Z</time>
      </trkpt>
      <trkpt lat="43.75048" lon="3.54852">
        <ele>277.96</ele>
        <time>2015-02-01T13:46:24Z</time>
      </trkpt>
      <trkpt lat="43.75052" lon="3.54848">
        <ele>281.32</ele>
        <time>2015-02-01T13:46:30Z</time>
      </trkpt>
      <trkpt lat="43.75053" lon="3.54848">
        <ele>279.4</ele>
        <time>2015-02-01T13:46:31Z</time>
      </trkpt>
      <trkpt lat="43.75064" lon="3.54842">
        <ele>279.88</ele>
        <time>2015-02-01T13:46:44Z</time>
      </trkpt>
      <trkpt lat="43.75075" lon="3.54838">
        <ele>280.36</ele>
        <time>2015-02-01T13:46:56Z</time>
      </trkpt>
      <trkpt lat="43.7508" lon="3.54828">
        <ele>280.36</ele>
        <time>2015-02-01T13:47:07Z</time>
      </trkpt>
      <trkpt lat="43.75091" lon="3.54818">
        <ele>281.32</ele>
        <time>2015-02-01T13:47:18Z</time>
      </trkpt>
      <trkpt lat="43.75097" lon="3.54816">
        <ele>281.32</ele>
        <time>2015-02-01T13:47:29Z</time>
      </trkpt>
      <trkpt lat="43.75105" lon="3.54816">
        <ele>280.36</ele>
        <time>2015-02-01T13:47:42Z</time>
      </trkpt>
      <trkpt lat="43.75109" lon="3.54815">
        <ele>280.84</ele>
        <time>2015-02-01T13:48:00Z</time>
      </trkpt>
      <trkpt lat="43.75113" lon="3.54813">
        <ele>281.32</ele>
        <time>2015-02-01T13:48:14Z</time>
      </trkpt>
      <trkpt lat="43.75113" lon="3.54813">
        <ele>277</ele>
        <time>2015-02-01T13:48:16Z</time>
      </trkpt>
      <trkpt lat="43.75113" lon="3.54812">
        <ele>284.21</ele>
        <time>2015-02-01T13:48:17Z</time>
      </trkpt>
      <trkpt lat="43.75113" lon="3.54812">
        <ele>277.96</ele>
        <time>2015-02-01T13:48:18Z</time>
      </trkpt>
      <trkpt lat="43.75113" lon="3.54812">
        <ele>282.28</ele>
        <time>2015-02-01T13:48:19Z</time>
      </trkpt>
      <trkpt lat="43.75119" lon="3.54812">
        <ele>280.36</ele>
        <time>2015-02-01T13:48:28Z</time>
      </trkpt>
      <trkpt lat="43.75121" lon="3.54812">
        <ele>280.84</ele>
        <time>2015-02-01T13:48:31Z</time>
      </trkpt>
      <trkpt lat="43.75123" lon="3.54812">
        <ele>282.28</ele>
        <time>2015-02-01T13:48:34Z</time>
      </trkpt>
      <trkpt lat="43.75131" lon="3.54811">
        <ele>280.84</ele>
        <time>2015-02-01T13:48:48Z</time>
      </trkpt>
      <trkpt lat="43.75136" lon="3.54808">
        <ele>283.25</ele>
        <time>2015-02-01T13:48:59Z</time>
      </trkpt>
      <trkpt lat="43.75137" lon="3.54807">
        <ele>283.73</ele>
        <time>2015-02-01T13:49:01Z</time>
      </trkpt>
      <trkpt lat="43.75142" lon="3.54803">
        <ele>283.73</ele>
        <time>2015-02-01T13:49:09Z</time>
      </trkpt>
      <trkpt lat="43.75144" lon="3.54801">
        <ele>285.17</ele>
        <time>2015-02-01T13:49:11Z</time>
      </trkpt>
      <trkpt lat="43.75146" lon="3.54798">
        <ele>284.69</ele>
        <time>2015-02-01T13:49:15Z</time>
      </trkpt>
      <trkpt lat="43.75149" lon="3.54795">
        <ele>286.13</ele>
        <time>2015-02-01T13:49:24Z</time>
      </trkpt>
      <trkpt lat="43.75153" lon="3.54785">
        <ele>285.17</ele>
        <time>2015-02-01T13:49:35Z</time>
      </trkpt>
      <trkpt lat="43.75154" lon="3.54775">
        <ele>285.17</ele>
        <time>2015-02-01T13:49:47Z</time>
      </trkpt>
      <trkpt lat="43.75157" lon="3.54771">
        <ele>285.65</ele>
        <time>2015-02-01T13:50:01Z</time>
      </trkpt>
      <trkpt lat="43.75158" lon="3.54762">
        <ele>287.09</ele>
        <time>2015-02-01T13:50:14Z</time>
      </trkpt>
      <trkpt lat="43.75164" lon="3.54758">
        <ele>287.57</ele>
        <time>2015-02-01T13:50:24Z</time>
      </trkpt>
      <trkpt lat="43.75164" lon="3.54757">
        <ele>287.09</ele>
        <time>2015-02-01T13:50:25Z</time>
      </trkpt>
      <trkpt lat="43.75169" lon="3.54751">
        <ele>285.17</ele>
        <time>2015-02-01T13:50:37Z</time>
      </trkpt>
      <trkpt lat="43.75171" lon="3.54745">
        <ele>286.13</ele>
        <time>2015-02-01T13:50:50Z</time>
      </trkpt>
      <trkpt lat="43.75171" lon="3.54745">
        <ele>288.05</ele>
        <time>2015-02-01T13:50:55Z</time>
      </trkpt>
      <trkpt lat="43.75173" lon="3.54747">
        <ele>289.01</ele>
        <time>2015-02-01T13:51:12Z</time>
      </trkpt>
      <trkpt lat="43.75176" lon="3.54745">
        <ele>288.05</ele>
        <time>2015-02-01T13:51:18Z</time>
      </trkpt>
      <trkpt lat="43.75177" lon="3.54744">
        <ele>287.57</ele>
        <time>2015-02-01T13:51:20Z</time>
      </trkpt>
      <trkpt lat="43.75178" lon="3.54735">
        <ele>289.49</ele>
        <time>2015-02-01T13:51:33Z</time>
      </trkpt>
      <trkpt lat="43.75179" lon="3.5473">
        <ele>288.53</ele>
        <time>2015-02-01T13:51:48Z</time>
      </trkpt>
      <trkpt lat="43.7518" lon="3.54724">
        <ele>289.97</ele>
        <time>2015-02-01T13:52:06Z</time>
      </trkpt>
      <trkpt lat="43.75182" lon="3.54721">
        <ele>293.34</ele>
        <time>2015-02-01T13:52:15Z</time>
      </trkpt>
      <trkpt lat="43.75188" lon="3.54712">
        <ele>293.34</ele>
        <time>2015-02-01T13:52:28Z</time>
      </trkpt>
      <trkpt lat="43.75194" lon="3.54704">
        <ele>293.82</ele>
        <time>2015-02-01T13:52:43Z</time>
      </trkpt>
      <trkpt lat="43.75199" lon="3.547">
        <ele>294.78</ele>
        <time>2015-02-01T13:52:56Z</time>
      </trkpt>
      <trkpt lat="43.75205" lon="3.54693">
        <ele>294.3</ele>
        <time>2015-02-01T13:53:10Z</time>
      </trkpt>
      <trkpt lat="43.75208" lon="3.54685">
        <ele>297.18</ele>
        <time>2015-02-01T13:53:21Z</time>
      </trkpt>
      <trkpt lat="43.7521" lon="3.54684">
        <ele>293.34</ele>
        <time>2015-02-01T13:53:28Z</time>
      </trkpt>
      <trkpt lat="43.7521" lon="3.54684">
        <ele>299.11</ele>
        <time>2015-02-01T13:53:29Z</time>
      </trkpt>
      <trkpt lat="43.75211" lon="3.54679">
        <ele>299.11</ele>
        <time>2015-02-01T13:53:42Z</time>
      </trkpt>
      <trkpt lat="43.75211" lon="3.54677">
        <ele>298.63</ele>
        <time>2015-02-01T13:53:57Z</time>
      </trkpt>
      <trkpt lat="43.75212" lon="3.54673">
        <ele>299.59</ele>
        <time>2015-02-01T13:54:11Z</time>
      </trkpt>
      <trkpt lat="43.75214" lon="3.54671">
        <ele>300.07</ele>
        <time>2015-02-01T13:54:22Z</time>
      </trkpt>
      <trkpt lat="43.75215" lon="3.54665">
        <ele>299.11</ele>
        <time>2015-02-01T13:54:39Z</time>
      </trkpt>
      <trkpt lat="43.75216" lon="3.54663">
        <ele>297.67</ele>
        <time>2015-02-01T13:54:44Z</time>
      </trkpt>
      <trkpt lat="43.75219" lon="3.54662">
        <ele>301.51</ele>
        <time>2015-02-01T13:54:51Z</time>
      </trkpt>
      <trkpt lat="43.7522" lon="3.54661">
        <ele>301.51</ele>
        <time>2015-02-01T13:54:52Z</time>
      </trkpt>
      <trkpt lat="43.75222" lon="3.5466">
        <ele>300.55</ele>
        <time>2015-02-01T13:54:57Z</time>
      </trkpt>
      <trkpt lat="43.75224" lon="3.54655">
        <ele>303.91</ele>
        <time>2015-02-01T13:55:08Z</time>
      </trkpt>
      <trkpt lat="43.75228" lon="3.54649">
        <ele>305.84</ele>
        <time>2015-02-01T13:55:22Z</time>
      </trkpt>
      <trkpt lat="43.75231" lon="3.54648">
        <ele>304.88</ele>
        <time>2015-02-01T13:55:33Z</time>
      </trkpt>
      <trkpt lat="43.75233" lon="3.54647">
        <ele>304.88</ele>
        <time>2015-02-01T13:55:38Z</time>
      </trkpt>
      <trkpt lat="43.75234" lon="3.54645">
        <ele>303.43</ele>
        <time>2015-02-01T13:55:43Z</time>
      </trkpt>
      <trkpt lat="43.75239" lon="3.54644">
        <ele>304.88</ele>
        <time>2015-02-01T13:55:53Z</time>
      </trkpt>
      <trkpt lat="43.75243" lon="3.54646">
        <ele>305.84</ele>
        <time>2015-02-01T13:55:57Z</time>
      </trkpt>
      <trkpt lat="43.75248" lon="3.54645">
        <ele>306.8</ele>
        <time>2015-02-01T13:56:04Z</time>
      </trkpt>
      <trkpt lat="43.75258" lon="3.54643">
        <ele>306.8</ele>
        <time>2015-02-01T13:56:17Z</time>
      </trkpt>
      <trkpt lat="43.75264" lon="3.54637">
        <ele>305.84</ele>
        <time>2015-02-01T13:56:29Z</time>
      </trkpt>
      <trkpt lat="43.75267" lon="3.54633">
        <ele>309.2</ele>
        <time>2015-02-01T13:56:40Z</time>
      </trkpt>
      <trkpt lat="43.75267" lon="3.54632">
        <ele>309.68</ele>
        <time>2015-02-01T13:56:44Z</time>
      </trkpt>
      <trkpt lat="43.75268" lon="3.54633">
        <ele>308.24</ele>
        <time>2015-02-01T13:56:47Z</time>
      </trkpt>
      <trkpt lat="43.75269" lon="3.54633">
        <ele>306.8</ele>
        <time>2015-02-01T13:56:49Z</time>
      </trkpt>
      <trkpt lat="43.7527" lon="3.54634">
        <ele>309.2</ele>
        <time>2015-02-01T13:56:51Z</time>
      </trkpt>
      <trkpt lat="43.75271" lon="3.54634">
        <ele>308.24</ele>
        <time>2015-02-01T13:56:53Z</time>
      </trkpt>
      <trkpt lat="43.75277" lon="3.54637">
        <ele>305.36</ele>
        <time>2015-02-01T13:57:04Z</time>
      </trkpt>
      <trkpt lat="43.75282" lon="3.54637">
        <ele>301.03</ele>
        <time>2015-02-01T13:57:12Z</time>
      </trkpt>
      <trkpt lat="43.75283" lon="3.54638">
        <ele>308.72</ele>
        <time>2015-02-01T13:57:13Z</time>
      </trkpt>
      <trkpt lat="43.75283" lon="3.54638">
        <ele>305.36</ele>
        <time>2015-02-01T13:57:14Z</time>
      </trkpt>
      <trkpt lat="43.75284" lon="3.54636">
        <ele>309.68</ele>
        <time>2015-02-01T13:57:17Z</time>
      </trkpt>
      <trkpt lat="43.75284" lon="3.54636">
        <ele>307.28</ele>
        <time>2015-02-01T13:57:18Z</time>
      </trkpt>
      <trkpt lat="43.75285" lon="3.54634">
        <ele>306.8</ele>
        <time>2015-02-01T13:57:20Z</time>
      </trkpt>
      <trkpt lat="43.7529" lon="3.54626">
        <ele>308.72</ele>
        <time>2015-02-01T13:57:33Z</time>
      </trkpt>
      <trkpt lat="43.7529" lon="3.54624">
        <ele>310.16</ele>
        <time>2015-02-01T13:57:35Z</time>
      </trkpt>
      <trkpt lat="43.75294" lon="3.54616">
        <ele>310.64</ele>
        <time>2015-02-01T13:57:48Z</time>
      </trkpt>
      <trkpt lat="43.75297" lon="3.54604">
        <ele>306.8</ele>
        <time>2015-02-01T13:58:00Z</time>
      </trkpt>
      <trkpt lat="43.75297" lon="3.54603">
        <ele>312.09</ele>
        <time>2015-02-01T13:58:01Z</time>
      </trkpt>
      <trkpt lat="43.753" lon="3.54595">
        <ele>315.45</ele>
        <time>2015-02-01T13:58:13Z</time>
      </trkpt>
      <trkpt lat="43.753" lon="3.54595">
        <ele>312.09</ele>
        <time>2015-02-01T13:58:14Z</time>
      </trkpt>
      <trkpt lat="43.753" lon="3.54595">
        <ele>316.89</ele>
        <time>2015-02-01T13:58:15Z</time>
      </trkpt>
      <trkpt lat="43.75301" lon="3.5459">
        <ele>313.05</ele>
        <time>2015-02-01T13:58:21Z</time>
      </trkpt>
      <trkpt lat="43.75304" lon="3.54583">
        <ele>314.49</ele>
        <time>2015-02-01T13:58:32Z</time>
      </trkpt>
      <trkpt lat="43.75304" lon="3.54576">
        <ele>315.93</ele>
        <time>2015-02-01T13:58:49Z</time>
      </trkpt>
      <trkpt lat="43.75306" lon="3.5457">
        <ele>317.85</ele>
        <time>2015-02-01T13:59:03Z</time>
      </trkpt>
      <trkpt lat="43.75306" lon="3.54563">
        <ele>317.37</ele>
        <time>2015-02-01T13:59:15Z</time>
      </trkpt>
      <trkpt lat="43.75305" lon="3.54563">
        <ele>318.33</ele>
        <time>2015-02-01T13:59:17Z</time>
      </trkpt>
      <trkpt lat="43.75308" lon="3.5456">
        <ele>317.85</ele>
        <time>2015-02-01T13:59:40Z</time>
      </trkpt>
      <trkpt lat="43.75308" lon="3.54558">
        <ele>318.33</ele>
        <time>2015-02-01T13:59:44Z</time>
      </trkpt>
      <trkpt lat="43.7531" lon="3.54554">
        <ele>318.81</ele>
        <time>2015-02-01T13:59:58Z</time>
      </trkpt>
      <trkpt lat="43.75313" lon="3.5455">
        <ele>320.74</ele>
        <time>2015-02-01T14:00:10Z</time>
      </trkpt>
      <trkpt lat="43.75314" lon="3.54543">
        <ele>320.74</ele>
        <time>2015-02-01T14:00:20Z</time>
      </trkpt>
      <trkpt lat="43.75314" lon="3.54541">
        <ele>324.1</ele>
        <time>2015-02-01T14:00:23Z</time>
      </trkpt>
      <trkpt lat="43.75314" lon="3.54541">
        <ele>320.26</ele>
        <time>2015-02-01T14:00:24Z</time>
      </trkpt>
      <trkpt lat="43.75315" lon="3.54537">
        <ele>316.41</ele>
        <time>2015-02-01T14:00:33Z</time>
      </trkpt>
      <trkpt lat="43.75315" lon="3.54536">
        <ele>322.66</ele>
        <time>2015-02-01T14:00:34Z</time>
      </trkpt>
      <trkpt lat="43.75315" lon="3.54534">
        <ele>316.89</ele>
        <time>2015-02-01T14:00:38Z</time>
      </trkpt>
      <trkpt lat="43.75315" lon="3.54534">
        <ele>324.1</ele>
        <time>2015-02-01T14:00:39Z</time>
      </trkpt>
      <trkpt lat="43.75315" lon="3.54529">
        <ele>320.26</ele>
        <time>2015-02-01T14:00:48Z</time>
      </trkpt>
      <trkpt lat="43.75315" lon="3.54525">
        <ele>318.81</ele>
        <time>2015-02-01T14:00:51Z</time>
      </trkpt>
      <trkpt lat="43.75315" lon="3.54523">
        <ele>320.74</ele>
        <time>2015-02-01T14:00:53Z</time>
      </trkpt>
      <trkpt lat="43.75315" lon="3.54519">
        <ele>325.54</ele>
        <time>2015-02-01T14:00:58Z</time>
      </trkpt>
      <trkpt lat="43.75315" lon="3.54518">
        <ele>321.22</ele>
        <time>2015-02-01T14:00:59Z</time>
      </trkpt>
      <trkpt lat="43.75315" lon="3.54518">
        <ele>324.58</ele>
        <time>2015-02-01T14:01:00Z</time>
      </trkpt>
      <trkpt lat="43.75316" lon="3.54517">
        <ele>321.7</ele>
        <time>2015-02-01T14:01:08Z</time>
      </trkpt>
      <trkpt lat="43.75315" lon="3.54517">
        <ele>326.02</ele>
        <time>2015-02-01T14:01:09Z</time>
      </trkpt>
      <trkpt lat="43.75315" lon="3.54515">
        <ele>322.18</ele>
        <time>2015-02-01T14:01:16Z</time>
      </trkpt>
      <trkpt lat="43.75315" lon="3.54514">
        <ele>325.54</ele>
        <time>2015-02-01T14:01:17Z</time>
      </trkpt>
      <trkpt lat="43.75313" lon="3.5451">
        <ele>326.02</ele>
        <time>2015-02-01T14:01:32Z</time>
      </trkpt>
      <trkpt lat="43.75314" lon="3.54515">
        <ele>324.1</ele>
        <time>2015-02-01T14:01:55Z</time>
      </trkpt>
      <trkpt lat="43.75313" lon="3.54514">
        <ele>326.99</ele>
        <time>2015-02-01T14:01:58Z</time>
      </trkpt>
      <trkpt lat="43.75315" lon="3.54507">
        <ele>328.91</ele>
        <time>2015-02-01T14:02:11Z</time>
      </trkpt>
      <trkpt lat="43.75312" lon="3.54506">
        <ele>329.39</ele>
        <time>2015-02-01T14:02:26Z</time>
      </trkpt>
      <trkpt lat="43.75308" lon="3.54509">
        <ele>330.83</ele>
        <time>2015-02-01T14:02:40Z</time>
      </trkpt>
      <trkpt lat="43.75306" lon="3.54511">
        <ele>330.83</ele>
        <time>2015-02-01T14:02:50Z</time>
      </trkpt>
      <trkpt lat="43.75304" lon="3.54512">
        <ele>334.2</ele>
        <time>2015-02-01T14:02:57Z</time>
      </trkpt>
      <trkpt lat="43.75304" lon="3.54513">
        <ele>335.16</ele>
        <time>2015-02-01T14:03:03Z</time>
      </trkpt>
      <trkpt lat="43.75301" lon="3.54514">
        <ele>338.52</ele>
        <time>2015-02-01T14:03:18Z</time>
      </trkpt>
      <trkpt lat="43.753" lon="3.54514">
        <ele>333.71</ele>
        <time>2015-02-01T14:03:20Z</time>
      </trkpt>
      <trkpt lat="43.753" lon="3.54514">
        <ele>337.56</ele>
        <time>2015-02-01T14:03:21Z</time>
      </trkpt>
      <trkpt lat="43.75299" lon="3.54514">
        <ele>338.52</ele>
        <time>2015-02-01T14:03:25Z</time>
      </trkpt>
      <trkpt lat="43.75299" lon="3.54513">
        <ele>338.04</ele>
        <time>2015-02-01T14:03:27Z</time>
      </trkpt>
      <trkpt lat="43.75298" lon="3.54507">
        <ele>337.08</ele>
        <time>2015-02-01T14:03:42Z</time>
      </trkpt>
      <trkpt lat="43.75296" lon="3.54507">
        <ele>340.44</ele>
        <time>2015-02-01T14:03:49Z</time>
      </trkpt>
      <trkpt lat="43.75295" lon="3.54506">
        <ele>339</ele>
        <time>2015-02-01T14:03:50Z</time>
      </trkpt>
      <trkpt lat="43.75294" lon="3.54503">
        <ele>340.44</ele>
        <time>2015-02-01T14:04:11Z</time>
      </trkpt>
      <trkpt lat="43.75293" lon="3.54504">
        <ele>338.52</ele>
        <time>2015-02-01T14:04:20Z</time>
      </trkpt>
      <trkpt lat="43.75293" lon="3.54504">
        <ele>338.52</ele>
        <time>2015-02-01T14:04:41Z</time>
      </trkpt>
      <trkpt lat="43.75293" lon="3.54504">
        <ele>341.89</ele>
        <time>2015-02-01T14:04:44Z</time>
      </trkpt>
      <trkpt lat="43.75295" lon="3.54503">
        <ele>339</ele>
        <time>2015-02-01T14:04:59Z</time>
      </trkpt>
      <trkpt lat="43.75295" lon="3.54503">
        <ele>343.33</ele>
        <time>2015-02-01T14:05:00Z</time>
      </trkpt>
      <trkpt lat="43.75296" lon="3.54503">
        <ele>343.81</ele>
        <time>2015-02-01T14:05:15Z</time>
      </trkpt>
      <trkpt lat="43.75292" lon="3.54503">
        <ele>343.81</ele>
        <time>2015-02-01T14:05:32Z</time>
      </trkpt>
      <trkpt lat="43.75291" lon="3.54502">
        <ele>345.25</ele>
        <time>2015-02-01T14:05:46Z</time>
      </trkpt>
      <trkpt lat="43.75287" lon="3.54503">
        <ele>349.1</ele>
        <time>2015-02-01T14:05:59Z</time>
      </trkpt>
      <trkpt lat="43.75286" lon="3.54503">
        <ele>345.73</ele>
        <time>2015-02-01T14:06:06Z</time>
      </trkpt>
      <trkpt lat="43.75286" lon="3.54502">
        <ele>346.69</ele>
        <time>2015-02-01T14:06:18Z</time>
      </trkpt>
      <trkpt lat="43.75287" lon="3.54499">
        <ele>345.73</ele>
        <time>2015-02-01T14:06:34Z</time>
      </trkpt>
      <trkpt lat="43.75287" lon="3.54497">
        <ele>347.17</ele>
        <time>2015-02-01T14:06:46Z</time>
      </trkpt>
      <trkpt lat="43.75285" lon="3.54495">
        <ele>350.06</ele>
        <time>2015-02-01T14:06:55Z</time>
      </trkpt>
      <trkpt lat="43.75283" lon="3.54494">
        <ele>350.54</ele>
        <time>2015-02-01T14:07:06Z</time>
      </trkpt>
      <trkpt lat="43.7528" lon="3.54494">
        <ele>350.54</ele>
        <time>2015-02-01T14:07:19Z</time>
      </trkpt>
      <trkpt lat="43.75277" lon="3.54492">
        <ele>352.46</ele>
        <time>2015-02-01T14:07:30Z</time>
      </trkpt>
      <trkpt lat="43.75277" lon="3.54492">
        <ele>352.46</ele>
        <time>2015-02-01T14:07:31Z</time>
      </trkpt>
      <trkpt lat="43.75276" lon="3.54489">
        <ele>354.86</ele>
        <time>2015-02-01T14:07:43Z</time>
      </trkpt>
      <trkpt lat="43.75274" lon="3.54489">
        <ele>354.38</ele>
        <time>2015-02-01T14:07:59Z</time>
      </trkpt>
      <trkpt lat="43.75271" lon="3.5449">
        <ele>356.31</ele>
        <time>2015-02-01T14:08:13Z</time>
      </trkpt>
      <trkpt lat="43.75267" lon="3.54491">
        <ele>357.75</ele>
        <time>2015-02-01T14:08:25Z</time>
      </trkpt>
      <trkpt lat="43.75268" lon="3.54494">
        <ele>358.23</ele>
        <time>2015-02-01T14:08:56Z</time>
      </trkpt>
      <trkpt lat="43.75267" lon="3.54492">
        <ele>356.31</ele>
        <time>2015-02-01T14:09:29Z</time>
      </trkpt>
      <trkpt lat="43.75268" lon="3.54491">
        <ele>358.23</ele>
        <time>2015-02-01T14:09:48Z</time>
      </trkpt>
      <trkpt lat="43.75269" lon="3.5449">
        <ele>357.75</ele>
        <time>2015-02-01T14:10:07Z</time>
      </trkpt>
      <trkpt lat="43.75268" lon="3.54488">
        <ele>359.19</ele>
        <time>2015-02-01T14:10:12Z</time>
      </trkpt>
      <trkpt lat="43.75266" lon="3.54486">
        <ele>355.83</ele>
        <time>2015-02-01T14:10:29Z</time>
      </trkpt>
      <trkpt lat="43.75265" lon="3.54485">
        <ele>359.19</ele>
        <time>2015-02-01T14:10:30Z</time>
      </trkpt>
      <trkpt lat="43.75265" lon="3.54486">
        <ele>355.83</ele>
        <time>2015-02-01T14:10:33Z</time>
      </trkpt>
      <trkpt lat="43.75263" lon="3.54485">
        <ele>357.75</ele>
        <time>2015-02-01T14:10:38Z</time>
      </trkpt>
      <trkpt lat="43.75262" lon="3.54486">
        <ele>360.15</ele>
        <time>2015-02-01T14:10:47Z</time>
      </trkpt>
      <trkpt lat="43.75261" lon="3.54485">
        <ele>357.27</ele>
        <time>2015-02-01T14:10:49Z</time>
      </trkpt>
      <trkpt lat="43.75261" lon="3.54486">
        <ele>361.59</ele>
        <time>2015-02-01T14:10:51Z</time>
      </trkpt>
      <trkpt lat="43.7526" lon="3.54486">
        <ele>360.63</ele>
        <time>2015-02-01T14:10:52Z</time>
      </trkpt>
      <trkpt lat="43.75258" lon="3.54484">
        <ele>363.04</ele>
        <time>2015-02-01T14:11:06Z</time>
      </trkpt>
      <trkpt lat="43.75257" lon="3.54483">
        <ele>366.88</ele>
        <time>2015-02-01T14:11:09Z</time>
      </trkpt>
      <trkpt lat="43.75257" lon="3.54483">
        <ele>364.96</ele>
        <time>2015-02-01T14:11:10Z</time>
      </trkpt>
      <trkpt lat="43.75256" lon="3.54483">
        <ele>364</ele>
        <time>2015-02-01T14:11:12Z</time>
      </trkpt>
      <trkpt lat="43.75253" lon="3.54483">
        <ele>367.36</ele>
        <time>2015-02-01T14:11:21Z</time>
      </trkpt>
      <trkpt lat="43.75253" lon="3.54483">
        <ele>366.4</ele>
        <time>2015-02-01T14:11:22Z</time>
      </trkpt>
      <trkpt lat="43.75255" lon="3.54483">
        <ele>366.4</ele>
        <time>2015-02-01T14:11:48Z</time>
      </trkpt>
      <trkpt lat="43.75255" lon="3.54483">
        <ele>365.92</ele>
        <time>2015-02-01T14:12:08Z</time>
      </trkpt>
      <trkpt lat="43.75253" lon="3.54482">
        <ele>364.48</ele>
        <time>2015-02-01T14:12:37Z</time>
      </trkpt>
      <trkpt lat="43.75251" lon="3.54481">
        <ele>364.96</ele>
        <time>2015-02-01T14:12:48Z</time>
      </trkpt>
      <trkpt lat="43.75249" lon="3.54481">
        <ele>365.44</ele>
        <time>2015-02-01T14:12:56Z</time>
      </trkpt>
      <trkpt lat="43.75249" lon="3.5448">
        <ele>361.11</ele>
        <time>2015-02-01T14:12:58Z</time>
      </trkpt>
      <trkpt lat="43.75248" lon="3.5448">
        <ele>369.76</ele>
        <time>2015-02-01T14:12:59Z</time>
      </trkpt>
      <trkpt lat="43.75249" lon="3.5448">
        <ele>367.36</ele>
        <time>2015-02-01T14:13:00Z</time>
      </trkpt>
      <trkpt lat="43.7525" lon="3.54482">
        <ele>367.84</ele>
        <time>2015-02-01T14:13:18Z</time>
      </trkpt>
      <trkpt lat="43.75248" lon="3.54481">
        <ele>365.44</ele>
        <time>2015-02-01T14:13:48Z</time>
      </trkpt>
      <trkpt lat="43.75248" lon="3.54481">
        <ele>371.69</ele>
        <time>2015-02-01T14:13:49Z</time>
      </trkpt>
      <trkpt lat="43.75248" lon="3.54482">
        <ele>366.88</ele>
        <time>2015-02-01T14:13:50Z</time>
      </trkpt>
      <trkpt lat="43.75247" lon="3.54482">
        <ele>370.24</ele>
        <time>2015-02-01T14:13:51Z</time>
      </trkpt>
      <trkpt lat="43.75246" lon="3.54483">
        <ele>368.32</ele>
        <time>2015-02-01T14:13:55Z</time>
      </trkpt>
      <trkpt lat="43.75243" lon="3.54486">
        <ele>369.76</ele>
        <time>2015-02-01T14:14:10Z</time>
      </trkpt>
      <trkpt lat="43.75243" lon="3.54488">
        <ele>369.76</ele>
        <time>2015-02-01T14:14:17Z</time>
      </trkpt>
      <trkpt lat="43.75239" lon="3.54489">
        <ele>371.69</ele>
        <time>2015-02-01T14:14:24Z</time>
      </trkpt>
      <trkpt lat="43.75236" lon="3.5449">
        <ele>370.24</ele>
        <time>2015-02-01T14:14:38Z</time>
      </trkpt>
      <trkpt lat="43.75234" lon="3.5449">
        <ele>373.61</ele>
        <time>2015-02-01T14:14:51Z</time>
      </trkpt>
      <trkpt lat="43.75234" lon="3.5449">
        <ele>372.17</ele>
        <time>2015-02-01T14:14:52Z</time>
      </trkpt>
      <trkpt lat="43.7523" lon="3.54489">
        <ele>372.17</ele>
        <time>2015-02-01T14:14:59Z</time>
      </trkpt>
      <trkpt lat="43.7523" lon="3.54487">
        <ele>374.09</ele>
        <time>2015-02-01T14:15:03Z</time>
      </trkpt>
      <trkpt lat="43.75229" lon="3.54485">
        <ele>375.05</ele>
        <time>2015-02-01T14:15:05Z</time>
      </trkpt>
      <trkpt lat="43.75229" lon="3.54483">
        <ele>373.61</ele>
        <time>2015-02-01T14:15:11Z</time>
      </trkpt>
      <trkpt lat="43.75229" lon="3.54482">
        <ele>375.53</ele>
        <time>2015-02-01T14:15:15Z</time>
      </trkpt>
      <trkpt lat="43.75228" lon="3.54478">
        <ele>376.49</ele>
        <time>2015-02-01T14:15:30Z</time>
      </trkpt>
      <trkpt lat="43.75226" lon="3.54473">
        <ele>376.97</ele>
        <time>2015-02-01T14:15:39Z</time>
      </trkpt>
      <trkpt lat="43.75226" lon="3.54471">
        <ele>377.94</ele>
        <time>2015-02-01T14:15:41Z</time>
      </trkpt>
      <trkpt lat="43.75227" lon="3.54465">
        <ele>376.97</ele>
        <time>2015-02-01T14:15:52Z</time>
      </trkpt>
      <trkpt lat="43.75227" lon="3.54461">
        <ele>378.9</ele>
        <time>2015-02-01T14:16:01Z</time>
      </trkpt>
      <trkpt lat="43.75226" lon="3.54459">
        <ele>380.34</ele>
        <time>2015-02-01T14:16:04Z</time>
      </trkpt>
      <trkpt lat="43.75226" lon="3.54455">
        <ele>381.3</ele>
        <time>2015-02-01T14:16:15Z</time>
      </trkpt>
      <trkpt lat="43.75225" lon="3.54455">
        <ele>376.49</ele>
        <time>2015-02-01T14:16:28Z</time>
      </trkpt>
      <trkpt lat="43.75224" lon="3.54455">
        <ele>380.34</ele>
        <time>2015-02-01T14:16:30Z</time>
      </trkpt>
      <trkpt lat="43.75225" lon="3.54456">
        <ele>375.53</ele>
        <time>2015-02-01T14:16:33Z</time>
      </trkpt>
      <trkpt lat="43.75225" lon="3.54456">
        <ele>376.49</ele>
        <time>2015-02-01T14:16:34Z</time>
      </trkpt>
      <trkpt lat="43.75226" lon="3.54456">
        <ele>379.38</ele>
        <time>2015-02-01T14:16:37Z</time>
      </trkpt>
      <trkpt lat="43.75226" lon="3.54455">
        <ele>380.34</ele>
        <time>2015-02-01T14:16:39Z</time>
      </trkpt>
      <trkpt lat="43.75225" lon="3.54452">
        <ele>383.7</ele>
        <time>2015-02-01T14:16:54Z</time>
      </trkpt>
      <trkpt lat="43.75223" lon="3.54451">
        <ele>384.18</ele>
        <time>2015-02-01T14:17:07Z</time>
      </trkpt>
      <trkpt lat="43.75223" lon="3.5445">
        <ele>383.7</ele>
        <time>2015-02-01T14:17:25Z</time>
      </trkpt>
      <trkpt lat="43.75227" lon="3.54447">
        <ele>383.7</ele>
        <time>2015-02-01T14:17:40Z</time>
      </trkpt>
      <trkpt lat="43.75228" lon="3.54447">
        <ele>383.7</ele>
        <time>2015-02-01T14:17:59Z</time>
      </trkpt>
      <trkpt lat="43.75228" lon="3.54446">
        <ele>382.74</ele>
        <time>2015-02-01T14:18:20Z</time>
      </trkpt>
      <trkpt lat="43.75229" lon="3.54444">
        <ele>382.74</ele>
        <time>2015-02-01T14:18:39Z</time>
      </trkpt>
      <trkpt lat="43.75239" lon="3.54438">
        <ele>383.22</ele>
        <time>2015-02-01T14:18:49Z</time>
      </trkpt>
      <trkpt lat="43.75241" lon="3.54437">
        <ele>383.22</ele>
        <time>2015-02-01T14:18:51Z</time>
      </trkpt>
      <trkpt lat="43.75251" lon="3.54426">
        <ele>382.74</ele>
        <time>2015-02-01T14:19:03Z</time>
      </trkpt>
      <trkpt lat="43.75254" lon="3.54422">
        <ele>382.26</ele>
        <time>2015-02-01T14:19:06Z</time>
      </trkpt>
      <trkpt lat="43.75256" lon="3.54419">
        <ele>382.74</ele>
        <time>2015-02-01T14:19:09Z</time>
      </trkpt>
      <trkpt lat="43.75264" lon="3.54412">
        <ele>382.74</ele>
        <time>2015-02-01T14:19:19Z</time>
      </trkpt>
      <trkpt lat="43.75277" lon="3.54406">
        <ele>383.7</ele>
        <time>2015-02-01T14:19:30Z</time>
      </trkpt>
      <trkpt lat="43.75286" lon="3.54401">
        <ele>383.22</ele>
        <time>2015-02-01T14:19:41Z</time>
      </trkpt>
      <trkpt lat="43.75294" lon="3.54397">
        <ele>381.78</ele>
        <time>2015-02-01T14:19:52Z</time>
      </trkpt>
      <trkpt lat="43.75295" lon="3.54396">
        <ele>381.3</ele>
        <time>2015-02-01T14:20:07Z</time>
      </trkpt>
      <trkpt lat="43.75304" lon="3.54392">
        <ele>381.78</ele>
        <time>2015-02-01T14:20:18Z</time>
      </trkpt>
      <trkpt lat="43.75309" lon="3.5439">
        <ele>380.82</ele>
        <time>2015-02-01T14:20:24Z</time>
      </trkpt>
      <trkpt lat="43.75314" lon="3.54389">
        <ele>379.86</ele>
        <time>2015-02-01T14:20:29Z</time>
      </trkpt>
      <trkpt lat="43.75317" lon="3.54387">
        <ele>379.86</ele>
        <time>2015-02-01T14:20:31Z</time>
      </trkpt>
      <trkpt lat="43.75325" lon="3.54376">
        <ele>380.82</ele>
        <time>2015-02-01T14:20:42Z</time>
      </trkpt>
      <trkpt lat="43.75327" lon="3.54372">
        <ele>379.86</ele>
        <time>2015-02-01T14:20:45Z</time>
      </trkpt>
      <trkpt lat="43.75329" lon="3.54366">
        <ele>381.3</ele>
        <time>2015-02-01T14:20:50Z</time>
      </trkpt>
      <trkpt lat="43.75332" lon="3.54362">
        <ele>381.3</ele>
        <time>2015-02-01T14:20:53Z</time>
      </trkpt>
      <trkpt lat="43.75335" lon="3.54357">
        <ele>377.45</ele>
        <time>2015-02-01T14:20:59Z</time>
      </trkpt>
      <trkpt lat="43.75336" lon="3.54357">
        <ele>377.45</ele>
        <time>2015-02-01T14:21:00Z</time>
      </trkpt>
      <trkpt lat="43.75339" lon="3.54354">
        <ele>380.34</ele>
        <time>2015-02-01T14:21:03Z</time>
      </trkpt>
      <trkpt lat="43.75345" lon="3.54346">
        <ele>379.86</ele>
        <time>2015-02-01T14:21:10Z</time>
      </trkpt>
      <trkpt lat="43.75358" lon="3.5434">
        <ele>378.9</ele>
        <time>2015-02-01T14:21:22Z</time>
      </trkpt>
      <trkpt lat="43.75363" lon="3.54337">
        <ele>378.9</ele>
        <time>2015-02-01T14:21:27Z</time>
      </trkpt>
      <trkpt lat="43.75375" lon="3.54325">
        <ele>377.94</ele>
        <time>2015-02-01T14:21:38Z</time>
      </trkpt>
      <trkpt lat="43.75383" lon="3.54326">
        <ele>379.38</ele>
        <time>2015-02-01T14:21:44Z</time>
      </trkpt>
      <trkpt lat="43.75393" lon="3.54332">
        <ele>379.38</ele>
        <time>2015-02-01T14:21:54Z</time>
      </trkpt>
      <trkpt lat="43.75399" lon="3.54333">
        <ele>380.82</ele>
        <time>2015-02-01T14:21:59Z</time>
      </trkpt>
      <trkpt lat="43.75408" lon="3.54333">
        <ele>382.74</ele>
        <time>2015-02-01T14:22:09Z</time>
      </trkpt>
      <trkpt lat="43.75411" lon="3.54334">
        <ele>382.26</ele>
        <time>2015-02-01T14:22:12Z</time>
      </trkpt>
      <trkpt lat="43.75417" lon="3.5433">
        <ele>383.22</ele>
        <time>2015-02-01T14:22:18Z</time>
      </trkpt>
      <trkpt lat="43.75423" lon="3.54318">
        <ele>384.66</ele>
        <time>2015-02-01T14:22:26Z</time>
      </trkpt>
      <trkpt lat="43.7542" lon="3.54317">
        <ele>384.18</ele>
        <time>2015-02-01T14:22:29Z</time>
      </trkpt>
      <trkpt lat="43.75416" lon="3.54315">
        <ele>384.66</ele>
        <time>2015-02-01T14:22:34Z</time>
      </trkpt>
      <trkpt lat="43.75412" lon="3.54312">
        <ele>384.66</ele>
        <time>2015-02-01T14:22:37Z</time>
      </trkpt>
      <trkpt lat="43.75408" lon="3.54311">
        <ele>384.66</ele>
        <time>2015-02-01T14:22:44Z</time>
      </trkpt>
      <trkpt lat="43.75406" lon="3.54305">
        <ele>386.59</ele>
        <time>2015-02-01T14:22:54Z</time>
      </trkpt>
      <trkpt lat="43.75395" lon="3.54295">
        <ele>385.63</ele>
        <time>2015-02-01T14:23:06Z</time>
      </trkpt>
      <trkpt lat="43.75392" lon="3.54293">
        <ele>385.63</ele>
        <time>2015-02-01T14:23:09Z</time>
      </trkpt>
      <trkpt lat="43.7539" lon="3.54287">
        <ele>385.15</ele>
        <time>2015-02-01T14:23:13Z</time>
      </trkpt>
      <trkpt lat="43.7539" lon="3.5428">
        <ele>384.18</ele>
        <time>2015-02-01T14:23:18Z</time>
      </trkpt>
      <trkpt lat="43.75389" lon="3.54273">
        <ele>385.15</ele>
        <time>2015-02-01T14:23:24Z</time>
      </trkpt>
      <trkpt lat="43.75395" lon="3.54268">
        <ele>386.59</ele>
        <time>2015-02-01T14:23:35Z</time>
      </trkpt>
      <trkpt lat="43.75387" lon="3.54259">
        <ele>385.63</ele>
        <time>2015-02-01T14:23:56Z</time>
      </trkpt>
      <trkpt lat="43.7539" lon="3.54257">
        <ele>387.07</ele>
        <time>2015-02-01T14:24:08Z</time>
      </trkpt>
      <trkpt lat="43.7539" lon="3.54266">
        <ele>387.55</ele>
        <time>2015-02-01T14:24:32Z</time>
      </trkpt>
      <trkpt lat="43.75386" lon="3.54272">
        <ele>384.66</ele>
        <time>2015-02-01T14:24:55Z</time>
      </trkpt>
      <trkpt lat="43.7539" lon="3.5427">
        <ele>386.59</ele>
        <time>2015-02-01T14:25:15Z</time>
      </trkpt>
      <trkpt lat="43.75395" lon="3.54274">
        <ele>387.07</ele>
        <time>2015-02-01T14:25:36Z</time>
      </trkpt>
      <trkpt lat="43.75399" lon="3.54275">
        <ele>386.59</ele>
        <time>2015-02-01T14:25:54Z</time>
      </trkpt>
      <trkpt lat="43.75391" lon="3.54278">
        <ele>387.07</ele>
        <time>2015-02-01T14:26:00Z</time>
      </trkpt>
      <trkpt lat="43.75389" lon="3.54281">
        <ele>387.55</ele>
        <time>2015-02-01T14:26:05Z</time>
      </trkpt>
      <trkpt lat="43.75391" lon="3.54295">
        <ele>385.63</ele>
        <time>2015-02-01T14:26:16Z</time>
      </trkpt>
      <trkpt lat="43.75392" lon="3.54297">
        <ele>385.63</ele>
        <time>2015-02-01T14:26:18Z</time>
      </trkpt>
      <trkpt lat="43.75401" lon="3.54305">
        <ele>388.99</ele>
        <time>2015-02-01T14:26:31Z</time>
      </trkpt>
      <trkpt lat="43.75402" lon="3.54306">
        <ele>385.63</ele>
        <time>2015-02-01T14:26:39Z</time>
      </trkpt>
      <trkpt lat="43.75404" lon="3.54308">
        <ele>384.66</ele>
        <time>2015-02-01T14:26:42Z</time>
      </trkpt>
      <trkpt lat="43.7541" lon="3.54312">
        <ele>386.11</ele>
        <time>2015-02-01T14:26:53Z</time>
      </trkpt>
      <trkpt lat="43.75411" lon="3.54313">
        <ele>386.11</ele>
        <time>2015-02-01T14:27:04Z</time>
      </trkpt>
      <trkpt lat="43.75411" lon="3.54314">
        <ele>386.59</ele>
        <time>2015-02-01T14:27:06Z</time>
      </trkpt>
      <trkpt lat="43.75415" lon="3.54316">
        <ele>385.63</ele>
        <time>2015-02-01T14:27:11Z</time>
      </trkpt>
      <trkpt lat="43.75424" lon="3.54316">
        <ele>385.63</ele>
        <time>2015-02-01T14:27:21Z</time>
      </trkpt>
      <trkpt lat="43.75424" lon="3.54314">
        <ele>384.66</ele>
        <time>2015-02-01T14:27:37Z</time>
      </trkpt>
      <trkpt lat="43.75426" lon="3.54313">
        <ele>386.11</ele>
        <time>2015-02-01T14:28:01Z</time>
      </trkpt>
      <trkpt lat="43.75425" lon="3.54309">
        <ele>386.11</ele>
        <time>2015-02-01T14:28:09Z</time>
      </trkpt>
      <trkpt lat="43.7543" lon="3.54308">
        <ele>389.47</ele>
        <time>2015-02-01T14:28:17Z</time>
      </trkpt>
      <trkpt lat="43.75433" lon="3.54307">
        <ele>389.95</ele>
        <time>2015-02-01T14:28:26Z</time>
      </trkpt>
      <trkpt lat="43.7544" lon="3.54301">
        <ele>392.84</ele>
        <time>2015-02-01T14:28:37Z</time>
      </trkpt>
      <trkpt lat="43.75441" lon="3.54296">
        <ele>392.36</ele>
        <time>2015-02-01T14:28:43Z</time>
      </trkpt>
      <trkpt lat="43.75446" lon="3.54294">
        <ele>393.32</ele>
        <time>2015-02-01T14:28:52Z</time>
      </trkpt>
      <trkpt lat="43.75447" lon="3.54294">
        <ele>394.28</ele>
        <time>2015-02-01T14:28:54Z</time>
      </trkpt>
      <trkpt lat="43.75449" lon="3.54292">
        <ele>396.2</ele>
        <time>2015-02-01T14:28:57Z</time>
      </trkpt>
      <trkpt lat="43.75451" lon="3.54287">
        <ele>399.08</ele>
        <time>2015-02-01T14:29:05Z</time>
      </trkpt>
      <trkpt lat="43.75456" lon="3.54282">
        <ele>401.01</ele>
        <time>2015-02-01T14:29:14Z</time>
      </trkpt>
      <trkpt lat="43.75456" lon="3.54281">
        <ele>401.97</ele>
        <time>2015-02-01T14:29:16Z</time>
      </trkpt>
      <trkpt lat="43.75462" lon="3.54279">
        <ele>401.01</ele>
        <time>2015-02-01T14:29:25Z</time>
      </trkpt>
      <trkpt lat="43.75464" lon="3.54279">
        <ele>402.45</ele>
        <time>2015-02-01T14:29:28Z</time>
      </trkpt>
      <trkpt lat="43.75469" lon="3.54279">
        <ele>400.53</ele>
        <time>2015-02-01T14:29:36Z</time>
      </trkpt>
      <trkpt lat="43.7547" lon="3.54276">
        <ele>401.01</ele>
        <time>2015-02-01T14:29:39Z</time>
      </trkpt>
      <trkpt lat="43.75468" lon="3.54273">
        <ele>403.41</ele>
        <time>2015-02-01T14:29:42Z</time>
      </trkpt>
      <trkpt lat="43.75463" lon="3.5427">
        <ele>405.81</ele>
        <time>2015-02-01T14:29:47Z</time>
      </trkpt>
      <trkpt lat="43.75463" lon="3.54268">
        <ele>406.77</ele>
        <time>2015-02-01T14:29:53Z</time>
      </trkpt>
      <trkpt lat="43.75464" lon="3.54269">
        <ele>406.77</ele>
        <time>2015-02-01T14:29:54Z</time>
      </trkpt>
      <trkpt lat="43.75466" lon="3.54269">
        <ele>406.77</ele>
        <time>2015-02-01T14:29:56Z</time>
      </trkpt>
      <trkpt lat="43.7547" lon="3.54268">
        <ele>406.29</ele>
        <time>2015-02-01T14:30:05Z</time>
      </trkpt>
      <trkpt lat="43.75468" lon="3.54263">
        <ele>407.26</ele>
        <time>2015-02-01T14:30:11Z</time>
      </trkpt>
      <trkpt lat="43.75461" lon="3.54258">
        <ele>408.7</ele>
        <time>2015-02-01T14:30:22Z</time>
      </trkpt>
      <trkpt lat="43.75458" lon="3.54254">
        <ele>408.7</ele>
        <time>2015-02-01T14:30:32Z</time>
      </trkpt>
      <trkpt lat="43.7546" lon="3.54255">
        <ele>410.62</ele>
        <time>2015-02-01T14:30:35Z</time>
      </trkpt>
      <trkpt lat="43.75463" lon="3.54255">
        <ele>412.06</ele>
        <time>2015-02-01T14:30:38Z</time>
      </trkpt>
      <trkpt lat="43.75464" lon="3.54255">
        <ele>410.62</ele>
        <time>2015-02-01T14:30:40Z</time>
      </trkpt>
      <trkpt lat="43.75466" lon="3.54255">
        <ele>410.14</ele>
        <time>2015-02-01T14:30:42Z</time>
      </trkpt>
      <trkpt lat="43.75471" lon="3.54257">
        <ele>413.02</ele>
        <time>2015-02-01T14:30:49Z</time>
      </trkpt>
      <trkpt lat="43.75467" lon="3.54247">
        <ele>414.47</ele>
        <time>2015-02-01T14:30:59Z</time>
      </trkpt>
      <trkpt lat="43.75464" lon="3.54246">
        <ele>414.47</ele>
        <time>2015-02-01T14:31:02Z</time>
      </trkpt>
      <trkpt lat="43.7546" lon="3.54244">
        <ele>414.47</ele>
        <time>2015-02-01T14:31:06Z</time>
      </trkpt>
      <trkpt lat="43.75457" lon="3.54243">
        <ele>414.47</ele>
        <time>2015-02-01T14:31:09Z</time>
      </trkpt>
      <trkpt lat="43.75457" lon="3.54241">
        <ele>415.43</ele>
        <time>2015-02-01T14:31:12Z</time>
      </trkpt>
      <trkpt lat="43.75459" lon="3.54239">
        <ele>416.87</ele>
        <time>2015-02-01T14:31:16Z</time>
      </trkpt>
      <trkpt lat="43.75461" lon="3.54238">
        <ele>417.83</ele>
        <time>2015-02-01T14:31:19Z</time>
      </trkpt>
      <trkpt lat="43.75463" lon="3.54238">
        <ele>418.79</ele>
        <time>2015-02-01T14:31:22Z</time>
      </trkpt>
      <trkpt lat="43.75469" lon="3.5424">
        <ele>418.31</ele>
        <time>2015-02-01T14:31:29Z</time>
      </trkpt>
      <trkpt lat="43.75472" lon="3.54242">
        <ele>419.27</ele>
        <time>2015-02-01T14:31:33Z</time>
      </trkpt>
      <trkpt lat="43.75478" lon="3.54241">
        <ele>419.75</ele>
        <time>2015-02-01T14:31:40Z</time>
      </trkpt>
      <trkpt lat="43.7548" lon="3.54238">
        <ele>422.16</ele>
        <time>2015-02-01T14:31:43Z</time>
      </trkpt>
      <trkpt lat="43.75479" lon="3.54234">
        <ele>422.16</ele>
        <time>2015-02-01T14:31:47Z</time>
      </trkpt>
      <trkpt lat="43.7547" lon="3.54228">
        <ele>423.12</ele>
        <time>2015-02-01T14:31:57Z</time>
      </trkpt>
      <trkpt lat="43.75467" lon="3.54226">
        <ele>422.64</ele>
        <time>2015-02-01T14:32:02Z</time>
      </trkpt>
      <trkpt lat="43.75465" lon="3.54224">
        <ele>423.12</ele>
        <time>2015-02-01T14:32:06Z</time>
      </trkpt>
      <trkpt lat="43.75469" lon="3.54224">
        <ele>425.04</ele>
        <time>2015-02-01T14:32:16Z</time>
      </trkpt>
      <trkpt lat="43.75472" lon="3.54227">
        <ele>425.52</ele>
        <time>2015-02-01T14:32:37Z</time>
      </trkpt>
      <trkpt lat="43.75473" lon="3.54227">
        <ele>425.04</ele>
        <time>2015-02-01T14:32:38Z</time>
      </trkpt>
      <trkpt lat="43.75477" lon="3.54227">
        <ele>425.52</ele>
        <time>2015-02-01T14:32:44Z</time>
      </trkpt>
      <trkpt lat="43.75481" lon="3.54227">
        <ele>426</ele>
        <time>2015-02-01T14:32:50Z</time>
      </trkpt>
      <trkpt lat="43.75481" lon="3.54226">
        <ele>425.04</ele>
        <time>2015-02-01T14:32:51Z</time>
      </trkpt>
      <trkpt lat="43.75484" lon="3.54225">
        <ele>428.89</ele>
        <time>2015-02-01T14:32:57Z</time>
      </trkpt>
      <trkpt lat="43.75487" lon="3.54223">
        <ele>430.33</ele>
        <time>2015-02-01T14:33:04Z</time>
      </trkpt>
      <trkpt lat="43.75489" lon="3.54223">
        <ele>428.89</ele>
        <time>2015-02-01T14:33:29Z</time>
      </trkpt>
      <trkpt lat="43.75489" lon="3.54225">
        <ele>429.37</ele>
        <time>2015-02-01T14:33:43Z</time>
      </trkpt>
      <trkpt lat="43.75489" lon="3.54225">
        <ele>429.85</ele>
        <time>2015-02-01T14:33:48Z</time>
      </trkpt>
      <trkpt lat="43.75487" lon="3.54224">
        <ele>433.21</ele>
        <time>2015-02-01T14:34:05Z</time>
      </trkpt>
      <trkpt lat="43.75487" lon="3.54221">
        <ele>434.17</ele>
        <time>2015-02-01T14:34:09Z</time>
      </trkpt>
      <trkpt lat="43.75488" lon="3.5422">
        <ele>431.77</ele>
        <time>2015-02-01T14:34:11Z</time>
      </trkpt>
      <trkpt lat="43.75489" lon="3.54215">
        <ele>431.29</ele>
        <time>2015-02-01T14:34:14Z</time>
      </trkpt>
      <trkpt lat="43.75489" lon="3.54212">
        <ele>433.21</ele>
        <time>2015-02-01T14:34:17Z</time>
      </trkpt>
      <trkpt lat="43.7549" lon="3.54211">
        <ele>434.65</ele>
        <time>2015-02-01T14:34:19Z</time>
      </trkpt>
      <trkpt lat="43.75491" lon="3.54209">
        <ele>431.29</ele>
        <time>2015-02-01T14:34:23Z</time>
      </trkpt>
      <trkpt lat="43.75491" lon="3.5421">
        <ele>431.77</ele>
        <time>2015-02-01T14:34:30Z</time>
      </trkpt>
      <trkpt lat="43.75493" lon="3.54212">
        <ele>429.85</ele>
        <time>2015-02-01T14:34:46Z</time>
      </trkpt>
      <trkpt lat="43.75493" lon="3.54211">
        <ele>428.4</ele>
        <time>2015-02-01T14:34:51Z</time>
      </trkpt>
      <trkpt lat="43.75494" lon="3.54209">
        <ele>429.85</ele>
        <time>2015-02-01T14:35:09Z</time>
      </trkpt>
      <trkpt lat="43.75494" lon="3.54203">
        <ele>429.37</ele>
        <time>2015-02-01T14:35:21Z</time>
      </trkpt>
      <trkpt lat="43.75492" lon="3.54201">
        <ele>430.81</ele>
        <time>2015-02-01T14:35:41Z</time>
      </trkpt>
      <trkpt lat="43.75492" lon="3.54198">
        <ele>431.77</ele>
        <time>2015-02-01T14:35:43Z</time>
      </trkpt>
      <trkpt lat="43.75492" lon="3.54196">
        <ele>431.77</ele>
        <time>2015-02-01T14:35:45Z</time>
      </trkpt>
      <trkpt lat="43.75491" lon="3.54189">
        <ele>429.37</ele>
        <time>2015-02-01T14:35:50Z</time>
      </trkpt>
      <trkpt lat="43.7549" lon="3.54185">
        <ele>430.33</ele>
        <time>2015-02-01T14:35:53Z</time>
      </trkpt>
      <trkpt lat="43.75489" lon="3.54177">
        <ele>430.81</ele>
        <time>2015-02-01T14:35:59Z</time>
      </trkpt>
      <trkpt lat="43.7549" lon="3.54172">
        <ele>432.25</ele>
        <time>2015-02-01T14:36:09Z</time>
      </trkpt>
      <trkpt lat="43.7549" lon="3.54171">
        <ele>431.77</ele>
        <time>2015-02-01T14:36:11Z</time>
      </trkpt>
      <trkpt lat="43.7549" lon="3.54163">
        <ele>432.73</ele>
        <time>2015-02-01T14:36:23Z</time>
      </trkpt>
      <trkpt lat="43.75491" lon="3.54162">
        <ele>430.33</ele>
        <time>2015-02-01T14:36:39Z</time>
      </trkpt>
      <trkpt lat="43.75491" lon="3.54161">
        <ele>428.4</ele>
        <time>2015-02-01T14:36:42Z</time>
      </trkpt>
      <trkpt lat="43.75491" lon="3.54161">
        <ele>430.81</ele>
        <time>2015-02-01T14:36:46Z</time>
      </trkpt>
      <trkpt lat="43.7549" lon="3.54157">
        <ele>433.69</ele>
        <time>2015-02-01T14:37:02Z</time>
      </trkpt>
      <trkpt lat="43.75487" lon="3.54156">
        <ele>432.25</ele>
        <time>2015-02-01T14:37:25Z</time>
      </trkpt>
      <trkpt lat="43.7549" lon="3.54157">
        <ele>432.25</ele>
        <time>2015-02-01T14:37:46Z</time>
      </trkpt>
      <trkpt lat="43.75492" lon="3.54156">
        <ele>430.81</ele>
        <time>2015-02-01T14:38:14Z</time>
      </trkpt>
      <trkpt lat="43.75487" lon="3.54151">
        <ele>432.25</ele>
        <time>2015-02-01T14:38:29Z</time>
      </trkpt>
      <trkpt lat="43.75487" lon="3.54149">
        <ele>431.77</ele>
        <time>2015-02-01T14:38:33Z</time>
      </trkpt>
      <trkpt lat="43.75486" lon="3.54136">
        <ele>434.17</ele>
        <time>2015-02-01T14:38:42Z</time>
      </trkpt>
      <trkpt lat="43.75487" lon="3.54133">
        <ele>434.17</ele>
        <time>2015-02-01T14:38:45Z</time>
      </trkpt>
      <trkpt lat="43.75487" lon="3.54127">
        <ele>433.69</ele>
        <time>2015-02-01T14:38:49Z</time>
      </trkpt>
      <trkpt lat="43.75488" lon="3.54116">
        <ele>433.69</ele>
        <time>2015-02-01T14:38:59Z</time>
      </trkpt>
      <trkpt lat="43.75488" lon="3.54115">
        <ele>433.21</ele>
        <time>2015-02-01T14:39:01Z</time>
      </trkpt>
      <trkpt lat="43.75489" lon="3.54112">
        <ele>434.17</ele>
        <time>2015-02-01T14:39:04Z</time>
      </trkpt>
      <trkpt lat="43.75488" lon="3.54108">
        <ele>434.65</ele>
        <time>2015-02-01T14:39:07Z</time>
      </trkpt>
      <trkpt lat="43.75489" lon="3.54104">
        <ele>436.1</ele>
        <time>2015-02-01T14:39:10Z</time>
      </trkpt>
      <trkpt lat="43.75492" lon="3.54093">
        <ele>436.1</ele>
        <time>2015-02-01T14:39:22Z</time>
      </trkpt>
      <trkpt lat="43.75494" lon="3.54081">
        <ele>438.02</ele>
        <time>2015-02-01T14:39:31Z</time>
      </trkpt>
      <trkpt lat="43.75499" lon="3.5407">
        <ele>437.54</ele>
        <time>2015-02-01T14:39:42Z</time>
      </trkpt>
      <trkpt lat="43.75505" lon="3.54059">
        <ele>439.94</ele>
        <time>2015-02-01T14:39:51Z</time>
      </trkpt>
      <trkpt lat="43.75513" lon="3.54046">
        <ele>439.46</ele>
        <time>2015-02-01T14:40:02Z</time>
      </trkpt>
      <trkpt lat="43.75514" lon="3.54046">
        <ele>438.98</ele>
        <time>2015-02-01T14:40:03Z</time>
      </trkpt>
      <trkpt lat="43.75517" lon="3.54045">
        <ele>438.5</ele>
        <time>2015-02-01T14:40:07Z</time>
      </trkpt>
      <trkpt lat="43.75523" lon="3.54052">
        <ele>438.02</ele>
        <time>2015-02-01T14:40:15Z</time>
      </trkpt>
      <trkpt lat="43.75526" lon="3.54055">
        <ele>439.46</ele>
        <time>2015-02-01T14:40:19Z</time>
      </trkpt>
      <trkpt lat="43.75529" lon="3.54053">
        <ele>439.94</ele>
        <time>2015-02-01T14:40:22Z</time>
      </trkpt>
      <trkpt lat="43.75533" lon="3.54048">
        <ele>442.82</ele>
        <time>2015-02-01T14:40:28Z</time>
      </trkpt>
      <trkpt lat="43.75538" lon="3.5404">
        <ele>442.82</ele>
        <time>2015-02-01T14:40:38Z</time>
      </trkpt>
      <trkpt lat="43.75538" lon="3.54039">
        <ele>441.38</ele>
        <time>2015-02-01T14:40:39Z</time>
      </trkpt>
      <trkpt lat="43.75538" lon="3.54035">
        <ele>442.34</ele>
        <time>2015-02-01T14:40:42Z</time>
      </trkpt>
      <trkpt lat="43.7554" lon="3.54032">
        <ele>443.31</ele>
        <time>2015-02-01T14:40:46Z</time>
      </trkpt>
      <trkpt lat="43.75541" lon="3.5403">
        <ele>444.27</ele>
        <time>2015-02-01T14:40:48Z</time>
      </trkpt>
      <trkpt lat="43.75544" lon="3.54021">
        <ele>445.71</ele>
        <time>2015-02-01T14:40:56Z</time>
      </trkpt>
      <trkpt lat="43.75547" lon="3.54019">
        <ele>447.15</ele>
        <time>2015-02-01T14:40:59Z</time>
      </trkpt>
      <trkpt lat="43.75549" lon="3.54018">
        <ele>448.59</ele>
        <time>2015-02-01T14:41:02Z</time>
      </trkpt>
      <trkpt lat="43.7555" lon="3.54017">
        <ele>447.63</ele>
        <time>2015-02-01T14:41:03Z</time>
      </trkpt>
      <trkpt lat="43.75555" lon="3.54009">
        <ele>450.52</ele>
        <time>2015-02-01T14:41:12Z</time>
      </trkpt>
      <trkpt lat="43.75555" lon="3.54007">
        <ele>450.52</ele>
        <time>2015-02-01T14:41:14Z</time>
      </trkpt>
      <trkpt lat="43.75556" lon="3.54002">
        <ele>448.59</ele>
        <time>2015-02-01T14:41:18Z</time>
      </trkpt>
      <trkpt lat="43.75557" lon="3.53999">
        <ele>449.55</ele>
        <time>2015-02-01T14:41:21Z</time>
      </trkpt>
      <trkpt lat="43.75559" lon="3.53996">
        <ele>451</ele>
        <time>2015-02-01T14:41:24Z</time>
      </trkpt>
      <trkpt lat="43.75563" lon="3.53989">
        <ele>451</ele>
        <time>2015-02-01T14:41:33Z</time>
      </trkpt>
      <trkpt lat="43.75565" lon="3.53984">
        <ele>453.4</ele>
        <time>2015-02-01T14:41:40Z</time>
      </trkpt>
      <trkpt lat="43.75567" lon="3.5398">
        <ele>455.32</ele>
        <time>2015-02-01T14:41:45Z</time>
      </trkpt>
      <trkpt lat="43.7557" lon="3.53972">
        <ele>456.28</ele>
        <time>2015-02-01T14:41:54Z</time>
      </trkpt>
      <trkpt lat="43.75571" lon="3.53967">
        <ele>457.72</ele>
        <time>2015-02-01T14:42:01Z</time>
      </trkpt>
      <trkpt lat="43.75574" lon="3.53959">
        <ele>458.69</ele>
        <time>2015-02-01T14:42:13Z</time>
      </trkpt>
      <trkpt lat="43.75579" lon="3.53956">
        <ele>460.13</ele>
        <time>2015-02-01T14:42:23Z</time>
      </trkpt>
      <trkpt lat="43.7558" lon="3.53956">
        <ele>461.09</ele>
        <time>2015-02-01T14:42:25Z</time>
      </trkpt>
      <trkpt lat="43.75583" lon="3.53954">
        <ele>462.05</ele>
        <time>2015-02-01T14:42:30Z</time>
      </trkpt>
      <trkpt lat="43.75578" lon="3.53948">
        <ele>463.01</ele>
        <time>2015-02-01T14:42:40Z</time>
      </trkpt>
      <trkpt lat="43.75577" lon="3.53945">
        <ele>464.93</ele>
        <time>2015-02-01T14:42:44Z</time>
      </trkpt>
      <trkpt lat="43.75579" lon="3.53944">
        <ele>465.42</ele>
        <time>2015-02-01T14:42:50Z</time>
      </trkpt>
      <trkpt lat="43.75581" lon="3.53944">
        <ele>465.9</ele>
        <time>2015-02-01T14:42:53Z</time>
      </trkpt>
      <trkpt lat="43.75588" lon="3.53944">
        <ele>465.9</ele>
        <time>2015-02-01T14:43:02Z</time>
      </trkpt>
      <trkpt lat="43.75593" lon="3.53943">
        <ele>468.3</ele>
        <time>2015-02-01T14:43:11Z</time>
      </trkpt>
      <trkpt lat="43.75596" lon="3.53943">
        <ele>468.3</ele>
        <time>2015-02-01T14:43:30Z</time>
      </trkpt>
      <trkpt lat="43.75598" lon="3.5394">
        <ele>467.82</ele>
        <time>2015-02-01T14:43:35Z</time>
      </trkpt>
      <trkpt lat="43.75603" lon="3.53919">
        <ele>469.26</ele>
        <time>2015-02-01T14:43:51Z</time>
      </trkpt>
      <trkpt lat="43.75603" lon="3.53917">
        <ele>469.74</ele>
        <time>2015-02-01T14:43:53Z</time>
      </trkpt>
      <trkpt lat="43.75606" lon="3.53912">
        <ele>471.18</ele>
        <time>2015-02-01T14:43:58Z</time>
      </trkpt>
      <trkpt lat="43.75618" lon="3.53902">
        <ele>473.59</ele>
        <time>2015-02-01T14:44:15Z</time>
      </trkpt>
      <trkpt lat="43.75619" lon="3.53901">
        <ele>473.11</ele>
        <time>2015-02-01T14:44:16Z</time>
      </trkpt>
      <trkpt lat="43.75632" lon="3.53896">
        <ele>473.11</ele>
        <time>2015-02-01T14:44:29Z</time>
      </trkpt>
      <trkpt lat="43.75641" lon="3.53887">
        <ele>473.11</ele>
        <time>2015-02-01T14:44:43Z</time>
      </trkpt>
      <trkpt lat="43.75643" lon="3.53887">
        <ele>474.07</ele>
        <time>2015-02-01T14:44:45Z</time>
      </trkpt>
      <trkpt lat="43.75648" lon="3.53881">
        <ele>474.07</ele>
        <time>2015-02-01T14:44:53Z</time>
      </trkpt>
      <trkpt lat="43.75648" lon="3.53874">
        <ele>475.03</ele>
        <time>2015-02-01T14:44:58Z</time>
      </trkpt>
      <trkpt lat="43.75657" lon="3.53865">
        <ele>474.07</ele>
        <time>2015-02-01T14:45:09Z</time>
      </trkpt>
      <trkpt lat="43.75658" lon="3.53863">
        <ele>472.63</ele>
        <time>2015-02-01T14:45:12Z</time>
      </trkpt>
      <trkpt lat="43.75658" lon="3.53859">
        <ele>468.78</ele>
        <time>2015-02-01T14:45:15Z</time>
      </trkpt>
      <trkpt lat="43.7566" lon="3.53859">
        <ele>472.63</ele>
        <time>2015-02-01T14:45:18Z</time>
      </trkpt>
      <trkpt lat="43.75661" lon="3.53859">
        <ele>472.63</ele>
        <time>2015-02-01T14:45:19Z</time>
      </trkpt>
      <trkpt lat="43.75661" lon="3.53859">
        <ele>468.3</ele>
        <time>2015-02-01T14:45:30Z</time>
      </trkpt>
      <trkpt lat="43.75661" lon="3.53858">
        <ele>472.63</ele>
        <time>2015-02-01T14:45:31Z</time>
      </trkpt>
      <trkpt lat="43.7566" lon="3.53858">
        <ele>472.14</ele>
        <time>2015-02-01T14:45:35Z</time>
      </trkpt>
      <trkpt lat="43.75665" lon="3.53855">
        <ele>473.11</ele>
        <time>2015-02-01T14:45:44Z</time>
      </trkpt>
      <trkpt lat="43.75672" lon="3.53854">
        <ele>475.03</ele>
        <time>2015-02-01T14:45:49Z</time>
      </trkpt>
      <trkpt lat="43.7568" lon="3.53853">
        <ele>474.55</ele>
        <time>2015-02-01T14:45:59Z</time>
      </trkpt>
      <trkpt lat="43.75685" lon="3.53853">
        <ele>475.99</ele>
        <time>2015-02-01T14:46:03Z</time>
      </trkpt>
      <trkpt lat="43.75687" lon="3.53854">
        <ele>476.95</ele>
        <time>2015-02-01T14:46:05Z</time>
      </trkpt>
      <trkpt lat="43.75688" lon="3.53854">
        <ele>476.95</ele>
        <time>2015-02-01T14:46:06Z</time>
      </trkpt>
      <trkpt lat="43.75691" lon="3.53853">
        <ele>477.43</ele>
        <time>2015-02-01T14:46:10Z</time>
      </trkpt>
      <trkpt lat="43.75695" lon="3.53852">
        <ele>480.32</ele>
        <time>2015-02-01T14:46:14Z</time>
      </trkpt>
      <trkpt lat="43.75697" lon="3.53852">
        <ele>480.32</ele>
        <time>2015-02-01T14:46:15Z</time>
      </trkpt>
      <trkpt lat="43.75699" lon="3.5385">
        <ele>481.28</ele>
        <time>2015-02-01T14:46:18Z</time>
      </trkpt>
      <trkpt lat="43.75705" lon="3.53847">
        <ele>482.72</ele>
        <time>2015-02-01T14:46:25Z</time>
      </trkpt>
      <trkpt lat="43.75709" lon="3.53849">
        <ele>483.2</ele>
        <time>2015-02-01T14:46:29Z</time>
      </trkpt>
      <trkpt lat="43.75711" lon="3.53851">
        <ele>483.68</ele>
        <time>2015-02-01T14:46:33Z</time>
      </trkpt>
      <trkpt lat="43.75713" lon="3.53846">
        <ele>484.16</ele>
        <time>2015-02-01T14:46:37Z</time>
      </trkpt>
      <trkpt lat="43.75713" lon="3.53842">
        <ele>484.16</ele>
        <time>2015-02-01T14:46:40Z</time>
      </trkpt>
      <trkpt lat="43.75707" lon="3.53836">
        <ele>483.68</ele>
        <time>2015-02-01T14:46:48Z</time>
      </trkpt>
      <trkpt lat="43.75708" lon="3.53831">
        <ele>485.6</ele>
        <time>2015-02-01T14:46:55Z</time>
      </trkpt>
      <trkpt lat="43.75712" lon="3.53832">
        <ele>486.08</ele>
        <time>2015-02-01T14:47:00Z</time>
      </trkpt>
      <trkpt lat="43.75718" lon="3.53834">
        <ele>487.05</ele>
        <time>2015-02-01T14:47:08Z</time>
      </trkpt>
      <trkpt lat="43.7572" lon="3.53834">
        <ele>487.05</ele>
        <time>2015-02-01T14:47:11Z</time>
      </trkpt>
      <trkpt lat="43.7572" lon="3.5383">
        <ele>487.53</ele>
        <time>2015-02-01T14:47:14Z</time>
      </trkpt>
      <trkpt lat="43.75719" lon="3.53827">
        <ele>487.53</ele>
        <time>2015-02-01T14:47:17Z</time>
      </trkpt>
      <trkpt lat="43.75715" lon="3.5382">
        <ele>490.41</ele>
        <time>2015-02-01T14:47:28Z</time>
      </trkpt>
      <trkpt lat="43.75718" lon="3.53818">
        <ele>491.85</ele>
        <time>2015-02-01T14:47:37Z</time>
      </trkpt>
      <trkpt lat="43.75723" lon="3.5382">
        <ele>492.33</ele>
        <time>2015-02-01T14:47:45Z</time>
      </trkpt>
      <trkpt lat="43.75724" lon="3.53819">
        <ele>492.81</ele>
        <time>2015-02-01T14:47:49Z</time>
      </trkpt>
      <trkpt lat="43.75722" lon="3.53811">
        <ele>496.18</ele>
        <time>2015-02-01T14:47:57Z</time>
      </trkpt>
      <trkpt lat="43.75716" lon="3.53805">
        <ele>498.58</ele>
        <time>2015-02-01T14:48:08Z</time>
      </trkpt>
      <trkpt lat="43.75717" lon="3.53801">
        <ele>500.98</ele>
        <time>2015-02-01T14:48:17Z</time>
      </trkpt>
      <trkpt lat="43.75719" lon="3.53801">
        <ele>500.5</ele>
        <time>2015-02-01T14:48:20Z</time>
      </trkpt>
      <trkpt lat="43.75723" lon="3.53803">
        <ele>501.95</ele>
        <time>2015-02-01T14:48:25Z</time>
      </trkpt>
      <trkpt lat="43.75721" lon="3.53797">
        <ele>501.95</ele>
        <time>2015-02-01T14:48:35Z</time>
      </trkpt>
      <trkpt lat="43.75721" lon="3.53793">
        <ele>500.02</ele>
        <time>2015-02-01T14:48:43Z</time>
      </trkpt>
      <trkpt lat="43.75722" lon="3.53789">
        <ele>501.46</ele>
        <time>2015-02-01T14:48:52Z</time>
      </trkpt>
      <trkpt lat="43.7572" lon="3.53788">
        <ele>502.91</ele>
        <time>2015-02-01T14:48:54Z</time>
      </trkpt>
      <trkpt lat="43.75713" lon="3.53788">
        <ele>504.83</ele>
        <time>2015-02-01T14:49:04Z</time>
      </trkpt>
      <trkpt lat="43.75712" lon="3.53779">
        <ele>506.75</ele>
        <time>2015-02-01T14:49:13Z</time>
      </trkpt>
      <trkpt lat="43.75715" lon="3.53775">
        <ele>505.79</ele>
        <time>2015-02-01T14:49:22Z</time>
      </trkpt>
      <trkpt lat="43.75717" lon="3.53777">
        <ele>507.23</ele>
        <time>2015-02-01T14:49:26Z</time>
      </trkpt>
      <trkpt lat="43.75719" lon="3.53777">
        <ele>508.67</ele>
        <time>2015-02-01T14:49:29Z</time>
      </trkpt>
      <trkpt lat="43.75719" lon="3.53773">
        <ele>508.67</ele>
        <time>2015-02-01T14:49:32Z</time>
      </trkpt>
      <trkpt lat="43.75718" lon="3.53769">
        <ele>508.67</ele>
        <time>2015-02-01T14:49:37Z</time>
      </trkpt>
      <trkpt lat="43.75715" lon="3.53759">
        <ele>509.16</ele>
        <time>2015-02-01T14:49:48Z</time>
      </trkpt>
      <trkpt lat="43.75717" lon="3.53758">
        <ele>508.19</ele>
        <time>2015-02-01T14:49:51Z</time>
      </trkpt>
      <trkpt lat="43.75719" lon="3.53759">
        <ele>510.12</ele>
        <time>2015-02-01T14:49:54Z</time>
      </trkpt>
      <trkpt lat="43.75721" lon="3.53762">
        <ele>510.12</ele>
        <time>2015-02-01T14:49:57Z</time>
      </trkpt>
      <trkpt lat="43.75724" lon="3.53768">
        <ele>511.08</ele>
        <time>2015-02-01T14:50:04Z</time>
      </trkpt>
      <trkpt lat="43.75725" lon="3.5377">
        <ele>511.56</ele>
        <time>2015-02-01T14:50:06Z</time>
      </trkpt>
      <trkpt lat="43.75727" lon="3.5377">
        <ele>513.48</ele>
        <time>2015-02-01T14:50:08Z</time>
      </trkpt>
      <trkpt lat="43.75727" lon="3.53758">
        <ele>514.92</ele>
        <time>2015-02-01T14:50:17Z</time>
      </trkpt>
      <trkpt lat="43.75726" lon="3.5375">
        <ele>513.96</ele>
        <time>2015-02-01T14:50:24Z</time>
      </trkpt>
      <trkpt lat="43.75717" lon="3.53743">
        <ele>514.92</ele>
        <time>2015-02-01T14:50:34Z</time>
      </trkpt>
      <trkpt lat="43.75717" lon="3.53738">
        <ele>517.33</ele>
        <time>2015-02-01T14:50:43Z</time>
      </trkpt>
      <trkpt lat="43.75719" lon="3.53738">
        <ele>517.81</ele>
        <time>2015-02-01T14:50:46Z</time>
      </trkpt>
      <trkpt lat="43.75726" lon="3.53743">
        <ele>519.25</ele>
        <time>2015-02-01T14:50:56Z</time>
      </trkpt>
      <trkpt lat="43.7573" lon="3.5375">
        <ele>519.73</ele>
        <time>2015-02-01T14:51:05Z</time>
      </trkpt>
      <trkpt lat="43.75734" lon="3.53752">
        <ele>521.65</ele>
        <time>2015-02-01T14:51:13Z</time>
      </trkpt>
      <trkpt lat="43.75739" lon="3.53757">
        <ele>523.09</ele>
        <time>2015-02-01T14:51:22Z</time>
      </trkpt>
      <trkpt lat="43.75745" lon="3.53765">
        <ele>524.06</ele>
        <time>2015-02-01T14:51:33Z</time>
      </trkpt>
      <trkpt lat="43.75745" lon="3.53766">
        <ele>524.06</ele>
        <time>2015-02-01T14:51:34Z</time>
      </trkpt>
      <trkpt lat="43.75749" lon="3.53776">
        <ele>525.5</ele>
        <time>2015-02-01T14:51:45Z</time>
      </trkpt>
      <trkpt lat="43.7575" lon="3.53778">
        <ele>526.46</ele>
        <time>2015-02-01T14:51:47Z</time>
      </trkpt>
      <trkpt lat="43.75755" lon="3.53782">
        <ele>528.38</ele>
        <time>2015-02-01T14:51:53Z</time>
      </trkpt>
      <trkpt lat="43.75757" lon="3.53783">
        <ele>528.38</ele>
        <time>2015-02-01T14:51:57Z</time>
      </trkpt>
      <trkpt lat="43.75757" lon="3.53779">
        <ele>529.82</ele>
        <time>2015-02-01T14:52:00Z</time>
      </trkpt>
      <trkpt lat="43.75754" lon="3.5377">
        <ele>529.34</ele>
        <time>2015-02-01T14:52:10Z</time>
      </trkpt>
      <trkpt lat="43.75754" lon="3.53767">
        <ele>529.82</ele>
        <time>2015-02-01T14:52:13Z</time>
      </trkpt>
      <trkpt lat="43.75755" lon="3.53763">
        <ele>530.79</ele>
        <time>2015-02-01T14:52:16Z</time>
      </trkpt>
      <trkpt lat="43.75755" lon="3.53758">
        <ele>532.71</ele>
        <time>2015-02-01T14:52:20Z</time>
      </trkpt>
      <trkpt lat="43.75756" lon="3.5375">
        <ele>533.19</ele>
        <time>2015-02-01T14:52:29Z</time>
      </trkpt>
      <trkpt lat="43.7576" lon="3.53752">
        <ele>535.11</ele>
        <time>2015-02-01T14:52:38Z</time>
      </trkpt>
      <trkpt lat="43.7576" lon="3.53754">
        <ele>535.11</ele>
        <time>2015-02-01T14:52:40Z</time>
      </trkpt>
      <trkpt lat="43.75761" lon="3.53763">
        <ele>535.59</ele>
        <time>2015-02-01T14:52:50Z</time>
      </trkpt>
      <trkpt lat="43.75761" lon="3.5376">
        <ele>535.11</ele>
        <time>2015-02-01T14:53:13Z</time>
      </trkpt>
      <trkpt lat="43.75761" lon="3.53762">
        <ele>534.63</ele>
        <time>2015-02-01T14:53:35Z</time>
      </trkpt>
      <trkpt lat="43.75761" lon="3.53763">
        <ele>533.67</ele>
        <time>2015-02-01T14:53:54Z</time>
      </trkpt>
      <trkpt lat="43.7576" lon="3.53764">
        <ele>532.71</ele>
        <time>2015-02-01T14:54:15Z</time>
      </trkpt>
      <trkpt lat="43.75761" lon="3.53763">
        <ele>532.71</ele>
        <time>2015-02-01T14:54:37Z</time>
      </trkpt>
      <trkpt lat="43.75762" lon="3.53764">
        <ele>532.71</ele>
        <time>2015-02-01T14:54:55Z</time>
      </trkpt>
      <trkpt lat="43.75763" lon="3.53768">
        <ele>533.67</ele>
        <time>2015-02-01T14:55:23Z</time>
      </trkpt>
      <trkpt lat="43.75765" lon="3.53771">
        <ele>535.59</ele>
        <time>2015-02-01T14:55:29Z</time>
      </trkpt>
      <trkpt lat="43.75768" lon="3.53766">
        <ele>537.03</ele>
        <time>2015-02-01T14:55:41Z</time>
      </trkpt>
      <trkpt lat="43.75771" lon="3.53762">
        <ele>537.03</ele>
        <time>2015-02-01T14:55:45Z</time>
      </trkpt>
      <trkpt lat="43.75774" lon="3.53758">
        <ele>536.07</ele>
        <time>2015-02-01T14:55:49Z</time>
      </trkpt>
      <trkpt lat="43.75776" lon="3.53755">
        <ele>537.51</ele>
        <time>2015-02-01T14:55:52Z</time>
      </trkpt>
      <trkpt lat="43.75777" lon="3.53752">
        <ele>535.59</ele>
        <time>2015-02-01T14:55:55Z</time>
      </trkpt>
      <trkpt lat="43.75778" lon="3.5375">
        <ele>532.71</ele>
        <time>2015-02-01T14:56:00Z</time>
      </trkpt>
      <trkpt lat="43.75778" lon="3.53748">
        <ele>531.75</ele>
        <time>2015-02-01T14:56:02Z</time>
      </trkpt>
      <trkpt lat="43.75778" lon="3.53746">
        <ele>528.38</ele>
        <time>2015-02-01T14:56:04Z</time>
      </trkpt>
      <trkpt lat="43.75778" lon="3.53745">
        <ele>531.75</ele>
        <time>2015-02-01T14:56:05Z</time>
      </trkpt>
      <trkpt lat="43.75777" lon="3.5374">
        <ele>527.9</ele>
        <time>2015-02-01T14:56:08Z</time>
      </trkpt>
      <trkpt lat="43.75777" lon="3.53737">
        <ele>525.98</ele>
        <time>2015-02-01T14:56:11Z</time>
      </trkpt>
      <trkpt lat="43.75776" lon="3.53733">
        <ele>525.98</ele>
        <time>2015-02-01T14:56:13Z</time>
      </trkpt>
      <trkpt lat="43.75779" lon="3.53721">
        <ele>528.38</ele>
        <time>2015-02-01T14:56:21Z</time>
      </trkpt>
      <trkpt lat="43.75777" lon="3.53707">
        <ele>525.98</ele>
        <time>2015-02-01T14:56:32Z</time>
      </trkpt>
      <trkpt lat="43.75775" lon="3.53702">
        <ele>524.54</ele>
        <time>2015-02-01T14:56:35Z</time>
      </trkpt>
      <trkpt lat="43.75775" lon="3.537">
        <ele>524.06</ele>
        <time>2015-02-01T14:56:36Z</time>
      </trkpt>
      <trkpt lat="43.75774" lon="3.53689">
        <ele>521.65</ele>
        <time>2015-02-01T14:56:47Z</time>
      </trkpt>
      <trkpt lat="43.75776" lon="3.53691">
        <ele>520.69</ele>
        <time>2015-02-01T14:56:49Z</time>
      </trkpt>
      <trkpt lat="43.75779" lon="3.53698">
        <ele>517.81</ele>
        <time>2015-02-01T14:56:57Z</time>
      </trkpt>
      <trkpt lat="43.75781" lon="3.53698">
        <ele>515.4</ele>
        <time>2015-02-01T14:57:00Z</time>
      </trkpt>
      <trkpt lat="43.75782" lon="3.5369">
        <ele>516.85</ele>
        <time>2015-02-01T14:57:07Z</time>
      </trkpt>
      <trkpt lat="43.75783" lon="3.53686">
        <ele>515.88</ele>
        <time>2015-02-01T14:57:09Z</time>
      </trkpt>
      <trkpt lat="43.75781" lon="3.53668">
        <ele>513.48</ele>
        <time>2015-02-01T14:57:21Z</time>
      </trkpt>
      <trkpt lat="43.75779" lon="3.53658">
        <ele>509.64</ele>
        <time>2015-02-01T14:57:30Z</time>
      </trkpt>
      <trkpt lat="43.75779" lon="3.53658">
        <ele>509.64</ele>
        <time>2015-02-01T14:57:31Z</time>
      </trkpt>
      <trkpt lat="43.75788" lon="3.53665">
        <ele>510.6</ele>
        <time>2015-02-01T14:57:42Z</time>
      </trkpt>
      <trkpt lat="43.75791" lon="3.53674">
        <ele>513.96</ele>
        <time>2015-02-01T14:57:48Z</time>
      </trkpt>
      <trkpt lat="43.75792" lon="3.53677">
        <ele>510.6</ele>
        <time>2015-02-01T14:57:50Z</time>
      </trkpt>
      <trkpt lat="43.75794" lon="3.53683">
        <ele>507.71</ele>
        <time>2015-02-01T14:57:55Z</time>
      </trkpt>
      <trkpt lat="43.75798" lon="3.53691">
        <ele>509.16</ele>
        <time>2015-02-01T14:58:01Z</time>
      </trkpt>
      <trkpt lat="43.75799" lon="3.53705">
        <ele>506.27</ele>
        <time>2015-02-01T14:58:09Z</time>
      </trkpt>
      <trkpt lat="43.75803" lon="3.53726">
        <ele>506.75</ele>
        <time>2015-02-01T14:58:21Z</time>
      </trkpt>
      <trkpt lat="43.75811" lon="3.53739">
        <ele>504.83</ele>
        <time>2015-02-01T14:58:34Z</time>
      </trkpt>
      <trkpt lat="43.75816" lon="3.53737">
        <ele>504.35</ele>
        <time>2015-02-01T14:58:40Z</time>
      </trkpt>
      <trkpt lat="43.75825" lon="3.53724">
        <ele>500.98</ele>
        <time>2015-02-01T14:58:53Z</time>
      </trkpt>
      <trkpt lat="43.75828" lon="3.5372">
        <ele>499.54</ele>
        <time>2015-02-01T14:59:00Z</time>
      </trkpt>
      <trkpt lat="43.75832" lon="3.53713">
        <ele>497.14</ele>
        <time>2015-02-01T14:59:07Z</time>
      </trkpt>
      <trkpt lat="43.75837" lon="3.53711">
        <ele>497.62</ele>
        <time>2015-02-01T14:59:12Z</time>
      </trkpt>
      <trkpt lat="43.75843" lon="3.53713">
        <ele>497.62</ele>
        <time>2015-02-01T14:59:16Z</time>
      </trkpt>
      <trkpt lat="43.75854" lon="3.53706">
        <ele>495.22</ele>
        <time>2015-02-01T14:59:30Z</time>
      </trkpt>
      <trkpt lat="43.75865" lon="3.53709">
        <ele>494.26</ele>
        <time>2015-02-01T14:59:40Z</time>
      </trkpt>
      <trkpt lat="43.75879" lon="3.53705">
        <ele>492.33</ele>
        <time>2015-02-01T14:59:53Z</time>
      </trkpt>
      <trkpt lat="43.7588" lon="3.53704">
        <ele>492.33</ele>
        <time>2015-02-01T14:59:54Z</time>
      </trkpt>
      <trkpt lat="43.75882" lon="3.53702">
        <ele>495.7</ele>
        <time>2015-02-01T14:59:59Z</time>
      </trkpt>
      <trkpt lat="43.75882" lon="3.53704">
        <ele>494.26</ele>
        <time>2015-02-01T15:00:06Z</time>
      </trkpt>
      <trkpt lat="43.75886" lon="3.53697">
        <ele>493.29</ele>
        <time>2015-02-01T15:00:23Z</time>
      </trkpt>
      <trkpt lat="43.75891" lon="3.53694">
        <ele>494.74</ele>
        <time>2015-02-01T15:00:37Z</time>
      </trkpt>
      <trkpt lat="43.75891" lon="3.53694">
        <ele>491.85</ele>
        <time>2015-02-01T15:00:48Z</time>
      </trkpt>
      <trkpt lat="43.75891" lon="3.53692">
        <ele>493.77</ele>
        <time>2015-02-01T15:00:56Z</time>
      </trkpt>
      <trkpt lat="43.75892" lon="3.53691">
        <ele>496.18</ele>
        <time>2015-02-01T15:01:21Z</time>
      </trkpt>
      <trkpt lat="43.75893" lon="3.53695">
        <ele>495.7</ele>
        <time>2015-02-01T15:01:35Z</time>
      </trkpt>
      <trkpt lat="43.75891" lon="3.53693">
        <ele>495.7</ele>
        <time>2015-02-01T15:01:57Z</time>
      </trkpt>
      <trkpt lat="43.75892" lon="3.53693">
        <ele>496.66</ele>
        <time>2015-02-01T15:02:01Z</time>
      </trkpt>
      <trkpt lat="43.75898" lon="3.53691">
        <ele>497.14</ele>
        <time>2015-02-01T15:02:19Z</time>
      </trkpt>
      <trkpt lat="43.75902" lon="3.5369">
        <ele>497.62</ele>
        <time>2015-02-01T15:02:22Z</time>
      </trkpt>
      <trkpt lat="43.75912" lon="3.53685">
        <ele>496.18</ele>
        <time>2015-02-01T15:02:29Z</time>
      </trkpt>
      <trkpt lat="43.75918" lon="3.53682">
        <ele>496.66</ele>
        <time>2015-02-01T15:02:34Z</time>
      </trkpt>
      <trkpt lat="43.75933" lon="3.53667">
        <ele>498.1</ele>
        <time>2015-02-01T15:02:51Z</time>
      </trkpt>
      <trkpt lat="43.75934" lon="3.53666">
        <ele>498.1</ele>
        <time>2015-02-01T15:02:52Z</time>
      </trkpt>
      <trkpt lat="43.75936" lon="3.53662">
        <ele>499.06</ele>
        <time>2015-02-01T15:02:56Z</time>
      </trkpt>
      <trkpt lat="43.75948" lon="3.53652">
        <ele>499.06</ele>
        <time>2015-02-01T15:03:09Z</time>
      </trkpt>
      <trkpt lat="43.75961" lon="3.53642">
        <ele>500.5</ele>
        <time>2015-02-01T15:03:22Z</time>
      </trkpt>
      <trkpt lat="43.75963" lon="3.5364">
        <ele>500.98</ele>
        <time>2015-02-01T15:03:25Z</time>
      </trkpt>
      <trkpt lat="43.75971" lon="3.53633">
        <ele>500.98</ele>
        <time>2015-02-01T15:03:32Z</time>
      </trkpt>
      <trkpt lat="43.75981" lon="3.53621">
        <ele>503.39</ele>
        <time>2015-02-01T15:03:44Z</time>
      </trkpt>
      <trkpt lat="43.75991" lon="3.53609">
        <ele>504.83</ele>
        <time>2015-02-01T15:03:59Z</time>
      </trkpt>
      <trkpt lat="43.75991" lon="3.53609">
        <ele>505.79</ele>
        <time>2015-02-01T15:04:08Z</time>
      </trkpt>
      <trkpt lat="43.75995" lon="3.53607">
        <ele>505.31</ele>
        <time>2015-02-01T15:04:25Z</time>
      </trkpt>
      <trkpt lat="43.76" lon="3.53603">
        <ele>508.67</ele>
        <time>2015-02-01T15:04:34Z</time>
      </trkpt>
      <trkpt lat="43.76001" lon="3.53603">
        <ele>508.19</ele>
        <time>2015-02-01T15:04:35Z</time>
      </trkpt>
      <trkpt lat="43.76004" lon="3.53603">
        <ele>508.19</ele>
        <time>2015-02-01T15:04:39Z</time>
      </trkpt>
      <trkpt lat="43.76015" lon="3.53594">
        <ele>509.64</ele>
        <time>2015-02-01T15:04:52Z</time>
      </trkpt>
      <trkpt lat="43.76017" lon="3.53593">
        <ele>509.64</ele>
        <time>2015-02-01T15:04:54Z</time>
      </trkpt>
      <trkpt lat="43.76027" lon="3.53588">
        <ele>510.6</ele>
        <time>2015-02-01T15:05:05Z</time>
      </trkpt>
      <trkpt lat="43.7603" lon="3.53586">
        <ele>510.12</ele>
        <time>2015-02-01T15:05:09Z</time>
      </trkpt>
      <trkpt lat="43.76036" lon="3.53583">
        <ele>509.16</ele>
        <time>2015-02-01T15:05:15Z</time>
      </trkpt>
      <trkpt lat="43.7604" lon="3.53566">
        <ele>506.75</ele>
        <time>2015-02-01T15:05:27Z</time>
      </trkpt>
      <trkpt lat="43.76045" lon="3.53557">
        <ele>503.87</ele>
        <time>2015-02-01T15:05:42Z</time>
      </trkpt>
      <trkpt lat="43.76047" lon="3.53558">
        <ele>503.39</ele>
        <time>2015-02-01T15:05:45Z</time>
      </trkpt>
      <trkpt lat="43.76048" lon="3.5356">
        <ele>503.39</ele>
        <time>2015-02-01T15:05:47Z</time>
      </trkpt>
      <trkpt lat="43.76051" lon="3.53567">
        <ele>501.95</ele>
        <time>2015-02-01T15:05:53Z</time>
      </trkpt>
      <trkpt lat="43.76064" lon="3.53558">
        <ele>498.58</ele>
        <time>2015-02-01T15:06:06Z</time>
      </trkpt>
      <trkpt lat="43.76068" lon="3.53554">
        <ele>498.58</ele>
        <time>2015-02-01T15:06:10Z</time>
      </trkpt>
      <trkpt lat="43.76079" lon="3.53545">
        <ele>496.18</ele>
        <time>2015-02-01T15:06:23Z</time>
      </trkpt>
      <trkpt lat="43.76082" lon="3.53544">
        <ele>495.22</ele>
        <time>2015-02-01T15:06:28Z</time>
      </trkpt>
      <trkpt lat="43.76098" lon="3.53535">
        <ele>494.74</ele>
        <time>2015-02-01T15:06:41Z</time>
      </trkpt>
      <trkpt lat="43.76108" lon="3.53523">
        <ele>493.29</ele>
        <time>2015-02-01T15:06:52Z</time>
      </trkpt>
      <trkpt lat="43.76112" lon="3.5352">
        <ele>492.33</ele>
        <time>2015-02-01T15:06:57Z</time>
      </trkpt>
      <trkpt lat="43.7612" lon="3.53515">
        <ele>491.37</ele>
        <time>2015-02-01T15:07:05Z</time>
      </trkpt>
      <trkpt lat="43.76131" lon="3.53504">
        <ele>489.93</ele>
        <time>2015-02-01T15:07:15Z</time>
      </trkpt>
      <trkpt lat="43.76137" lon="3.535">
        <ele>488.97</ele>
        <time>2015-02-01T15:07:22Z</time>
      </trkpt>
      <trkpt lat="43.76145" lon="3.53499">
        <ele>488.01</ele>
        <time>2015-02-01T15:07:29Z</time>
      </trkpt>
      <trkpt lat="43.76158" lon="3.53501">
        <ele>487.53</ele>
        <time>2015-02-01T15:07:43Z</time>
      </trkpt>
      <trkpt lat="43.76164" lon="3.53505">
        <ele>487.53</ele>
        <time>2015-02-01T15:07:48Z</time>
      </trkpt>
      <trkpt lat="43.76172" lon="3.53512">
        <ele>486.56</ele>
        <time>2015-02-01T15:07:55Z</time>
      </trkpt>
      <trkpt lat="43.76187" lon="3.53519">
        <ele>486.08</ele>
        <time>2015-02-01T15:08:08Z</time>
      </trkpt>
      <trkpt lat="43.76197" lon="3.53531">
        <ele>484.16</ele>
        <time>2015-02-01T15:08:20Z</time>
      </trkpt>
      <trkpt lat="43.76203" lon="3.53535">
        <ele>482.72</ele>
        <time>2015-02-01T15:08:30Z</time>
      </trkpt>
      <trkpt lat="43.76213" lon="3.5353">
        <ele>482.24</ele>
        <time>2015-02-01T15:08:39Z</time>
      </trkpt>
      <trkpt lat="43.76226" lon="3.53534">
        <ele>480.8</ele>
        <time>2015-02-01T15:08:51Z</time>
      </trkpt>
      <trkpt lat="43.76232" lon="3.53536">
        <ele>480.8</ele>
        <time>2015-02-01T15:08:56Z</time>
      </trkpt>
      <trkpt lat="43.76239" lon="3.53542">
        <ele>480.32</ele>
        <time>2015-02-01T15:09:02Z</time>
      </trkpt>
      <trkpt lat="43.76246" lon="3.53555">
        <ele>476.47</ele>
        <time>2015-02-01T15:09:13Z</time>
      </trkpt>
      <trkpt lat="43.76246" lon="3.53557">
        <ele>476.47</ele>
        <time>2015-02-01T15:09:14Z</time>
      </trkpt>
      <trkpt lat="43.76246" lon="3.53558">
        <ele>476.47</ele>
        <time>2015-02-01T15:09:15Z</time>
      </trkpt>
      <trkpt lat="43.76246" lon="3.53565">
        <ele>473.59</ele>
        <time>2015-02-01T15:09:20Z</time>
      </trkpt>
      <trkpt lat="43.76249" lon="3.53578">
        <ele>473.11</ele>
        <time>2015-02-01T15:09:29Z</time>
      </trkpt>
      <trkpt lat="43.76252" lon="3.5358">
        <ele>472.63</ele>
        <time>2015-02-01T15:09:33Z</time>
      </trkpt>
      <trkpt lat="43.76254" lon="3.53581">
        <ele>472.14</ele>
        <time>2015-02-01T15:09:35Z</time>
      </trkpt>
      <trkpt lat="43.76268" lon="3.53573">
        <ele>470.7</ele>
        <time>2015-02-01T15:09:47Z</time>
      </trkpt>
      <trkpt lat="43.76269" lon="3.53573">
        <ele>470.7</ele>
        <time>2015-02-01T15:09:48Z</time>
      </trkpt>
      <trkpt lat="43.76282" lon="3.53569">
        <ele>470.7</ele>
        <time>2015-02-01T15:10:02Z</time>
      </trkpt>
      <trkpt lat="43.76292" lon="3.53559">
        <ele>467.82</ele>
        <time>2015-02-01T15:10:12Z</time>
      </trkpt>
      <trkpt lat="43.76301" lon="3.53547">
        <ele>467.34</ele>
        <time>2015-02-01T15:10:23Z</time>
      </trkpt>
      <trkpt lat="43.76307" lon="3.53538">
        <ele>465.42</ele>
        <time>2015-02-01T15:10:31Z</time>
      </trkpt>
      <trkpt lat="43.76319" lon="3.53526">
        <ele>463.97</ele>
        <time>2015-02-01T15:10:43Z</time>
      </trkpt>
      <trkpt lat="43.76319" lon="3.53525">
        <ele>464.45</ele>
        <time>2015-02-01T15:10:44Z</time>
      </trkpt>
      <trkpt lat="43.76328" lon="3.53523">
        <ele>463.49</ele>
        <time>2015-02-01T15:10:51Z</time>
      </trkpt>
      <trkpt lat="43.76342" lon="3.53519">
        <ele>462.53</ele>
        <time>2015-02-01T15:11:03Z</time>
      </trkpt>
      <trkpt lat="43.76348" lon="3.53515">
        <ele>461.57</ele>
        <time>2015-02-01T15:11:10Z</time>
      </trkpt>
      <trkpt lat="43.76352" lon="3.53515">
        <ele>463.01</ele>
        <time>2015-02-01T15:11:14Z</time>
      </trkpt>
      <trkpt lat="43.76354" lon="3.53512">
        <ele>462.53</ele>
        <time>2015-02-01T15:11:16Z</time>
      </trkpt>
      <trkpt lat="43.76363" lon="3.53507">
        <ele>461.57</ele>
        <time>2015-02-01T15:11:22Z</time>
      </trkpt>
      <trkpt lat="43.76383" lon="3.53509">
        <ele>461.09</ele>
        <time>2015-02-01T15:11:37Z</time>
      </trkpt>
      <trkpt lat="43.76389" lon="3.53508">
        <ele>462.53</ele>
        <time>2015-02-01T15:11:42Z</time>
      </trkpt>
      <trkpt lat="43.76404" lon="3.53508">
        <ele>461.09</ele>
        <time>2015-02-01T15:11:55Z</time>
      </trkpt>
      <trkpt lat="43.76407" lon="3.53507">
        <ele>460.61</ele>
        <time>2015-02-01T15:11:58Z</time>
      </trkpt>
      <trkpt lat="43.76422" lon="3.53494">
        <ele>460.13</ele>
        <time>2015-02-01T15:12:13Z</time>
      </trkpt>
      <trkpt lat="43.76435" lon="3.53482">
        <ele>460.61</ele>
        <time>2015-02-01T15:12:23Z</time>
      </trkpt>
      <trkpt lat="43.76438" lon="3.53478">
        <ele>461.09</ele>
        <time>2015-02-01T15:12:25Z</time>
      </trkpt>
      <trkpt lat="43.76445" lon="3.53463">
        <ele>460.61</ele>
        <time>2015-02-01T15:12:36Z</time>
      </trkpt>
      <trkpt lat="43.7645" lon="3.53444">
        <ele>460.13</ele>
        <time>2015-02-01T15:12:49Z</time>
      </trkpt>
      <trkpt lat="43.76458" lon="3.53432">
        <ele>462.53</ele>
        <time>2015-02-01T15:12:59Z</time>
      </trkpt>
      <trkpt lat="43.7646" lon="3.53428">
        <ele>463.49</ele>
        <time>2015-02-01T15:13:03Z</time>
      </trkpt>
      <trkpt lat="43.7646" lon="3.53426">
        <ele>463.97</ele>
        <time>2015-02-01T15:13:04Z</time>
      </trkpt>
      <trkpt lat="43.76461" lon="3.53421">
        <ele>463.97</ele>
        <time>2015-02-01T15:13:07Z</time>
      </trkpt>
      <trkpt lat="43.76461" lon="3.5342">
        <ele>464.45</ele>
        <time>2015-02-01T15:13:08Z</time>
      </trkpt>
      <trkpt lat="43.76463" lon="3.53415">
        <ele>464.45</ele>
        <time>2015-02-01T15:13:11Z</time>
      </trkpt>
      <trkpt lat="43.76463" lon="3.53413">
        <ele>464.45</ele>
        <time>2015-02-01T15:13:12Z</time>
      </trkpt>
      <trkpt lat="43.76465" lon="3.53408">
        <ele>464.45</ele>
        <time>2015-02-01T15:13:16Z</time>
      </trkpt>
      <trkpt lat="43.7647" lon="3.53391">
        <ele>464.93</ele>
        <time>2015-02-01T15:13:29Z</time>
      </trkpt>
      <trkpt lat="43.76474" lon="3.53393">
        <ele>465.42</ele>
        <time>2015-02-01T15:13:45Z</time>
      </trkpt>
      <trkpt lat="43.76476" lon="3.53392">
        <ele>465.42</ele>
        <time>2015-02-01T15:13:49Z</time>
      </trkpt>
      <trkpt lat="43.76486" lon="3.53383">
        <ele>466.38</ele>
        <time>2015-02-01T15:14:01Z</time>
      </trkpt>
      <trkpt lat="43.76488" lon="3.53382">
        <ele>465.9</ele>
        <time>2015-02-01T15:14:03Z</time>
      </trkpt>
      <trkpt lat="43.76498" lon="3.53382">
        <ele>465.42</ele>
        <time>2015-02-01T15:14:14Z</time>
      </trkpt>
      <trkpt lat="43.76512" lon="3.53376">
        <ele>464.93</ele>
        <time>2015-02-01T15:14:26Z</time>
      </trkpt>
      <trkpt lat="43.76526" lon="3.53365">
        <ele>464.45</ele>
        <time>2015-02-01T15:14:39Z</time>
      </trkpt>
      <trkpt lat="43.76536" lon="3.53358">
        <ele>464.45</ele>
        <time>2015-02-01T15:14:48Z</time>
      </trkpt>
      <trkpt lat="43.7655" lon="3.53351">
        <ele>466.38</ele>
        <time>2015-02-01T15:15:00Z</time>
      </trkpt>
      <trkpt lat="43.76565" lon="3.53346">
        <ele>468.3</ele>
        <time>2015-02-01T15:15:12Z</time>
      </trkpt>
      <trkpt lat="43.76576" lon="3.53338">
        <ele>468.3</ele>
        <time>2015-02-01T15:15:22Z</time>
      </trkpt>
      <trkpt lat="43.76587" lon="3.53331">
        <ele>468.3</ele>
        <time>2015-02-01T15:15:34Z</time>
      </trkpt>
      <trkpt lat="43.76595" lon="3.53327">
        <ele>468.3</ele>
        <time>2015-02-01T15:15:40Z</time>
      </trkpt>
      <trkpt lat="43.76603" lon="3.53322">
        <ele>469.26</ele>
        <time>2015-02-01T15:15:46Z</time>
      </trkpt>
      <trkpt lat="43.76605" lon="3.5332">
        <ele>469.26</ele>
        <time>2015-02-01T15:15:48Z</time>
      </trkpt>
      <trkpt lat="43.76611" lon="3.53315">
        <ele>470.22</ele>
        <time>2015-02-01T15:15:53Z</time>
      </trkpt>
      <trkpt lat="43.76618" lon="3.53308">
        <ele>468.3</ele>
        <time>2015-02-01T15:16:00Z</time>
      </trkpt>
      <trkpt lat="43.7662" lon="3.53307">
        <ele>467.82</ele>
        <time>2015-02-01T15:16:02Z</time>
      </trkpt>
      <trkpt lat="43.76627" lon="3.53302">
        <ele>468.78</ele>
        <time>2015-02-01T15:16:10Z</time>
      </trkpt>
      <trkpt lat="43.7663" lon="3.53296">
        <ele>470.22</ele>
        <time>2015-02-01T15:16:14Z</time>
      </trkpt>
      <trkpt lat="43.76641" lon="3.53287">
        <ele>467.82</ele>
        <time>2015-02-01T15:16:25Z</time>
      </trkpt>
      <trkpt lat="43.76644" lon="3.53283">
        <ele>466.86</ele>
        <time>2015-02-01T15:16:29Z</time>
      </trkpt>
      <trkpt lat="43.76648" lon="3.53282">
        <ele>468.78</ele>
        <time>2015-02-01T15:16:33Z</time>
      </trkpt>
      <trkpt lat="43.76653" lon="3.53275">
        <ele>470.7</ele>
        <time>2015-02-01T15:16:38Z</time>
      </trkpt>
      <trkpt lat="43.76655" lon="3.53273">
        <ele>471.66</ele>
        <time>2015-02-01T15:16:40Z</time>
      </trkpt>
      <trkpt lat="43.76662" lon="3.5327">
        <ele>473.11</ele>
        <time>2015-02-01T15:16:48Z</time>
      </trkpt>
      <trkpt lat="43.76666" lon="3.53266">
        <ele>473.11</ele>
        <time>2015-02-01T15:16:54Z</time>
      </trkpt>
      <trkpt lat="43.76675" lon="3.53259">
        <ele>474.55</ele>
        <time>2015-02-01T15:17:04Z</time>
      </trkpt>
      <trkpt lat="43.76685" lon="3.53249">
        <ele>475.03</ele>
        <time>2015-02-01T15:17:15Z</time>
      </trkpt>
      <trkpt lat="43.76688" lon="3.53244">
        <ele>475.03</ele>
        <time>2015-02-01T15:17:18Z</time>
      </trkpt>
      <trkpt lat="43.76699" lon="3.53231">
        <ele>474.07</ele>
        <time>2015-02-01T15:17:31Z</time>
      </trkpt>
      <trkpt lat="43.76707" lon="3.5322">
        <ele>475.51</ele>
        <time>2015-02-01T15:17:41Z</time>
      </trkpt>
      <trkpt lat="43.76721" lon="3.5321">
        <ele>475.51</ele>
        <time>2015-02-01T15:17:52Z</time>
      </trkpt>
      <trkpt lat="43.76725" lon="3.53208">
        <ele>475.99</ele>
        <time>2015-02-01T15:17:56Z</time>
      </trkpt>
      <trkpt lat="43.76733" lon="3.53204">
        <ele>476.95</ele>
        <time>2015-02-01T15:18:01Z</time>
      </trkpt>
      <trkpt lat="43.76746" lon="3.53202">
        <ele>479.84</ele>
        <time>2015-02-01T15:18:13Z</time>
      </trkpt>
      <trkpt lat="43.7675" lon="3.53203">
        <ele>478.87</ele>
        <time>2015-02-01T15:18:16Z</time>
      </trkpt>
      <trkpt lat="43.76763" lon="3.5321">
        <ele>478.87</ele>
        <time>2015-02-01T15:18:27Z</time>
      </trkpt>
      <trkpt lat="43.76767" lon="3.53214">
        <ele>478.87</ele>
        <time>2015-02-01T15:18:31Z</time>
      </trkpt>
      <trkpt lat="43.7677" lon="3.53218">
        <ele>479.84</ele>
        <time>2015-02-01T15:18:34Z</time>
      </trkpt>
      <trkpt lat="43.76783" lon="3.53217">
        <ele>479.84</ele>
        <time>2015-02-01T15:18:45Z</time>
      </trkpt>
      <trkpt lat="43.76797" lon="3.53217">
        <ele>477.91</ele>
        <time>2015-02-01T15:18:56Z</time>
      </trkpt>
      <trkpt lat="43.7681" lon="3.53211">
        <ele>478.39</ele>
        <time>2015-02-01T15:19:07Z</time>
      </trkpt>
      <trkpt lat="43.76814" lon="3.532">
        <ele>478.39</ele>
        <time>2015-02-01T15:19:14Z</time>
      </trkpt>
      <trkpt lat="43.76814" lon="3.5319">
        <ele>477.91</ele>
        <time>2015-02-01T15:19:20Z</time>
      </trkpt>
      <trkpt lat="43.76816" lon="3.53182">
        <ele>479.35</ele>
        <time>2015-02-01T15:19:26Z</time>
      </trkpt>
      <trkpt lat="43.7682" lon="3.53177">
        <ele>479.84</ele>
        <time>2015-02-01T15:19:30Z</time>
      </trkpt>
      <trkpt lat="43.76828" lon="3.53169">
        <ele>477.91</ele>
        <time>2015-02-01T15:19:39Z</time>
      </trkpt>
      <trkpt lat="43.76833" lon="3.53166">
        <ele>478.39</ele>
        <time>2015-02-01T15:19:44Z</time>
      </trkpt>
      <trkpt lat="43.76838" lon="3.53163">
        <ele>479.84</ele>
        <time>2015-02-01T15:19:49Z</time>
      </trkpt>
      <trkpt lat="43.76851" lon="3.53166">
        <ele>481.76</ele>
        <time>2015-02-01T15:20:00Z</time>
      </trkpt>
      <trkpt lat="43.7686" lon="3.53161">
        <ele>482.72</ele>
        <time>2015-02-01T15:20:09Z</time>
      </trkpt>
      <trkpt lat="43.76872" lon="3.5315">
        <ele>483.2</ele>
        <time>2015-02-01T15:20:20Z</time>
      </trkpt>
      <trkpt lat="43.76873" lon="3.5315">
        <ele>483.68</ele>
        <time>2015-02-01T15:20:21Z</time>
      </trkpt>
      <trkpt lat="43.76884" lon="3.53141">
        <ele>483.2</ele>
        <time>2015-02-01T15:20:32Z</time>
      </trkpt>
      <trkpt lat="43.7689" lon="3.53139">
        <ele>484.16</ele>
        <time>2015-02-01T15:20:37Z</time>
      </trkpt>
      <trkpt lat="43.76895" lon="3.53135">
        <ele>485.6</ele>
        <time>2015-02-01T15:20:42Z</time>
      </trkpt>
      <trkpt lat="43.76906" lon="3.53124">
        <ele>486.08</ele>
        <time>2015-02-01T15:20:51Z</time>
      </trkpt>
      <trkpt lat="43.76914" lon="3.53121">
        <ele>486.08</ele>
        <time>2015-02-01T15:21:00Z</time>
      </trkpt>
      <trkpt lat="43.76916" lon="3.53121">
        <ele>486.08</ele>
        <time>2015-02-01T15:21:02Z</time>
      </trkpt>
      <trkpt lat="43.76924" lon="3.53121">
        <ele>486.08</ele>
        <time>2015-02-01T15:21:09Z</time>
      </trkpt>
      <trkpt lat="43.76937" lon="3.53118">
        <ele>485.6</ele>
        <time>2015-02-01T15:21:19Z</time>
      </trkpt>
      <trkpt lat="43.76947" lon="3.53116">
        <ele>485.6</ele>
        <time>2015-02-01T15:21:30Z</time>
      </trkpt>
      <trkpt lat="43.76948" lon="3.53116">
        <ele>485.6</ele>
        <time>2015-02-01T15:21:31Z</time>
      </trkpt>
      <trkpt lat="43.7695" lon="3.53115">
        <ele>486.56</ele>
        <time>2015-02-01T15:21:33Z</time>
      </trkpt>
      <trkpt lat="43.76955" lon="3.53106">
        <ele>487.53</ele>
        <time>2015-02-01T15:21:40Z</time>
      </trkpt>
      <trkpt lat="43.76958" lon="3.53101">
        <ele>486.56</ele>
        <time>2015-02-01T15:21:44Z</time>
      </trkpt>
      <trkpt lat="43.76961" lon="3.53087">
        <ele>488.49</ele>
        <time>2015-02-01T15:21:53Z</time>
      </trkpt>
      <trkpt lat="43.76961" lon="3.53081">
        <ele>488.97</ele>
        <time>2015-02-01T15:21:57Z</time>
      </trkpt>
      <trkpt lat="43.76964" lon="3.53076">
        <ele>489.93</ele>
        <time>2015-02-01T15:22:02Z</time>
      </trkpt>
      <trkpt lat="43.7697" lon="3.53067">
        <ele>490.41</ele>
        <time>2015-02-01T15:22:12Z</time>
      </trkpt>
      <trkpt lat="43.76973" lon="3.53069">
        <ele>490.89</ele>
        <time>2015-02-01T15:22:17Z</time>
      </trkpt>
      <trkpt lat="43.76977" lon="3.53076">
        <ele>489.45</ele>
        <time>2015-02-01T15:22:23Z</time>
      </trkpt>
      <trkpt lat="43.76979" lon="3.53077">
        <ele>488.97</ele>
        <time>2015-02-01T15:22:38Z</time>
      </trkpt>
      <trkpt lat="43.76977" lon="3.53075">
        <ele>489.45</ele>
        <time>2015-02-01T15:22:55Z</time>
      </trkpt>
      <trkpt lat="43.76977" lon="3.53075">
        <ele>488.01</ele>
        <time>2015-02-01T15:23:19Z</time>
      </trkpt>
      <trkpt lat="43.76978" lon="3.53076">
        <ele>489.45</ele>
        <time>2015-02-01T15:23:35Z</time>
      </trkpt>
      <trkpt lat="43.76979" lon="3.53077">
        <ele>491.37</ele>
        <time>2015-02-01T15:23:59Z</time>
      </trkpt>
      <trkpt lat="43.76979" lon="3.53078">
        <ele>488.97</ele>
        <time>2015-02-01T15:24:04Z</time>
      </trkpt>
      <trkpt lat="43.76979" lon="3.53077">
        <ele>487.05</ele>
        <time>2015-02-01T15:24:08Z</time>
      </trkpt>
      <trkpt lat="43.76977" lon="3.53076">
        <ele>490.41</ele>
        <time>2015-02-01T15:24:30Z</time>
      </trkpt>
      <trkpt lat="43.76978" lon="3.53075">
        <ele>488.49</ele>
        <time>2015-02-01T15:24:42Z</time>
      </trkpt>
      <trkpt lat="43.76977" lon="3.53075">
        <ele>491.37</ele>
        <time>2015-02-01T15:24:49Z</time>
      </trkpt>
      <trkpt lat="43.76976" lon="3.53075">
        <ele>490.41</ele>
        <time>2015-02-01T15:24:50Z</time>
      </trkpt>
      <trkpt lat="43.76976" lon="3.53075">
        <ele>487.05</ele>
        <time>2015-02-01T15:24:51Z</time>
      </trkpt>
      <trkpt lat="43.76976" lon="3.53075">
        <ele>489.45</ele>
        <time>2015-02-01T15:24:52Z</time>
      </trkpt>
      <trkpt lat="43.76977" lon="3.53076">
        <ele>486.08</ele>
        <time>2015-02-01T15:25:03Z</time>
      </trkpt>
      <trkpt lat="43.76977" lon="3.53076">
        <ele>486.08</ele>
        <time>2015-02-01T15:25:04Z</time>
      </trkpt>
      <trkpt lat="43.76977" lon="3.53076">
        <ele>489.93</ele>
        <time>2015-02-01T15:25:10Z</time>
      </trkpt>
      <trkpt lat="43.76976" lon="3.53075">
        <ele>487.05</ele>
        <time>2015-02-01T15:25:33Z</time>
      </trkpt>
      <trkpt lat="43.76976" lon="3.53075">
        <ele>490.89</ele>
        <time>2015-02-01T15:25:40Z</time>
      </trkpt>
      <trkpt lat="43.76977" lon="3.53074">
        <ele>491.85</ele>
        <time>2015-02-01T15:25:42Z</time>
      </trkpt>
      <trkpt lat="43.76977" lon="3.53075">
        <ele>488.97</ele>
        <time>2015-02-01T15:25:59Z</time>
      </trkpt>
      <trkpt lat="43.76977" lon="3.53074">
        <ele>489.93</ele>
        <time>2015-02-01T15:26:13Z</time>
      </trkpt>
      <trkpt lat="43.76976" lon="3.53076">
        <ele>490.41</ele>
        <time>2015-02-01T15:26:36Z</time>
      </trkpt>
      <trkpt lat="43.76977" lon="3.53075">
        <ele>490.41</ele>
        <time>2015-02-01T15:26:57Z</time>
      </trkpt>
      <trkpt lat="43.76978" lon="3.53076">
        <ele>489.45</ele>
        <time>2015-02-01T15:27:16Z</time>
      </trkpt>
      <trkpt lat="43.76978" lon="3.53077">
        <ele>488.49</ele>
        <time>2015-02-01T15:27:31Z</time>
      </trkpt>
      <trkpt lat="43.76988" lon="3.53086">
        <ele>488.97</ele>
        <time>2015-02-01T15:27:45Z</time>
      </trkpt>
      <trkpt lat="43.76999" lon="3.53092">
        <ele>487.05</ele>
        <time>2015-02-01T15:27:57Z</time>
      </trkpt>
      <trkpt lat="43.77012" lon="3.53106">
        <ele>487.53</ele>
        <time>2015-02-01T15:28:12Z</time>
      </trkpt>
      <trkpt lat="43.77028" lon="3.53127">
        <ele>488.49</ele>
        <time>2015-02-01T15:28:28Z</time>
      </trkpt>
      <trkpt lat="43.77032" lon="3.53136">
        <ele>485.12</ele>
        <time>2015-02-01T15:28:36Z</time>
      </trkpt>
      <trkpt lat="43.77033" lon="3.5314">
        <ele>483.68</ele>
        <time>2015-02-01T15:28:40Z</time>
      </trkpt>
      <trkpt lat="43.77034" lon="3.53143">
        <ele>484.16</ele>
        <time>2015-02-01T15:28:42Z</time>
      </trkpt>
      <trkpt lat="43.77037" lon="3.53149">
        <ele>487.05</ele>
        <time>2015-02-01T15:28:46Z</time>
      </trkpt>
      <trkpt lat="43.77039" lon="3.53152">
        <ele>487.05</ele>
        <time>2015-02-01T15:28:49Z</time>
      </trkpt>
      <trkpt lat="43.77044" lon="3.53154">
        <ele>489.45</ele>
        <time>2015-02-01T15:28:54Z</time>
      </trkpt>
      <trkpt lat="43.77047" lon="3.53153">
        <ele>490.89</ele>
        <time>2015-02-01T15:28:58Z</time>
      </trkpt>
      <trkpt lat="43.77063" lon="3.53145">
        <ele>491.37</ele>
        <time>2015-02-01T15:29:13Z</time>
      </trkpt>
      <trkpt lat="43.77077" lon="3.53145">
        <ele>494.26</ele>
        <time>2015-02-01T15:29:28Z</time>
      </trkpt>
      <trkpt lat="43.77085" lon="3.53142">
        <ele>496.18</ele>
        <time>2015-02-01T15:29:36Z</time>
      </trkpt>
      <trkpt lat="43.77097" lon="3.53138">
        <ele>496.18</ele>
        <time>2015-02-01T15:29:50Z</time>
      </trkpt>
      <trkpt lat="43.77113" lon="3.53141">
        <ele>493.77</ele>
        <time>2015-02-01T15:30:05Z</time>
      </trkpt>
      <trkpt lat="43.77114" lon="3.53141">
        <ele>497.14</ele>
        <time>2015-02-01T15:30:06Z</time>
      </trkpt>
      <trkpt lat="43.77115" lon="3.53142">
        <ele>495.7</ele>
        <time>2015-02-01T15:30:07Z</time>
      </trkpt>
      <trkpt lat="43.7712" lon="3.53145">
        <ele>496.66</ele>
        <time>2015-02-01T15:30:24Z</time>
      </trkpt>
      <trkpt lat="43.77118" lon="3.53145">
        <ele>497.14</ele>
        <time>2015-02-01T15:30:49Z</time>
      </trkpt>
      <trkpt lat="43.7712" lon="3.53147">
        <ele>496.66</ele>
        <time>2015-02-01T15:31:09Z</time>
      </trkpt>
      <trkpt lat="43.77134" lon="3.53148">
        <ele>498.58</ele>
        <time>2015-02-01T15:31:21Z</time>
      </trkpt>
      <trkpt lat="43.77142" lon="3.53148">
        <ele>499.06</ele>
        <time>2015-02-01T15:31:27Z</time>
      </trkpt>
      <trkpt lat="43.77154" lon="3.53158">
        <ele>502.43</ele>
        <time>2015-02-01T15:31:38Z</time>
      </trkpt>
      <trkpt lat="43.77157" lon="3.53162">
        <ele>499.06</ele>
        <time>2015-02-01T15:31:41Z</time>
      </trkpt>
      <trkpt lat="43.77162" lon="3.53171">
        <ele>500.02</ele>
        <time>2015-02-01T15:31:48Z</time>
      </trkpt>
      <trkpt lat="43.77164" lon="3.53175">
        <ele>500.5</ele>
        <time>2015-02-01T15:31:52Z</time>
      </trkpt>
      <trkpt lat="43.77167" lon="3.53181">
        <ele>499.54</ele>
        <time>2015-02-01T15:31:57Z</time>
      </trkpt>
      <trkpt lat="43.77178" lon="3.53191">
        <ele>500.5</ele>
        <time>2015-02-01T15:32:09Z</time>
      </trkpt>
      <trkpt lat="43.77179" lon="3.53191">
        <ele>503.87</ele>
        <time>2015-02-01T15:32:10Z</time>
      </trkpt>
      <trkpt lat="43.77182" lon="3.5319">
        <ele>503.87</ele>
        <time>2015-02-01T15:32:14Z</time>
      </trkpt>
      <trkpt lat="43.77198" lon="3.53184">
        <ele>505.79</ele>
        <time>2015-02-01T15:32:29Z</time>
      </trkpt>
      <trkpt lat="43.77201" lon="3.53185">
        <ele>505.79</ele>
        <time>2015-02-01T15:32:32Z</time>
      </trkpt>
      <trkpt lat="43.77203" lon="3.53187">
        <ele>506.75</ele>
        <time>2015-02-01T15:32:34Z</time>
      </trkpt>
      <trkpt lat="43.77211" lon="3.53195">
        <ele>507.71</ele>
        <time>2015-02-01T15:32:42Z</time>
      </trkpt>
      <trkpt lat="43.77214" lon="3.53199">
        <ele>510.12</ele>
        <time>2015-02-01T15:32:46Z</time>
      </trkpt>
      <trkpt lat="43.77214" lon="3.53198">
        <ele>506.75</ele>
        <time>2015-02-01T15:32:52Z</time>
      </trkpt>
      <trkpt lat="43.77214" lon="3.53198">
        <ele>506.75</ele>
        <time>2015-02-01T15:32:53Z</time>
      </trkpt>
      <trkpt lat="43.77215" lon="3.53204">
        <ele>504.35</ele>
        <time>2015-02-01T15:33:00Z</time>
      </trkpt>
      <trkpt lat="43.77218" lon="3.53209">
        <ele>503.87</ele>
        <time>2015-02-01T15:33:05Z</time>
      </trkpt>
      <trkpt lat="43.77223" lon="3.53214">
        <ele>506.27</ele>
        <time>2015-02-01T15:33:11Z</time>
      </trkpt>
      <trkpt lat="43.77225" lon="3.53217">
        <ele>508.19</ele>
        <time>2015-02-01T15:33:14Z</time>
      </trkpt>
      <trkpt lat="43.7723" lon="3.53225">
        <ele>507.71</ele>
        <time>2015-02-01T15:33:20Z</time>
      </trkpt>
      <trkpt lat="43.77235" lon="3.53233">
        <ele>505.31</ele>
        <time>2015-02-01T15:33:26Z</time>
      </trkpt>
      <trkpt lat="43.77236" lon="3.53235">
        <ele>509.16</ele>
        <time>2015-02-01T15:33:28Z</time>
      </trkpt>
      <trkpt lat="43.77243" lon="3.5325">
        <ele>507.71</ele>
        <time>2015-02-01T15:33:40Z</time>
      </trkpt>
      <trkpt lat="43.77243" lon="3.53251">
        <ele>507.71</ele>
        <time>2015-02-01T15:33:41Z</time>
      </trkpt>
      <trkpt lat="43.7725" lon="3.53268">
        <ele>509.16</ele>
        <time>2015-02-01T15:33:53Z</time>
      </trkpt>
      <trkpt lat="43.77253" lon="3.53274">
        <ele>511.08</ele>
        <time>2015-02-01T15:33:58Z</time>
      </trkpt>
      <trkpt lat="43.77253" lon="3.53286">
        <ele>511.08</ele>
        <time>2015-02-01T15:34:06Z</time>
      </trkpt>
      <trkpt lat="43.77253" lon="3.53287">
        <ele>510.6</ele>
        <time>2015-02-01T15:34:07Z</time>
      </trkpt>
      <trkpt lat="43.77252" lon="3.53297">
        <ele>512.04</ele>
        <time>2015-02-01T15:34:14Z</time>
      </trkpt>
      <trkpt lat="43.77252" lon="3.53301">
        <ele>510.6</ele>
        <time>2015-02-01T15:34:16Z</time>
      </trkpt>
      <trkpt lat="43.77252" lon="3.5331">
        <ele>513.96</ele>
        <time>2015-02-01T15:34:22Z</time>
      </trkpt>
      <trkpt lat="43.77252" lon="3.53311">
        <ele>513</ele>
        <time>2015-02-01T15:34:23Z</time>
      </trkpt>
      <trkpt lat="43.77253" lon="3.53319">
        <ele>509.64</ele>
        <time>2015-02-01T15:34:28Z</time>
      </trkpt>
      <trkpt lat="43.77253" lon="3.53321">
        <ele>511.56</ele>
        <time>2015-02-01T15:34:29Z</time>
      </trkpt>
      <trkpt lat="43.7726" lon="3.53338">
        <ele>510.6</ele>
        <time>2015-02-01T15:34:40Z</time>
      </trkpt>
      <trkpt lat="43.77262" lon="3.53343">
        <ele>509.16</ele>
        <time>2015-02-01T15:34:43Z</time>
      </trkpt>
      <trkpt lat="43.77266" lon="3.53354">
        <ele>509.16</ele>
        <time>2015-02-01T15:34:50Z</time>
      </trkpt>
      <trkpt lat="43.77271" lon="3.53369">
        <ele>509.64</ele>
        <time>2015-02-01T15:35:02Z</time>
      </trkpt>
      <trkpt lat="43.77271" lon="3.53376">
        <ele>509.64</ele>
        <time>2015-02-01T15:35:06Z</time>
      </trkpt>
      <trkpt lat="43.77272" lon="3.5338">
        <ele>508.19</ele>
        <time>2015-02-01T15:35:09Z</time>
      </trkpt>
      <trkpt lat="43.77275" lon="3.53401">
        <ele>506.75</ele>
        <time>2015-02-01T15:35:21Z</time>
      </trkpt>
      <trkpt lat="43.77276" lon="3.53421">
        <ele>505.31</ele>
        <time>2015-02-01T15:35:34Z</time>
      </trkpt>
      <trkpt lat="43.77276" lon="3.53424">
        <ele>507.23</ele>
        <time>2015-02-01T15:35:36Z</time>
      </trkpt>
      <trkpt lat="43.7728" lon="3.53445">
        <ele>506.75</ele>
        <time>2015-02-01T15:35:49Z</time>
      </trkpt>
      <trkpt lat="43.77289" lon="3.53461">
        <ele>505.31</ele>
        <time>2015-02-01T15:36:01Z</time>
      </trkpt>
      <trkpt lat="43.7729" lon="3.53462">
        <ele>504.83</ele>
        <time>2015-02-01T15:36:02Z</time>
      </trkpt>
      <trkpt lat="43.77291" lon="3.53464">
        <ele>505.31</ele>
        <time>2015-02-01T15:36:04Z</time>
      </trkpt>
      <trkpt lat="43.77295" lon="3.53474">
        <ele>505.79</ele>
        <time>2015-02-01T15:36:16Z</time>
      </trkpt>
      <trkpt lat="43.77299" lon="3.5348">
        <ele>508.19</ele>
        <time>2015-02-01T15:36:27Z</time>
      </trkpt>
      <trkpt lat="43.77299" lon="3.53479">
        <ele>504.83</ele>
        <time>2015-02-01T15:36:46Z</time>
      </trkpt>
    </trkseg>
  </trk>
</gpx>